GFSSW_925_thetae_000.txt.gz
Theta_e
312 312 312 311 310 312 312 313 313 315 317 318 318 317 317 317 316 320 323 320 319 329 329 336 337 340 345 343 344 343 337 337 338 341 350 350 350 351 348 354 355 353 349 351 350
310 310 311 311 310 311 311 311 312 314 318 317 318 318 316 316 322 323 321 318 318 326 331 331 337 341 340 339 342 339 335 336 340 341 347 349 350 352 353 358 360 357 354 352 349
308 307 308 310 310 310 310 310 311 315 318 318 319 318 315 316 327 323 320 318 323 325 327 326 338 339 335 332 336 334 335 343 347 347 348 350 351 349 351 353 357 359 357 352 349
305 306 305 307 308 309 309 309 313 317 318 317 318 315 314 324 322 325 323 318 322 329 327 328 337 333 331 332 332 336 347 347 350 348 347 347 348 355 355 355 356 354 353 352 351
303 305 305 304 306 308 308 309 318 319 317 317 315 313 318 325 323 323 321 317 321 329 326 334 335 331 331 331 333 342 349 351 350 347 346 344 349 357 359 356 355 355 355 354 352
303 304 305 304 306 307 307 313 321 318 316 311 310 311 325 323 324 332 332 321 329 327 326 335 331 330 330 331 334 345 349 349 346 342 342 344 348 347 359 357 357 356 356 355 353
303 303 305 305 305 306 308 318 318 314 311 310 309 321 325 323 331 329 333 322 324 325 329 332 330 329 330 336 341 348 351 351 346 348 343 341 346 353 358 358 357 356 357 356 355
303 303 304 305 304 305 308 319 315 313 312 312 318 327 326 323 331 326 325 325 325 329 331 331 328 328 330 336 344 344 344 347 348 348 346 351 349 353 353 355 357 357 357 357 356
303 304 304 305 305 305 310 318 314 316 314 316 330 331 330 328 331 326 324 325 326 330 330 326 327 329 333 334 337 341 340 340 347 349 349 349 348 351 350 350 353 355 356 356 356
303 304 304 305 305 306 317 318 318 323 324 325 329 333 329 328 327 325 325 325 329 330 329 329 329 329 330 333 334 335 337 339 341 346 349 348 351 349 349 348 350 352 353 354 354
303 304 304 305 305 306 320 324 332 332 330 332 332 329 327 326 327 326 326 326 328 328 328 330 331 330 329 330 330 330 332 337 338 342 345 347 354 349 348 349 347 347 352 352 352
303 303 304 305 306 307 319 330 331 329 331 328 329 329 329 326 327 327 328 327 327 326 327 327 329 329 329 330 329 329 330 332 340 344 346 353 354 353 349 345 348 347 351 351 352
303 303 304 305 307 317 320 319 326 326 330 330 329 329 328 327 326 326 328 328 327 326 327 326 327 329 329 329 330 331 331 332 337 348 347 353 356 360 353 352 349 351 350 352 353
303 304 304 305 314 315 318 327 322 327 331 329 326 328 328 326 325 325 327 327 326 326 327 329 328 328 329 330 331 332 333 333 335 350 344 349 343 361 357 357 354 351 354 353 354
303 304 304 305 311 315 322 319 324 326 331 326 328 327 327 326 326 327 327 327 326 328 329 330 328 329 330 330 331 334 338 339 341 348 347 355 348 342 354 358 355 353 351 351 352
304 304 304 313 313 312 315 321 328 330 327 327 325 327 327 327 327 328 328 327 328 328 329 330 330 330 330 330 330 338 343 343 343 339 342 337 343 335 342 352 351 352 353 353 352
304 305 306 309 314 316 318 331 336 330 327 326 324 326 327 326 326 327 329 328 328 329 331 330 329 330 331 332 334 335 335 335 336 336 335 337 339 336 336 348 347 350 353 353 351
304 305 310 308 314 312 315 330 336 328 327 329 325 325 326 326 326 328 328 329 329 330 330 331 332 330 331 331 332 332 331 331 333 332 330 340 334 337 343 343 342 347 350 352 351
305 312 313 316 313 315 323 331 332 328 332 331 326 325 326 326 326 327 329 329 329 329 330 330 330 330 330 331 332 332 332 331 332 330 330 331 336 339 342 343 344 348 351 354 349
310 312 314 319 320 316 326 328 330 330 331 329 330 326 326 326 326 327 329 329 329 328 329 330 331 330 330 331 331 333 332 332 331 334 335 332 331 332 337 337 344 346 351 354 349
311 313 320 320 320 318 327 329 329 327 327 330 331 330 327 326 327 327 329 328 328 328 329 329 330 333 332 332 331 332 333 334 333 334 334 334 332 335 334 335 338 346 350 353 348
315 314 320 319 323 323 327 329 324 327 326 327 329 330 329 327 327 328 328 329 327 328 328 329 330 332 331 332 333 332 332 334 336 341 335 334 332 335 334 336 337 340 349 350 351
318 316 321 322 326 330 330 329 327 326 326 326 329 329 329 330 330 328 328 329 328 328 329 330 329 331 333 334 333 334 334 334 334 335 336 335 334 338 337 340 341 341 346 351 352
321 323 326 326 327 329 329 329 328 325 326 325 327 329 331 331 333 332 331 332 332 331 333 332 330 331 330 332 331 334 334 334 334 336 336 336 335 334 337 338 338 342 346 348 351
321 325 323 327 328 327 326 328 328 328 327 327 329 329 332 333 332 332 332 334 333 337 333 332 335 333 331 330 331 332 334 334 335 334 336 334 336 337 336 336 338 337 339 346 347
320 321 321 325 324 324 321 328 326 327 328 327 330 331 332 333 335 333 332 335 335 335 336 336 338 337 333 332 331 331 332 334 334 334 336 335 334 331 331 332 332 333 337 342 346
312 313 318 316 325 325 327 327 326 326 327 327 330 333 331 334 331 332 332 334 333 338 337 338 339 341 336 335 334 336 335 335 335 336 334 333 333 331 331 332 333 337 338 339 342

GFSSW_925_thetae_003.txt.gz
Theta_e
307 309 309 309 309 309 311 312 314 315 315 319 319 318 319 318 318 322 328 324 324 324 332 334 340 341 345 347 342 342 342 336 340 341 345 345 348 349 349 349 349 349 347 349 348
306 306 308 309 308 308 308 310 312 315 318 320 320 319 320 317 323 327 326 322 320 322 331 333 335 338 343 341 339 339 337 337 339 341 343 346 348 351 355 358 353 352 349 348 348
304 305 305 308 308 308 306 309 310 318 320 320 319 320 318 316 330 326 326 322 318 320 330 329 333 339 341 337 336 337 335 338 340 341 343 344 343 344 345 358 353 356 352 350 349
303 304 305 305 308 307 306 307 311 321 320 319 318 319 314 325 327 331 322 322 319 326 330 327 334 339 337 335 334 338 339 341 340 340 343 342 344 349 356 356 354 351 349 349 350
303 304 305 305 306 307 307 307 314 319 318 317 316 314 319 328 327 326 322 319 328 332 329 329 335 337 334 334 333 341 341 341 341 342 341 341 348 355 357 353 351 351 350 350 349
303 304 304 305 305 306 307 307 317 316 312 310 310 312 326 328 326 329 329 321 324 328 327 330 338 335 334 333 336 340 342 341 341 340 341 345 347 354 357 352 353 353 353 351 350
303 304 304 305 305 305 307 307 318 315 313 311 310 321 326 326 328 330 330 321 324 326 327 333 334 332 334 333 337 339 341 341 341 342 340 340 344 354 357 354 355 355 355 354 353
303 303 304 305 305 305 306 308 318 314 313 312 315 326 333 323 329 329 330 323 326 326 327 334 331 331 333 335 340 339 340 343 342 341 343 345 351 353 353 355 357 356 356 356 355
303 303 303 304 305 305 307 314 318 316 316 315 330 335 336 329 332 327 326 324 324 327 332 331 330 332 333 335 341 339 341 342 343 341 347 346 349 350 348 350 354 354 354 353 353
302 303 303 304 306 305 307 320 324 320 326 326 328 334 333 329 329 326 325 325 326 330 333 330 330 332 334 334 338 339 340 340 342 341 340 345 346 350 348 346 351 352 352 351 352
303 303 303 304 306 305 308 327 335 338 333 333 334 329 328 328 327 326 326 326 328 331 332 331 331 332 332 333 334 336 335 338 337 340 341 342 346 350 349 347 347 349 351 350 350
303 303 304 304 305 307 313 330 331 331 332 329 329 331 329 328 327 327 326 326 328 330 330 332 332 331 331 331 332 331 332 336 337 339 339 341 348 346 347 348 346 346 348 348 348
303 303 304 304 306 313 323 326 325 328 332 329 328 330 331 328 327 326 326 327 328 328 328 330 331 332 331 331 331 331 331 332 335 337 337 344 345 350 345 346 346 344 345 346 347
303 304 304 305 312 319 319 327 328 328 334 329 329 329 329 328 328 327 326 327 327 328 328 328 329 329 329 330 330 331 331 331 332 337 340 338 342 352 351 346 344 346 345 345 345
303 304 304 306 311 315 321 321 324 329 334 328 329 328 330 326 328 327 326 328 328 327 328 328 329 330 330 330 331 334 332 332 332 334 337 341 342 351 344 354 349 344 346 347 347
303 303 304 312 316 316 318 318 327 333 330 328 329 329 329 327 327 327 326 328 328 328 328 330 331 331 331 331 331 335 335 335 335 335 339 341 345 341 353 356 353 349 344 345 347
303 303 306 310 314 318 321 325 337 334 328 328 328 328 328 326 328 326 326 328 329 330 330 331 331 331 331 331 332 333 334 337 337 339 340 337 336 340 336 341 339 346 347 345 345
303 304 309 311 313 315 316 325 335 332 329 328 327 328 327 327 328 327 327 329 330 331 331 333 331 331 331 331 332 332 334 335 338 337 336 335 336 334 332 337 341 342 345 347 348
304 313 316 317 317 315 322 326 332 332 329 328 327 327 327 327 328 329 328 329 330 331 332 333 332 331 331 332 332 333 332 333 332 334 335 334 335 334 339 338 340 341 343 349 349
310 314 316 319 320 316 324 326 330 330 332 332 332 327 327 328 327 329 330 330 330 331 332 333 334 332 331 331 332 334 332 332 332 334 337 335 334 333 339 336 336 338 341 345 350
315 318 320 320 322 321 325 328 329 330 330 331 332 331 327 328 328 328 331 331 331 330 330 331 332 332 332 331 332 332 334 335 335 337 338 336 336 336 335 334 335 336 338 344 349
316 318 323 323 323 325 324 326 325 329 329 330 331 332 330 328 329 328 329 331 331 331 330 330 331 332 332 332 331 332 333 333 336 338 336 336 336 334 333 333 335 336 338 342 350
320 320 321 323 323 326 325 325 328 330 329 330 330 332 332 329 329 328 329 330 330 329 330 330 330 332 332 333 331 331 332 333 334 335 342 341 338 337 335 336 337 338 337 343 349
320 323 319 326 324 329 329 327 330 329 329 328 329 332 332 332 330 329 328 329 329 329 335 331 330 330 331 332 334 333 331 332 333 337 337 339 337 339 337 338 338 337 339 340 347
323 325 328 327 324 328 331 330 329 330 328 328 329 330 333 334 332 331 330 331 331 336 330 330 333 332 331 330 332 332 332 331 334 335 336 336 337 337 336 335 336 334 335 338 344
318 322 324 327 330 330 325 331 330 329 330 329 329 330 332 337 339 333 334 334 334 334 333 333 334 333 333 332 330 331 332 332 333 333 333 333 335 335 334 334 333 333 333 335 338
313 315 319 323 325 327 327 329 330 329 329 329 331 333 332 336 335 335 335 337 337 337 336 337 335 336 336 333 332 333 332 332 333 334 334 335 335 336 335 334 334 335 335 336 336

GFSSW_925_thetae_006.txt.gz
Theta_e
307 306 307 308 308 309 309 310 311 312 317 322 322 322 320 319 319 322 327 325 327 325 325 333 333 337 339 343 346 348 346 342 341 344 347 346 346 343 343 347 348 349 348 348 347
305 305 305 307 308 307 308 310 310 310 318 322 322 322 320 318 320 326 325 327 323 321 329 329 332 334 339 342 340 338 339 340 340 341 347 344 346 347 349 350 349 346 348 347 347
304 304 305 305 307 307 306 309 310 310 318 319 320 320 320 316 329 326 324 325 325 320 325 330 332 335 340 340 337 337 337 337 342 343 347 344 352 350 357 352 350 349 350 348 348
303 304 304 305 305 307 306 306 309 310 317 315 318 318 317 323 329 327 326 325 323 321 327 331 331 336 340 336 335 338 341 339 339 344 343 342 349 349 350 350 350 347 348 348 348
303 304 304 304 305 306 306 306 307 312 316 312 311 315 319 327 327 327 322 323 322 323 327 331 329 338 339 335 333 339 340 339 342 342 342 344 348 352 343 349 347 346 348 348 348
303 304 304 304 305 305 306 306 307 315 315 313 310 311 323 328 326 327 324 323 324 325 328 329 331 337 336 334 334 339 340 339 340 339 342 345 348 350 352 350 348 348 348 348 348
303 303 304 304 305 305 306 306 307 318 315 312 309 317 328 325 327 328 326 323 324 326 329 328 332 337 334 333 339 339 339 340 338 342 342 341 349 353 352 351 352 351 350 349 348
302 303 303 303 304 305 306 307 307 320 316 313 311 324 330 328 326 329 327 324 323 326 327 329 335 334 334 335 337 339 340 340 342 344 341 344 353 353 351 353 354 353 352 352 351
302 302 303 303 304 305 306 308 310 321 317 315 323 328 335 325 326 330 328 324 323 326 327 330 335 332 333 333 340 339 341 343 344 343 342 344 350 352 350 350 351 353 352 353 352
302 303 303 303 304 305 306 309 322 323 329 325 326 333 335 334 326 329 328 324 327 327 328 334 334 332 332 335 341 339 342 344 345 343 345 346 348 349 347 348 350 350 349 351 351
302 302 303 303 304 305 306 316 333 338 334 334 331 329 331 332 329 327 327 325 326 326 331 334 333 331 332 334 337 339 339 343 342 345 348 346 347 348 345 347 350 350 349 349 348
302 302 303 304 305 306 306 320 328 328 331 330 332 332 331 328 328 326 326 326 325 327 330 332 331 331 332 334 334 335 335 337 340 340 342 349 349 348 345 345 348 350 350 349 349
303 303 303 303 305 310 318 325 325 325 331 330 329 329 331 330 329 326 327 326 326 328 331 332 331 332 332 332 332 334 332 333 339 339 338 339 349 348 346 345 345 346 348 348 348
302 303 303 303 312 314 318 323 328 327 331 329 329 330 329 329 329 327 327 327 327 329 330 330 332 332 332 331 331 332 331 332 333 337 338 339 343 352 348 345 346 345 346 346 347
302 303 304 303 309 314 318 319 322 327 332 329 328 329 329 330 328 327 327 327 328 329 329 329 330 331 332 332 331 331 332 331 332 332 333 335 340 351 348 347 344 344 344 345 345
302 303 304 309 313 316 318 320 322 333 331 329 329 328 329 329 328 328 327 327 328 328 329 329 329 329 329 330 330 331 335 333 332 332 336 335 340 347 351 354 346 344 343 345 345
303 302 305 307 312 315 315 321 329 334 329 328 328 328 329 329 327 328 327 326 327 329 328 328 329 330 330 330 332 332 335 338 337 337 338 336 338 347 346 344 348 353 350 344 346
303 303 305 308 308 311 316 322 332 333 331 329 329 329 329 329 327 328 327 326 328 328 328 328 329 331 331 331 332 332 334 336 343 339 338 339 341 346 340 345 349 351 350 345 344
304 311 313 319 317 315 319 326 329 330 332 329 330 328 328 328 326 327 327 326 328 329 331 330 332 332 331 332 333 333 335 334 335 335 334 337 338 336 336 336 334 338 336 346 344
309 313 315 316 320 318 319 323 326 326 329 331 332 329 328 328 326 328 327 327 328 329 331 332 335 331 331 332 332 333 333 333 334 340 340 335 335 337 344 338 336 335 336 340 347
314 322 320 317 322 320 319 323 325 325 328 332 333 333 328 328 327 328 328 328 328 330 332 332 334 333 332 331 331 332 333 333 333 334 337 338 339 342 345 340 336 335 336 336 339
314 318 320 322 325 321 320 323 323 325 329 331 331 332 333 332 328 328 330 330 329 330 331 332 332 335 333 332 332 332 333 335 337 341 340 342 337 337 336 335 334 335 335 338 341
316 319 320 323 324 323 323 324 325 325 328 330 329 330 332 334 331 329 329 330 331 331 333 332 333 334 334 333 332 332 333 332 333 334 344 340 341 341 335 335 336 336 337 346 348
317 320 320 324 323 324 324 326 326 325 327 330 329 330 329 333 333 331 329 329 331 331 338 335 331 335 331 335 334 335 332 331 332 339 337 338 344 339 338 340 344 340 341 341 350
319 321 325 327 323 323 325 328 330 326 328 330 330 330 331 334 332 331 330 329 330 337 331 331 339 332 330 330 330 332 333 332 332 335 337 339 342 343 341 339 338 337 336 338 345
320 317 320 322 326 331 323 328 332 329 328 330 330 330 330 334 339 342 339 338 332 331 330 331 336 331 331 331 330 330 331 334 333 332 332 334 339 340 341 340 337 334 334 339 340
314 311 316 321 325 327 329 330 331 331 329 330 330 333 332 335 336 337 335 335 337 338 335 337 333 338 335 332 332 333 332 331 333 334 333 339 339 342 341 337 335 335 335 339 341

GFSSW_925_thetae_009.txt.gz
Theta_e
305 305 307 307 307 308 308 308 310 311 311 318 317 318 322 322 321 322 326 322 326 326 325 324 331 336 338 339 345 346 350 351 352 349 344 345 343 344 346 349 349 348 350 348 355
304 305 305 306 307 307 306 308 309 310 311 318 314 320 320 319 319 323 323 324 325 324 323 326 327 330 332 336 341 349 350 342 345 344 346 349 351 351 349 350 350 349 347 350 351
304 304 304 305 306 306 306 307 307 308 309 317 312 317 319 317 328 325 325 322 323 326 322 323 325 328 330 333 339 349 346 344 344 343 347 349 350 349 354 349 349 350 348 347 351
303 304 304 304 305 306 306 306 307 307 309 317 313 311 317 322 327 326 325 324 323 325 322 324 328 328 329 333 335 339 342 344 344 345 348 346 345 342 346 349 348 347 346 346 346
303 304 304 304 304 305 306 306 306 307 311 316 313 310 318 326 325 325 325 325 324 324 323 324 329 328 328 336 333 337 337 340 341 343 346 347 344 344 345 342 347 347 347 347 345
302 303 304 304 304 305 305 306 306 307 313 315 312 310 320 324 322 324 326 324 324 322 323 324 328 327 329 335 335 338 336 340 339 343 347 350 345 344 344 344 347 347 347 346 345
302 302 303 303 304 304 305 306 306 306 313 316 311 316 324 321 323 327 324 322 324 323 322 326 328 326 327 332 337 339 337 337 340 342 347 347 352 354 348 346 347 348 347 347 346
302 302 302 303 304 304 305 306 306 308 316 316 312 322 323 319 325 324 326 324 323 324 324 327 329 326 329 329 337 338 336 337 340 341 345 348 356 353 349 348 348 349 348 348 347
302 302 302 303 304 304 305 306 308 312 321 315 320 323 333 331 328 326 328 324 321 322 325 326 326 327 332 330 333 335 337 342 343 339 341 345 355 352 350 351 352 351 350 350 349
303 302 302 303 304 304 305 307 312 327 324 326 325 328 329 334 327 326 329 327 321 320 323 324 325 330 329 327 334 336 337 343 344 341 340 344 352 351 350 352 352 352 352 353 352
303 302 302 302 304 304 305 307 323 333 332 334 329 329 328 331 329 325 327 327 320 321 322 323 330 331 330 328 329 337 337 343 343 341 343 343 350 351 348 347 347 348 349 350 351
304 302 301 302 304 305 307 314 317 322 325 326 330 333 332 332 330 327 328 325 320 322 323 325 331 332 332 331 332 332 342 343 342 343 343 343 347 346 348 346 347 348 347 347 346
304 303 302 301 305 311 315 318 323 322 325 326 328 329 327 329 329 325 324 324 321 321 323 325 332 333 332 330 331 331 332 337 343 346 344 347 350 352 348 346 347 348 346 345 349
304 303 302 301 311 311 310 316 319 321 324 326 327 328 327 328 327 327 325 323 323 322 323 327 330 331 330 329 330 329 331 331 333 345 346 346 354 351 347 344 347 348 347 346 347
303 303 303 303 307 312 312 315 318 322 333 330 328 327 327 327 328 326 325 323 323 324 324 328 329 329 330 330 329 328 330 329 329 330 334 339 335 348 344 344 344 344 348 346 346
303 303 304 305 309 308 312 312 317 325 336 330 327 327 327 327 328 327 324 324 325 325 326 327 328 328 329 330 330 331 329 331 327 326 328 330 333 349 348 345 343 344 345 345 346
302 302 304 306 308 310 308 315 325 328 329 329 326 327 326 327 328 328 324 323 323 322 325 327 327 326 327 327 328 329 327 333 332 331 330 328 330 342 345 344 342 344 343 340 344
303 303 306 308 306 306 312 318 328 328 327 328 327 327 326 327 328 327 324 324 323 323 325 327 326 326 327 325 325 326 328 335 339 337 335 333 336 339 345 344 343 343 341 340 339
306 309 311 311 314 312 316 319 324 327 327 328 329 330 327 328 328 325 325 324 323 323 323 325 327 327 328 329 327 328 330 329 331 335 332 336 337 340 342 342 344 345 341 339 338
308 312 315 312 316 315 318 319 322 323 325 326 326 327 331 327 327 324 325 326 325 325 324 325 328 327 329 328 328 328 330 330 328 334 337 334 342 340 337 337 336 346 342 340 339
310 318 319 318 319 319 317 317 320 321 322 323 324 325 329 332 327 325 324 326 326 325 325 325 325 329 328 327 327 330 330 329 329 330 332 338 340 342 340 336 334 331 337 339 341
312 317 318 316 321 323 321 317 317 321 322 323 324 325 330 333 333 326 325 326 326 325 325 326 327 331 328 329 329 328 328 331 335 334 335 337 340 337 338 335 334 336 336 335 336
312 314 315 319 324 324 322 318 318 320 321 323 324 325 329 330 333 334 328 328 327 325 324 327 328 329 335 329 328 328 328 328 333 329 331 340 339 338 334 333 335 334 337 337 337
313 321 321 320 322 323 323 324 323 322 322 323 324 329 331 329 329 331 333 331 328 327 336 332 328 332 330 334 330 329 330 330 327 328 329 335 340 339 337 341 339 337 334 341 340
315 321 319 322 322 320 324 327 323 324 325 325 324 330 330 331 332 333 335 339 330 334 333 329 331 331 330 330 329 332 332 330 328 327 333 336 342 337 335 336 335 334 334 335 340
319 316 313 313 318 324 326 328 330 324 329 334 331 330 330 334 338 340 338 339 341 331 329 329 335 334 333 331 329 329 330 332 332 330 329 330 338 336 336 336 336 334 333 335 336
311 314 312 313 315 319 324 323 328 324 332 332 332 332 331 335 334 332 332 333 332 338 335 332 336 333 332 331 331 332 333 332 331 331 331 331 336 338 339 338 337 334 333 335 336

GFSSW_925_thetae_012.txt.gz
Theta_e
305 305 305 305 306 307 308 308 308 309 308 309 317 312 316 320 321 321 321 322 322 325 324 325 328 332 335 339 343 343 345 349 347 346 344 341 348 348 350 357 354 352 354 354 353
305 305 305 304 305 306 307 307 307 308 308 309 317 313 314 319 320 321 322 322 322 323 326 325 324 327 332 335 339 346 349 348 344 344 346 346 348 348 352 354 352 352 352 355 355
304 304 304 304 305 304 305 306 306 307 308 309 317 313 313 317 326 322 324 324 322 324 325 323 322 323 325 330 336 345 348 344 343 343 346 348 350 349 351 353 352 355 357 355 355
302 303 304 304 304 305 304 305 306 306 307 309 317 313 312 320 316 325 325 325 322 324 324 322 323 326 327 327 335 343 343 343 343 349 345 346 345 340 350 350 348 354 355 355 354
302 302 303 303 304 304 305 305 306 306 306 308 317 311 318 324 321 319 322 324 322 323 323 321 324 328 328 327 337 342 343 344 346 344 343 342 342 344 349 348 346 349 352 353 352
302 302 302 303 303 304 304 305 305 306 306 308 316 309 319 318 317 321 321 324 324 324 322 321 324 327 326 325 331 342 342 343 346 345 344 342 342 343 349 347 347 346 347 348 351
302 302 302 303 303 304 304 305 306 306 308 310 314 317 323 316 319 325 325 324 324 323 319 321 322 325 324 324 330 341 342 346 348 348 349 347 351 349 346 347 348 348 346 345 344
302 302 302 302 303 304 304 305 306 308 310 317 313 321 317 321 327 321 322 323 323 324 323 322 323 324 324 324 329 336 338 341 342 349 349 349 358 349 346 348 348 348 347 347 345
302 302 302 302 302 303 304 306 307 312 323 315 319 322 324 328 329 325 323 324 322 323 323 322 324 322 323 328 326 330 335 343 344 342 348 349 355 348 345 347 348 348 347 347 346
303 302 302 302 302 302 304 307 311 325 323 324 324 323 322 328 330 327 326 325 319 318 319 320 320 322 324 325 328 333 339 343 343 341 345 352 353 350 347 346 348 348 347 347 347
303 303 302 302 302 302 304 307 311 323 330 329 327 326 326 327 330 325 326 322 318 317 317 319 320 321 324 326 327 332 340 341 341 339 350 352 353 353 350 349 349 348 348 349 348
303 303 302 302 302 303 308 308 312 317 319 322 327 329 328 328 331 327 325 324 317 316 318 319 321 323 329 330 329 328 337 342 341 339 339 351 354 351 351 351 351 351 351 350 350
304 303 302 302 303 313 307 312 314 314 317 321 322 324 324 327 331 328 320 322 318 317 319 319 322 327 331 331 332 329 339 341 340 341 341 350 351 350 350 350 345 349 351 351 352
304 303 303 302 307 305 308 311 312 312 319 322 322 324 325 325 326 327 324 322 318 318 319 320 322 327 331 332 330 326 330 339 343 344 347 343 354 349 347 346 343 346 348 349 352
304 303 303 303 305 309 309 310 309 316 328 326 325 327 323 325 325 324 324 321 321 320 319 321 323 324 327 331 329 327 327 327 342 343 339 347 348 350 344 344 343 342 346 345 352
304 303 305 305 305 305 306 308 313 321 330 330 327 324 324 324 326 325 322 320 321 321 320 320 325 325 327 328 327 328 327 325 324 325 335 342 343 337 349 344 341 340 346 345 350
303 302 304 306 306 308 308 309 319 324 324 328 323 324 322 324 325 324 321 320 321 320 320 322 322 325 327 325 325 326 322 324 327 327 326 321 346 344 344 344 341 340 347 345 347
303 302 305 305 305 306 306 311 323 324 322 323 324 324 325 324 324 326 321 320 319 320 319 322 323 324 324 324 324 322 321 325 330 332 329 327 330 329 339 342 340 340 346 345 346
303 305 308 308 308 309 310 313 317 321 324 325 323 324 326 325 326 325 320 321 321 318 321 320 323 324 324 325 323 324 325 324 327 329 329 330 331 336 338 341 340 340 345 344 346
305 308 310 311 310 310 310 312 315 319 320 320 322 323 324 323 323 324 324 321 322 320 317 319 321 322 324 324 323 323 323 327 323 330 331 330 334 336 343 342 341 340 340 338 344
307 309 312 313 311 309 310 310 314 315 316 320 321 322 322 322 322 323 325 323 323 323 317 318 320 322 326 323 324 327 326 324 324 325 328 329 335 332 336 341 342 342 340 337 337
305 306 313 314 315 313 314 313 314 313 314 316 319 320 321 322 322 323 324 323 324 323 321 318 317 321 322 323 324 323 325 324 327 327 328 329 334 333 334 336 339 340 341 337 336
304 307 311 311 315 316 317 319 319 318 316 315 317 319 320 321 322 325 328 326 323 324 323 320 318 322 322 322 324 325 325 325 323 323 328 330 331 333 331 330 331 332 332 335 337
305 312 312 311 311 317 318 320 321 322 319 318 318 319 320 321 324 326 327 329 326 325 333 326 318 320 324 323 325 326 326 325 326 325 326 329 336 336 333 333 332 332 332 334 338
306 314 311 313 313 310 314 321 326 324 323 325 322 324 328 323 328 338 335 335 333 329 330 321 320 324 324 326 328 327 327 325 325 324 328 326 335 334 335 334 333 331 333 336 335
312 311 310 309 307 313 313 322 321 321 325 326 330 331 330 328 335 335 332 332 333 329 326 319 322 323 325 326 327 327 327 328 328 327 329 331 333 332 333 332 331 332 331 331 333
306 308 308 308 311 315 317 317 316 317 328 330 330 331 329 328 326 327 327 327 330 330 330 320 324 324 325 327 328 330 329 329 330 334 330 332 331 333 334 333 331 329 329 330 330

GFSSW_925_thetae_015.txt.gz
Theta_e
304 304 304 304 305 305 306 306 306 306 306 307 310 317 313 314 317 320 320 322 321 321 321 323 325 331 333 338 342 342 339 345 343 343 346 346 354 354 353 355 350 351 352 352 354
303 303 303 303 304 304 305 305 306 306 306 306 308 317 312 314 317 321 319 321 322 322 324 325 322 326 327 335 341 344 343 344 340 341 345 344 353 352 353 355 355 354 351 352 354
302 302 303 303 303 304 304 304 305 305 305 306 307 316 312 315 322 320 324 324 321 321 323 324 321 323 325 330 341 344 347 343 342 343 342 347 349 348 355 355 355 357 354 352 353
302 302 302 303 303 303 303 304 304 305 305 306 307 316 311 318 315 320 324 323 324 321 324 322 320 323 326 327 329 346 341 341 341 346 344 347 346 350 352 350 351 354 353 353 353
303 302 302 303 303 303 303 304 304 305 305 307 308 314 315 319 317 320 319 318 322 323 324 320 323 325 327 324 329 337 340 341 343 343 343 341 344 349 349 348 350 354 355 355 353
304 302 302 302 303 303 303 304 305 305 306 307 309 311 317 315 319 318 323 322 322 326 322 320 320 324 326 324 331 339 341 343 343 341 342 344 347 348 349 353 355 356 355 354 353
303 303 302 302 302 303 303 304 306 306 307 309 312 317 321 318 320 321 322 324 325 323 318 322 321 322 323 325 328 341 344 347 346 344 340 344 349 352 348 354 356 357 356 355 352
303 302 303 302 302 302 303 305 306 307 311 315 313 320 316 321 323 328 322 322 322 322 322 321 321 322 324 323 335 341 341 352 348 347 344 347 355 351 347 349 352 352 354 353 351
302 302 302 302 302 302 303 306 307 317 320 315 319 321 322 323 327 328 325 322 321 321 321 321 321 320 322 323 330 333 351 345 350 345 348 350 353 349 347 347 348 347 350 347 347
303 302 302 302 302 302 304 306 314 326 325 322 324 324 321 323 327 327 326 323 321 317 319 318 317 318 320 321 328 343 343 347 351 350 347 351 351 348 348 347 348 347 347 346 345
303 302 302 302 302 302 305 308 308 315 326 325 322 323 323 324 326 327 324 320 316 316 317 317 318 319 319 324 325 330 338 348 348 344 350 351 351 349 348 347 347 347 347 346 345
303 303 302 302 302 304 310 307 311 313 312 315 319 322 323 325 327 325 326 321 317 315 315 317 318 319 321 325 326 327 338 343 340 344 349 350 353 348 347 348 347 347 347 346 345
304 303 302 302 302 312 303 306 311 308 312 316 317 319 320 324 326 326 323 320 318 315 315 315 318 321 326 329 330 327 329 338 340 343 346 351 353 352 349 347 346 345 345 345 346
304 303 303 303 304 303 306 308 307 309 317 319 320 320 321 324 326 327 323 320 319 319 316 317 318 323 328 329 329 330 327 334 340 343 349 350 359 349 350 351 349 348 347 347 347
305 303 304 305 305 306 307 305 306 312 324 321 323 323 321 322 323 324 323 321 321 318 317 318 320 321 326 329 329 330 326 327 338 340 344 347 348 348 347 348 351 349 347 349 347
305 303 304 305 305 304 305 306 311 319 327 326 325 324 324 323 324 322 322 321 321 318 318 317 320 321 321 324 328 328 326 322 324 333 344 348 345 342 349 350 348 346 343 349 348
304 302 303 305 305 305 306 307 317 321 321 324 322 321 321 323 322 324 320 319 322 321 317 319 319 320 325 325 324 323 321 323 329 339 343 333 345 343 342 346 347 345 341 346 347
304 302 304 304 304 305 305 308 319 320 320 319 320 321 324 324 323 324 319 321 318 318 317 317 319 319 321 323 323 321 321 322 325 327 331 324 343 344 339 339 344 343 340 343 344
303 304 306 307 307 306 305 309 314 318 322 323 320 323 322 322 322 324 319 320 321 316 319 317 319 321 321 322 322 323 321 320 321 324 327 326 328 328 335 333 341 342 337 342 343
305 305 307 311 308 306 306 307 311 316 318 319 320 320 322 321 321 320 322 320 320 317 316 317 320 318 322 322 321 322 320 324 320 327 331 327 330 329 331 338 338 341 337 342 343
304 303 307 311 309 305 305 306 309 311 312 318 320 320 320 320 320 320 320 321 321 320 318 314 317 319 322 321 323 323 321 321 320 322 326 328 328 326 331 335 339 339 338 341 343
302 301 310 309 311 306 309 309 311 313 312 313 315 316 317 319 318 319 320 320 322 321 317 315 316 320 319 320 321 319 321 320 324 323 323 324 326 329 332 335 337 337 338 341 342
305 302 309 309 310 313 314 317 316 315 314 315 314 315 316 318 318 318 320 321 324 323 320 315 314 317 318 319 321 323 322 321 319 320 328 330 330 330 329 332 336 337 336 335 336
305 310 309 307 307 312 314 317 321 320 318 316 315 315 318 317 316 318 323 324 328 322 332 322 312 320 321 321 321 324 324 323 323 324 323 326 328 335 330 330 331 334 334 335 335
305 312 309 312 312 309 310 315 322 321 319 321 322 322 323 326 324 326 327 329 332 331 331 319 318 316 320 321 322 323 325 324 325 324 327 327 329 332 329 329 331 333 332 335 336
309 309 309 310 307 309 312 316 317 317 316 325 322 323 326 325 327 329 329 329 331 328 325 317 318 319 320 320 321 323 323 325 325 323 326 324 331 328 330 329 330 331 333 335 335
304 305 307 312 309 311 314 313 316 315 316 317 329 328 328 326 326 325 325 327 328 329 328 317 321 317 322 322 323 325 324 325 326 327 327 330 327 330 332 331 330 329 331 334 334

GFSSW_925_thetae_018.txt.gz
Theta_e
303 302 303 303 304 304 304 304 304 304 305 306 308 308 316 315 316 317 317 319 321 321 326 331 330 333 336 334 339 336 337 341 345 348 348 351 357 351 351 353 351 351 351 351 352
303 302 302 302 303 304 304 304 304 304 305 306 307 309 315 313 316 319 319 318 320 321 320 324 321 325 327 334 339 340 338 340 338 340 348 348 354 354 353 352 354 353 353 353 353
302 302 302 302 303 303 304 304 304 304 305 305 307 308 314 313 317 315 323 322 319 321 322 325 321 322 325 328 340 343 343 342 340 338 346 346 353 349 351 356 353 355 355 354 353
304 302 302 302 302 302 303 304 305 305 306 306 307 308 313 317 318 318 322 323 320 321 321 321 320 322 325 326 332 343 343 340 341 343 343 350 347 352 353 350 350 351 352 353 353
303 303 302 302 302 302 302 303 304 306 306 306 308 309 315 317 316 321 319 319 320 321 322 319 320 323 327 325 327 335 338 339 344 340 343 344 346 352 352 349 350 350 352 352 352
303 302 302 302 302 302 302 303 305 306 307 307 307 311 316 316 320 318 320 324 323 324 322 319 321 324 326 325 331 336 339 343 342 342 340 345 347 348 349 352 353 352 352 352 352
303 302 302 302 301 302 303 304 305 306 307 309 311 316 320 316 321 319 320 325 324 324 319 321 321 323 323 324 324 340 346 344 342 340 343 345 349 350 351 353 356 355 354 353 352
302 301 302 301 301 302 303 305 305 306 317 320 313 319 314 321 321 322 326 321 322 323 323 322 321 320 322 323 337 343 343 347 346 340 343 345 352 349 353 355 357 356 355 355 353
304 302 302 302 301 302 303 305 307 320 315 314 320 319 320 324 323 326 327 319 320 321 322 320 320 319 321 329 338 335 347 347 350 343 344 348 351 349 353 355 358 357 356 356 354
304 303 302 302 302 302 304 308 315 326 323 323 324 325 321 322 323 325 325 321 319 317 319 318 315 318 318 327 344 343 349 345 351 347 347 349 350 350 349 353 355 355 355 354 353
303 302 303 302 302 302 309 308 309 314 322 320 322 323 320 321 323 325 322 319 314 315 317 315 317 318 321 321 332 337 346 347 346 346 348 349 350 351 348 348 349 348 349 352 349
303 302 302 302 302 305 304 306 310 309 308 310 313 315 318 322 323 322 324 321 317 315 314 316 317 317 320 323 329 338 342 347 342 343 348 350 352 348 349 348 347 346 346 346 345
302 302 303 302 302 310 302 305 307 306 308 311 312 315 316 318 320 322 322 318 318 316 314 315 317 318 322 325 326 330 340 338 346 346 346 350 352 349 348 347 346 345 344 344 344
301 302 305 302 303 302 305 307 306 307 314 318 318 319 320 320 322 323 323 320 316 317 313 315 317 320 323 326 326 327 326 336 342 347 351 346 349 349 348 349 347 346 345 345 344
300 300 304 305 304 305 306 304 306 309 321 319 320 321 319 320 320 323 322 320 319 317 315 317 317 320 324 325 326 328 326 331 339 344 346 350 346 344 348 351 348 346 344 344 343
299 300 304 305 304 303 304 305 309 317 324 322 324 323 323 322 321 321 322 321 319 318 316 318 318 318 319 325 327 324 322 322 325 335 345 347 348 343 349 352 349 347 346 345 344
299 299 303 305 305 304 305 304 313 318 319 321 322 319 320 322 322 321 320 320 321 320 316 317 317 320 321 323 324 320 321 324 333 339 342 336 348 346 338 345 347 346 346 346 345
298 300 303 304 304 304 304 305 315 317 318 318 319 319 320 321 320 323 320 321 319 318 316 314 317 317 319 321 322 321 321 323 327 331 338 333 349 346 341 338 341 343 343 344 344
299 303 305 307 307 305 300 304 309 315 320 321 318 321 320 320 320 322 319 320 319 315 320 316 316 318 318 321 321 320 321 320 320 321 324 326 327 329 329 331 335 338 341 341 342
304 303 303 310 308 304 300 303 306 313 318 318 319 319 320 320 319 319 320 319 319 316 316 316 318 317 319 320 320 320 318 323 317 324 328 325 327 329 330 332 332 334 341 341 340
303 300 305 308 306 302 301 301 305 309 312 315 318 318 319 318 319 319 319 320 320 319 314 313 315 318 318 318 319 320 320 317 318 319 323 324 325 323 326 327 331 332 338 339 339
302 298 308 307 308 303 305 306 309 311 309 310 312 312 314 317 317 317 318 319 320 317 317 314 316 318 317 318 318 319 318 319 323 320 320 321 323 325 325 327 332 335 337 335 337
304 303 307 307 309 310 310 315 314 314 311 313 313 313 312 313 314 315 317 318 318 318 319 315 313 318 317 316 318 319 318 316 315 316 322 325 325 324 327 329 331 335 335 335 337
305 306 306 305 304 309 309 313 318 319 315 314 313 312 314 314 313 315 318 323 322 323 336 327 312 317 320 319 318 321 321 319 318 320 320 324 324 324 331 330 331 335 334 335 338
306 308 308 311 310 310 308 311 317 320 316 317 320 315 315 317 317 316 316 319 323 328 328 315 316 314 320 317 319 320 322 321 321 320 323 324 326 326 327 330 330 334 335 335 335
308 308 307 309 308 308 310 312 316 316 315 316 319 321 320 320 321 321 321 322 325 328 327 316 317 314 320 319 319 321 320 322 323 323 322 323 324 323 326 328 330 333 335 337 335
303 304 306 308 309 309 308 312 314 313 314 315 317 318 326 326 321 321 321 325 327 328 329 319 316 315 321 318 317 319 320 320 322 322 324 325 326 326 329 329 330 330 333 336 336

GFSSW_925_thetae_021.txt.gz
Theta_e
303 303 302 303 303 304 304 304 304 305 306 308 308 309 311 312 317 319 321 320 319 320 331 340 340 349 345 348 342 339 344 351 352 352 349 353 356 353 352 354 351 352 350 348 350
303 302 302 303 303 303 303 303 303 304 306 307 307 308 309 312 317 321 322 320 320 321 329 332 331 338 344 337 344 347 343 345 346 349 350 354 355 355 355 352 353 355 351 351 349
303 302 302 302 302 303 304 303 303 303 305 307 307 308 308 313 321 319 323 321 319 321 321 323 322 328 330 337 343 346 345 342 343 347 349 354 355 352 352 353 352 357 355 351 350
305 302 302 302 302 302 303 303 304 304 304 306 307 307 309 317 322 317 321 320 319 320 322 323 322 325 329 335 337 343 345 342 343 346 350 354 352 352 350 349 349 352 352 352 352
308 303 302 302 302 302 302 303 304 306 305 305 307 307 314 319 320 320 320 321 322 322 322 323 322 325 329 332 330 336 339 342 343 345 348 350 351 349 349 351 351 352 353 353 352
307 303 301 301 301 302 302 303 304 305 306 306 308 310 317 318 318 319 319 323 325 324 322 322 323 326 329 329 333 336 341 346 344 346 349 349 351 350 350 351 353 353 353 353 353
307 304 302 302 301 302 302 303 304 305 306 310 316 315 318 319 318 318 318 322 324 323 323 321 322 327 327 328 332 342 347 347 346 347 348 348 353 353 350 351 353 353 354 353 353
303 302 302 302 302 302 303 304 305 307 314 320 313 320 320 319 321 322 321 321 323 322 322 321 321 322 325 331 343 345 345 349 348 346 347 347 351 351 352 353 354 352 353 353 353
303 302 301 301 302 302 303 305 309 317 314 315 320 320 324 324 324 325 325 320 323 322 321 320 322 322 324 339 345 345 346 348 351 346 349 350 351 349 352 354 356 354 353 354 355
301 301 301 301 302 302 305 309 317 325 321 322 324 326 326 325 322 324 325 320 321 321 322 321 321 322 325 335 339 346 348 348 351 348 349 351 352 351 354 354 356 356 354 355 356
300 300 300 300 301 302 304 308 315 317 318 325 325 326 323 322 321 324 322 319 320 322 322 321 321 322 326 335 337 342 345 347 350 348 349 351 352 352 355 356 356 357 357 355 356
300 299 299 300 302 306 302 308 309 307 310 310 311 315 317 320 321 323 322 324 321 323 319 321 321 322 324 330 337 344 346 347 348 349 348 350 350 351 352 356 355 356 356 356 356
301 299 300 300 302 306 304 307 306 306 309 313 312 314 316 316 319 320 324 323 324 322 320 321 321 321 323 326 329 342 345 347 347 348 350 350 351 352 352 351 352 352 352 352 354
301 298 299 299 303 303 307 307 306 306 317 321 319 320 319 320 320 320 323 325 321 326 319 319 320 320 323 326 329 333 340 345 347 350 352 350 353 352 353 354 352 351 350 349 349
300 298 300 304 304 306 305 304 305 309 322 321 321 320 321 323 322 322 323 324 327 323 321 324 319 321 322 325 328 332 335 341 346 349 349 352 354 349 353 356 354 352 350 349 348
299 298 300 304 304 303 303 304 309 321 323 323 325 324 323 323 323 324 324 324 324 325 320 324 319 321 323 325 328 329 332 335 342 345 351 347 352 345 352 354 352 350 350 349 348
299 298 300 304 306 303 304 307 316 321 320 322 323 321 321 324 324 324 325 326 328 328 326 324 323 322 322 325 329 330 334 338 341 348 342 341 353 348 344 347 348 349 349 348 348
299 299 301 303 304 305 304 309 316 317 320 319 320 321 321 322 324 323 326 325 327 328 328 327 325 323 322 324 327 329 330 335 341 340 338 338 349 346 345 344 344 347 348 348 348
299 302 303 305 307 305 305 306 311 315 320 319 320 321 321 322 322 323 325 324 326 328 327 327 326 320 322 323 329 329 330 331 332 328 336 338 341 337 340 341 342 344 345 348 348
303 302 302 307 308 304 305 307 308 315 319 320 322 321 323 322 322 323 324 324 326 325 327 324 325 322 321 323 324 327 328 328 330 338 335 333 335 333 339 340 342 343 343 345 347
303 304 305 307 304 306 306 305 307 310 315 317 319 320 321 321 321 321 321 322 322 323 326 326 323 322 322 322 324 324 326 327 330 332 337 336 333 336 339 340 340 340 341 342 345
303 302 306 306 311 306 308 308 307 310 310 313 315 318 320 319 320 320 320 322 321 320 323 324 326 327 323 323 322 323 325 328 332 334 330 332 333 332 335 337 338 338 338 340 343
304 305 304 306 313 313 313 314 316 311 312 312 312 314 316 317 318 318 318 319 320 321 324 321 324 327 327 325 322 323 324 325 326 328 338 331 331 335 333 335 336 336 341 343 344
304 308 310 308 308 311 314 314 316 318 319 312 314 315 315 315 317 318 319 320 321 320 331 324 326 327 328 328 326 325 323 324 324 329 328 330 330 331 333 338 340 341 341 343 345
305 309 310 315 314 314 312 312 313 315 318 318 320 316 317 318 319 319 321 320 321 323 329 332 335 331 331 328 326 325 323 323 325 327 329 328 331 333 335 337 342 345 344 344 344
306 308 306 309 310 312 311 312 314 317 317 319 321 322 323 323 325 322 323 324 324 327 327 326 331 329 332 330 327 326 325 324 324 324 327 327 332 333 336 336 336 340 341 345 346
302 303 304 305 308 310 311 311 313 312 314 316 316 316 319 323 325 324 324 324 325 330 336 335 328 328 328 329 325 326 326 326 326 326 327 330 331 336 333 335 339 343 342 345 347

GFSSW_925_thetae_024.txt.gz
Theta_e
305 303 302 303 303 303 303 304 304 305 306 307 308 309 310 311 314 324 326 324 322 326 346 341 345 346 350 350 348 344 346 346 345 343 347 349 351 351 350 353 351 350 347 348 348
307 304 302 302 302 302 303 303 303 304 305 306 307 308 309 310 321 324 323 322 320 328 341 341 342 346 350 349 346 347 346 343 343 343 345 348 349 353 353 352 352 353 347 348 347
308 303 302 302 302 302 302 303 303 303 305 306 306 307 308 311 325 323 324 320 319 326 332 334 334 343 342 339 346 348 348 343 343 345 345 349 349 349 349 351 351 355 352 349 348
304 302 302 302 302 302 302 302 303 304 305 305 306 307 308 323 322 321 322 320 319 329 326 328 326 332 330 335 343 347 343 340 342 346 345 349 348 348 347 346 347 350 351 349 349
305 302 301 301 302 302 302 302 303 304 305 305 305 307 318 324 323 321 320 322 326 324 324 325 326 326 327 334 340 344 340 341 340 345 346 348 350 346 348 350 346 350 350 349 349
308 304 302 301 302 302 302 302 303 304 305 306 307 310 322 321 321 320 327 330 330 325 324 324 325 326 328 333 339 340 339 342 341 345 348 350 350 346 347 351 349 351 351 350 349
307 302 301 301 301 302 302 303 304 305 307 307 315 317 321 321 320 321 321 324 327 325 325 323 324 325 328 332 334 337 341 344 344 347 350 348 352 353 350 352 352 352 352 350 349
303 301 300 300 301 301 302 303 305 310 312 318 319 322 323 321 321 322 322 324 324 326 324 323 324 326 329 333 337 338 339 345 348 349 350 349 353 351 351 353 353 352 351 350 350
303 300 299 300 301 302 302 304 310 316 315 315 325 326 325 324 326 327 326 325 325 324 324 323 325 326 328 334 338 340 342 342 351 348 350 350 350 351 352 353 355 352 350 350 351
304 301 299 299 300 301 304 305 318 323 323 325 326 328 327 328 327 326 327 324 326 324 324 324 325 326 328 333 340 342 342 340 346 350 351 351 351 351 353 353 354 354 351 350 352
305 302 299 299 300 302 304 311 322 326 327 327 328 328 326 325 324 327 325 324 325 324 323 323 325 326 328 332 337 339 341 341 343 349 351 350 351 351 353 353 353 354 353 352 352
301 300 299 299 301 306 307 313 311 309 314 317 317 319 322 323 323 327 325 325 326 323 323 323 324 327 329 330 334 336 340 341 345 349 350 349 351 350 350 355 353 352 353 353 352
300 300 299 300 301 309 309 313 309 308 315 318 318 318 319 319 322 325 327 326 326 325 323 324 323 326 327 330 334 338 340 341 345 350 349 348 350 350 347 350 354 353 351 352 353
301 300 300 298 306 307 312 311 309 308 318 323 321 322 321 321 321 323 326 327 326 326 324 324 324 324 325 327 332 338 338 340 344 350 352 350 350 346 348 351 353 355 351 351 353
302 300 301 302 305 310 309 308 307 311 324 323 323 322 324 325 325 323 323 327 326 326 326 324 323 323 324 325 330 334 336 339 342 347 347 350 353 347 347 351 352 354 352 349 349
303 301 300 306 307 307 307 307 311 322 323 323 325 325 326 326 326 325 323 326 326 326 326 325 325 323 324 325 326 331 334 337 340 343 348 346 349 348 348 352 349 350 352 349 346
303 301 300 305 308 307 307 309 317 320 322 322 325 325 324 326 327 326 324 325 327 329 329 326 325 323 323 324 325 329 334 343 345 345 347 345 346 346 342 341 345 344 349 350 348
303 301 306 306 307 308 308 310 316 319 320 323 323 324 324 324 325 326 326 325 325 327 328 328 326 325 323 324 326 328 334 340 344 343 344 343 344 343 343 342 341 340 343 348 350
302 304 305 308 308 308 311 310 315 317 319 319 323 325 325 325 324 327 327 326 325 326 328 328 328 325 325 324 326 328 334 335 338 339 341 339 341 340 339 341 340 340 341 345 349
303 305 306 307 310 311 310 310 313 314 316 320 321 323 325 326 325 325 327 326 325 325 328 328 329 326 325 325 325 328 331 335 337 343 342 339 339 340 340 339 338 337 339 342 345
305 307 310 310 310 313 314 311 311 313 313 317 320 322 323 323 325 324 326 326 326 325 327 328 328 328 326 326 325 326 330 333 335 336 340 340 338 336 336 337 336 335 336 337 340
304 307 309 309 313 312 312 313 309 310 312 313 316 319 320 321 323 324 324 324 324 327 327 328 329 329 326 325 325 326 329 333 337 341 337 338 338 335 336 336 335 335 335 335 337
307 306 306 307 310 311 312 312 313 313 312 312 312 315 317 319 322 323 323 323 322 324 329 329 331 332 329 324 324 325 327 329 333 334 342 339 338 336 334 335 336 337 338 338 347
306 306 309 313 312 313 314 316 316 314 315 314 314 314 315 317 320 322 321 321 320 321 334 327 331 332 332 328 325 324 324 327 329 336 335 336 338 336 335 335 335 336 336 338 342
306 307 311 310 314 316 317 317 316 316 316 318 319 315 315 316 318 318 320 321 323 327 324 324 330 331 330 329 328 328 325 324 325 327 331 331 334 335 335 334 334 334 334 336 346
306 307 308 308 308 309 308 311 315 315 316 319 320 319 316 317 318 319 319 320 322 323 325 329 334 335 334 330 329 329 328 327 325 325 326 328 330 332 333 334 334 334 334 337 344
304 304 305 306 305 306 308 309 311 314 315 316 319 319 323 322 323 324 325 325 322 324 327 328 330 336 336 334 333 333 331 330 329 327 325 327 328 329 330 332 335 339 337 338 339

GFSSW_925_thetae_027.txt.gz
Theta_e
303 303 302 302 302 302 302 303 304 304 305 306 307 308 309 309 312 325 329 326 326 326 342 343 344 346 347 354 350 347 350 349 341 344 343 343 344 346 347 349 347 348 351 351 349
307 303 302 302 302 302 302 302 303 304 305 306 307 307 308 309 319 325 324 323 323 323 342 342 343 343 346 351 350 349 348 346 343 343 345 343 343 347 347 349 349 348 350 350 349
309 303 302 302 302 302 302 302 303 303 304 305 306 307 307 309 327 326 320 321 322 322 333 336 338 341 344 345 347 346 352 346 342 343 344 344 342 345 346 348 349 350 351 350 349
308 302 301 301 301 302 302 302 303 304 304 305 306 307 307 319 327 330 322 320 319 333 335 334 335 341 342 342 343 347 346 340 343 341 344 344 341 341 343 344 346 348 349 349 350
306 301 301 301 301 301 301 302 303 304 304 305 306 306 318 325 324 326 320 322 327 331 336 332 333 334 339 335 339 346 343 341 340 342 343 345 343 340 343 343 344 347 349 349 349
301 301 300 300 300 301 302 302 303 304 305 306 307 308 322 323 322 326 325 332 328 327 327 327 329 331 331 333 338 343 342 341 340 342 343 344 345 343 345 344 346 348 349 348 347
306 302 301 300 300 300 301 303 303 304 307 309 309 317 322 324 322 322 326 326 326 327 327 325 326 328 330 331 335 340 342 342 341 342 343 345 347 344 347 346 347 349 348 347 347
302 301 300 300 300 301 301 303 304 306 315 316 317 324 324 324 323 322 322 323 324 327 326 326 325 328 329 331 336 339 341 344 342 341 346 345 350 348 350 347 347 348 348 347 347
301 300 300 300 300 301 302 304 306 318 316 317 327 328 328 324 324 322 322 324 325 325 327 326 325 327 329 331 337 339 343 342 344 342 348 347 359 348 350 349 347 347 348 348 348
302 301 299 300 300 301 304 308 310 321 324 327 328 330 327 327 327 327 327 326 326 326 327 326 326 326 330 333 339 343 342 343 348 342 348 347 352 351 351 350 348 347 347 348 348
303 302 300 299 300 301 308 315 323 330 327 330 331 327 327 327 327 326 327 326 327 326 326 325 325 327 331 333 337 341 343 343 344 341 347 348 348 349 352 352 349 348 348 347 347
304 303 301 299 301 306 311 317 314 312 315 318 321 323 327 326 327 328 327 325 327 326 325 326 325 327 331 332 335 338 342 342 340 343 345 347 349 347 352 352 351 349 348 347 346
304 304 303 300 302 313 310 316 313 312 315 319 321 321 322 323 325 326 328 326 326 326 325 325 325 326 330 332 335 336 341 342 340 348 347 347 349 348 347 350 352 350 348 348 347
304 304 303 299 308 309 314 314 312 311 318 322 322 322 322 322 322 325 327 327 326 327 325 325 326 326 329 331 334 336 337 338 339 349 351 345 351 349 347 348 350 352 351 348 348
303 304 303 302 306 312 311 310 310 314 325 327 325 324 324 323 327 324 325 328 327 327 327 326 325 326 327 330 333 335 336 338 340 344 349 345 347 346 345 347 346 350 352 350 348
302 303 303 306 308 310 310 311 312 321 325 326 326 325 326 325 327 327 325 328 328 328 327 327 327 326 327 329 331 333 336 339 339 341 348 347 350 347 348 348 346 348 350 351 348
303 303 303 305 309 311 309 312 316 321 325 326 327 326 328 328 328 328 325 327 329 329 329 327 327 326 326 327 329 331 335 340 341 342 344 347 349 353 345 345 345 344 346 349 350
303 303 306 308 309 310 309 313 317 322 323 326 326 328 327 327 328 329 327 326 327 328 329 329 329 327 326 326 328 330 333 338 343 341 341 341 348 345 344 343 343 341 342 345 350
303 306 308 309 310 309 314 312 317 320 323 324 325 326 328 326 327 329 329 327 327 328 330 330 330 328 327 326 326 329 334 333 337 338 341 341 341 341 343 342 342 342 341 340 347
305 308 310 310 311 311 314 315 317 318 321 321 324 326 328 327 326 327 329 329 327 327 328 329 331 330 328 327 325 327 330 334 337 345 346 340 341 344 344 341 341 341 339 338 340
307 309 312 311 312 315 317 315 315 316 316 318 320 324 326 327 327 328 327 328 328 328 327 328 330 330 329 328 327 325 329 331 333 337 341 342 342 340 342 341 340 339 338 338 338
308 311 311 311 314 315 316 316 315 317 317 316 317 319 323 325 326 328 328 327 328 328 328 328 329 332 331 329 328 327 327 329 340 340 337 340 339 338 338 339 338 338 338 337 337
310 311 309 309 312 311 313 315 315 316 317 317 315 316 319 322 326 326 327 327 326 327 328 328 330 332 333 330 329 328 327 327 329 334 344 343 339 338 337 337 337 337 337 338 337
309 311 311 312 312 311 312 314 316 317 315 316 316 316 316 318 322 324 324 325 325 325 341 330 329 331 333 333 330 329 327 327 328 334 336 338 339 338 338 338 337 337 336 337 337
309 310 310 314 312 313 315 317 317 319 318 318 317 317 316 317 318 320 321 325 325 331 326 327 332 331 330 331 331 328 327 326 327 329 333 335 336 338 338 338 338 337 337 337 336
308 310 310 310 310 311 310 311 310 311 315 317 319 319 319 318 319 319 320 323 325 325 325 327 332 333 334 331 331 331 327 326 326 327 329 330 333 336 337 337 338 337 336 336 336
306 306 308 308 309 309 309 311 310 311 314 315 316 320 324 322 322 323 324 322 323 326 327 328 329 331 333 332 332 332 331 330 328 327 327 329 330 332 332 334 337 344 338 337 338

GFSSW_925_thetae_030.txt.gz
Theta_e
308 304 302 302 302 302 302 303 303 304 305 306 306 307 308 308 310 320 329 325 326 328 331 338 343 345 346 349 351 352 354 351 346 343 341 343 343 348 346 346 351 349 350 350 347
303 302 301 301 301 302 302 302 303 304 304 305 306 306 307 307 316 321 322 323 326 327 332 336 342 343 345 346 351 351 355 351 347 344 342 342 343 344 346 346 350 351 349 347 348
302 301 301 301 301 301 301 302 302 303 304 305 306 307 307 307 323 326 325 323 324 323 326 332 339 341 343 343 347 345 352 347 347 344 342 341 343 342 345 347 346 352 350 348 347
305 302 301 301 301 301 301 301 302 303 304 304 306 306 307 317 325 325 320 320 321 327 327 331 336 340 342 343 345 350 346 344 344 344 342 341 340 345 343 345 346 349 349 349 347
303 301 301 301 301 301 301 301 302 303 304 304 305 307 316 324 325 324 322 321 324 328 329 333 335 337 339 341 341 352 349 349 341 340 342 342 340 339 343 344 346 349 350 350 348
302 301 300 300 300 301 301 301 302 303 305 305 308 310 321 319 322 325 324 329 326 328 330 334 334 334 336 339 338 337 346 344 340 340 343 344 341 338 341 343 346 348 349 349 348
303 301 300 300 300 300 301 302 303 304 305 307 313 317 321 321 324 326 325 328 327 328 328 328 332 331 334 333 334 335 342 342 341 340 343 342 344 342 341 341 346 348 348 347 347
304 303 300 300 300 300 301 302 304 305 307 317 317 322 322 321 323 323 323 325 327 328 327 326 326 327 329 331 332 333 338 345 342 340 341 341 354 342 344 341 345 347 347 347 347
305 304 302 300 300 301 301 304 307 308 316 317 325 328 328 325 326 325 323 324 324 324 327 327 327 326 328 329 331 334 339 343 343 341 343 344 356 350 347 341 344 346 346 346 347
304 304 304 301 300 301 303 310 313 312 323 326 327 332 331 328 327 325 323 323 324 326 327 327 327 326 326 329 332 334 339 341 346 344 342 352 352 347 344 345 343 344 346 347 347
304 303 304 302 300 301 304 315 323 325 325 332 330 326 326 328 328 328 325 324 326 327 325 327 327 327 327 329 332 334 339 341 345 345 343 351 353 353 345 347 344 343 345 345 347
304 303 302 302 301 303 307 318 318 315 315 317 319 326 329 329 329 328 327 328 328 327 326 327 326 326 328 330 332 334 338 343 345 347 348 345 356 354 349 348 346 345 345 345 346
303 303 302 302 303 310 313 313 316 315 315 317 319 319 323 329 329 329 328 328 327 326 327 326 326 326 327 329 333 334 337 341 344 346 344 344 345 348 350 349 347 347 347 345 346
302 302 303 302 311 309 313 315 313 313 316 321 323 321 321 323 324 328 328 328 326 327 328 327 326 326 325 328 332 334 335 338 342 345 348 344 348 351 348 353 350 347 346 347 346
302 303 303 301 306 311 314 313 312 314 323 328 325 325 324 322 325 324 326 329 327 326 327 327 326 326 325 326 331 334 335 337 338 343 348 350 350 350 351 351 352 348 348 347 348
302 303 303 306 308 310 312 312 314 317 323 328 327 325 324 323 323 327 324 326 329 327 327 328 328 326 326 326 329 332 334 336 337 339 347 350 346 351 352 351 348 348 345 351 347
303 303 303 306 308 310 311 313 315 320 326 328 328 327 326 324 323 328 325 325 328 331 328 328 328 328 327 326 328 330 333 339 341 343 342 344 352 352 348 348 346 345 347 351 351
303 304 308 308 310 311 311 314 318 323 322 328 328 328 327 328 325 325 328 326 326 329 329 329 329 327 328 326 327 328 331 338 344 344 343 341 345 351 349 346 344 345 344 348 350
303 308 309 309 311 311 314 315 318 321 324 325 326 327 329 328 329 328 329 328 326 328 331 331 330 329 328 328 327 328 330 331 335 337 341 341 341 343 346 345 347 347 344 343 346
305 308 312 312 312 313 314 316 318 318 320 322 324 326 328 329 329 329 330 330 327 327 329 330 331 330 329 328 327 327 329 330 332 341 345 342 344 346 352 348 346 345 344 345 343
307 312 311 312 313 315 317 316 317 317 318 318 319 320 322 327 329 329 328 330 330 328 327 328 331 330 331 330 328 326 326 328 330 335 341 344 344 343 346 350 348 346 344 344 340
308 311 312 313 314 315 316 316 315 318 319 319 320 319 319 320 325 328 329 329 330 330 329 328 329 333 330 331 330 328 329 328 331 341 336 338 341 338 347 347 347 344 344 343 342
309 310 309 310 313 312 313 313 314 316 317 319 320 320 320 319 323 323 327 329 329 329 330 331 330 333 332 330 331 330 328 326 326 328 339 339 339 339 341 342 343 343 342 344 346
308 310 310 312 313 312 314 317 316 315 315 318 320 320 320 320 320 323 324 325 327 329 343 332 330 333 332 333 331 333 330 329 327 329 331 336 338 339 342 344 344 343 343 343 348
307 309 310 312 312 314 315 315 316 317 317 318 319 320 320 323 318 319 320 322 325 335 328 329 332 331 330 328 331 331 331 329 330 331 332 332 339 338 339 344 343 344 344 345 346
306 308 309 310 309 309 309 311 312 313 313 314 318 318 320 323 325 323 323 325 325 327 327 329 334 330 331 329 329 331 331 331 331 330 330 331 332 335 338 340 346 340 341 345 346
305 306 309 309 308 309 308 309 312 312 313 313 315 316 317 316 317 317 318 320 323 327 332 332 330 336 335 331 331 332 333 332 330 331 330 331 333 335 336 338 343 346 340 347 345

GFSSW_925_thetae_033.txt.gz
Theta_e
304 302 301 301 301 301 301 301 302 303 304 305 305 306 306 306 308 314 324 319 321 321 325 342 346 346 349 358 345 343 356 359 350 342 341 345 348 349 350 353 351 350 353 351 351
302 301 301 301 301 301 301 301 301 302 303 304 305 305 306 306 312 318 317 317 321 325 327 337 337 340 341 344 345 350 354 351 345 345 340 348 348 349 353 353 352 352 351 351 350
302 301 300 300 300 301 301 301 301 301 302 304 305 305 306 307 322 319 326 323 319 321 329 329 329 337 340 340 347 348 353 346 343 344 342 340 343 343 350 354 351 353 351 351 350
304 302 300 300 300 300 300 301 301 301 302 303 304 305 306 314 320 324 322 323 321 322 328 325 325 330 337 340 345 348 347 345 343 344 344 340 339 344 344 349 350 349 349 350 347
305 303 302 300 300 300 301 301 301 302 303 303 304 306 312 323 321 320 321 320 321 324 329 327 325 330 336 338 345 345 342 341 341 341 341 338 342 343 345 350 348 347 346 348 346
305 304 303 302 301 300 301 301 301 302 303 304 307 313 320 316 316 318 322 321 326 327 327 326 327 331 334 335 343 346 344 343 342 343 341 339 337 343 345 349 349 348 347 346 344
304 303 303 302 301 301 301 301 302 303 304 306 312 320 321 316 319 324 324 323 324 328 325 326 328 331 332 332 332 334 345 345 342 340 341 339 337 342 345 348 350 350 349 347 345
304 303 303 301 301 301 301 302 303 305 307 308 318 322 321 316 319 320 321 326 329 326 327 327 328 326 327 325 327 329 328 330 341 337 340 340 349 341 339 348 350 350 349 349 346
304 304 303 302 302 302 302 303 306 312 311 316 322 324 328 324 322 321 322 322 325 328 326 327 325 324 324 323 323 325 328 329 342 340 341 346 349 344 344 345 348 348 347 347 346
304 303 302 303 302 302 303 306 316 313 320 324 325 328 330 326 327 324 324 323 324 324 322 324 324 323 321 321 324 326 328 329 342 341 345 346 347 343 344 342 345 347 346 346 345
304 302 302 302 303 304 304 309 316 320 323 331 327 327 323 326 328 326 325 323 321 321 321 322 323 324 323 322 324 327 329 330 339 343 348 350 347 342 339 339 340 345 345 345 344
304 302 302 302 304 306 311 314 314 315 314 315 316 319 326 326 329 327 325 321 320 320 321 323 324 324 325 325 325 326 328 330 345 343 342 349 348 344 343 342 341 343 344 344 344
303 302 302 302 305 312 307 310 313 313 311 313 314 315 316 318 323 328 324 322 322 322 325 324 324 325 325 325 326 326 327 330 347 345 344 344 350 347 341 343 343 342 343 343 343
303 302 302 302 310 306 309 314 313 313 311 316 317 317 317 317 322 326 326 325 326 326 326 324 324 326 325 324 325 326 328 332 344 345 350 345 359 352 347 347 346 344 341 342 342
303 303 302 302 305 309 312 311 311 313 319 324 321 321 317 317 322 325 328 326 326 325 324 324 325 325 324 324 324 326 329 332 332 343 346 346 350 353 351 353 348 345 342 341 341
303 303 302 304 305 307 308 310 313 314 319 323 324 320 318 317 319 323 326 324 327 325 324 325 326 325 324 324 324 325 327 329 330 334 347 344 350 346 344 352 349 345 344 342 341
304 303 303 305 306 309 309 311 312 315 322 326 324 324 320 319 319 320 322 323 324 327 326 324 325 325 326 323 323 323 322 328 331 334 336 343 346 346 341 344 350 347 344 343 343
304 303 305 308 309 310 310 312 316 321 319 322 323 326 324 323 320 320 320 322 323 324 326 327 325 325 325 323 322 322 321 326 332 335 335 335 349 345 344 343 344 345 344 342 343
303 304 306 307 309 310 312 315 316 319 320 319 319 322 325 326 325 322 321 322 322 323 324 327 327 327 326 326 323 323 322 323 325 329 333 335 335 341 343 344 343 341 341 341 342
304 305 307 309 312 311 313 315 316 317 316 316 317 320 320 319 321 325 322 323 324 323 322 324 328 327 327 326 325 322 324 323 324 326 333 333 335 341 345 345 344 343 343 343 341
305 309 308 308 311 313 314 314 315 315 316 317 318 319 319 319 319 319 322 325 325 325 323 323 324 327 328 326 324 322 322 321 323 326 328 333 334 334 342 344 346 344 343 344 343
305 308 307 308 310 313 314 314 313 315 315 316 317 318 319 319 319 320 319 319 326 328 325 324 324 326 326 328 326 325 322 320 323 327 328 327 329 332 339 344 344 343 342 342 342
305 306 306 307 309 311 312 313 313 313 315 315 316 316 318 319 320 320 321 321 320 321 328 325 325 325 326 325 326 325 325 322 321 320 324 328 330 329 331 342 343 343 341 342 340
306 307 307 308 309 311 313 315 316 314 313 314 314 316 319 318 320 321 321 321 320 320 337 335 326 325 326 326 328 330 326 325 322 322 321 323 323 328 337 340 340 339 338 339 341
307 306 306 309 309 308 312 313 313 313 312 313 314 315 317 322 321 322 323 321 321 324 324 321 326 327 325 327 328 327 329 327 325 324 323 322 323 325 327 339 340 337 335 336 340
306 306 306 306 307 307 308 309 310 311 312 312 313 316 315 318 318 317 316 317 319 320 319 319 329 330 330 328 326 327 328 327 327 326 325 325 326 328 328 340 340 340 337 340 342
305 305 307 306 306 306 306 308 309 310 311 311 311 314 314 313 313 313 312 313 315 318 320 320 323 331 329 329 330 330 326 327 329 328 327 326 325 327 328 332 335 339 336 335 335

GFSSW_925_thetae_036.txt.gz
Theta_e
305 302 301 301 301 301 301 301 301 302 302 302 302 304 305 306 307 309 316 315 315 318 328 339 349 348 352 345 346 345 356 358 353 351 351 351 354 351 350 353 349 351 351 349 349
309 304 302 301 301 301 301 301 301 301 301 302 302 304 305 306 312 317 317 317 316 318 335 348 349 347 352 347 345 349 351 352 347 346 345 349 352 352 354 354 354 353 351 350 350
310 306 303 302 302 301 301 301 301 301 301 302 303 303 304 309 320 315 322 323 322 317 327 337 342 342 342 344 347 349 350 346 346 342 344 351 353 351 355 355 354 355 352 350 350
307 304 303 303 302 302 301 301 301 301 301 302 302 304 306 315 312 320 321 323 319 318 321 329 327 325 332 345 347 352 348 344 345 343 342 348 351 353 352 351 350 351 350 350 350
306 305 304 304 303 302 302 302 302 302 302 302 304 306 314 321 317 317 320 321 321 320 328 328 323 322 328 333 346 347 346 345 344 343 341 340 348 353 351 350 349 351 351 350 349
305 305 304 304 304 303 303 303 303 303 303 303 305 314 316 309 314 316 316 319 322 327 330 326 324 323 326 333 345 344 343 343 344 342 341 341 342 347 350 349 351 352 351 350 348
304 303 303 304 305 304 304 305 305 305 304 306 309 317 320 312 316 320 320 319 321 322 323 325 326 326 328 330 338 342 339 344 343 341 342 339 348 353 351 349 352 352 351 348 346
304 304 303 302 304 304 305 307 307 306 310 312 312 321 319 313 315 315 316 318 324 325 326 326 325 324 326 325 324 324 335 344 342 342 339 336 350 353 349 348 349 351 350 347 346
304 304 303 301 301 302 304 307 308 313 312 313 320 321 321 321 322 319 317 319 322 327 327 326 324 323 324 323 320 321 323 326 327 335 342 342 344 351 348 349 349 347 347 347 346
304 303 303 301 301 302 304 309 315 318 323 323 324 324 320 324 327 324 321 320 320 324 325 323 322 321 318 318 321 322 324 325 331 343 343 342 344 348 350 350 350 349 348 347 346
304 304 303 302 301 302 308 313 309 312 322 324 325 325 321 324 327 324 322 320 319 320 321 318 321 324 321 319 320 322 323 324 328 337 343 343 343 346 348 349 350 349 349 348 347
304 304 303 302 301 306 308 310 313 311 308 312 315 318 321 323 325 326 323 320 319 318 317 319 319 321 322 321 321 321 322 323 341 344 345 345 344 341 341 348 348 348 347 347 346
304 303 303 303 303 308 306 308 310 309 308 310 312 314 314 317 319 320 321 319 320 318 318 318 320 322 323 323 324 321 322 323 328 343 343 346 347 344 341 338 339 346 345 344 345
304 304 304 303 304 303 309 309 309 309 308 312 311 312 313 314 314 318 323 321 318 319 318 318 320 323 323 323 323 322 323 324 328 337 343 341 347 347 343 341 340 341 344 344 343
304 304 304 303 304 306 305 308 309 308 320 321 317 315 312 314 318 319 321 321 320 322 320 322 323 323 323 323 323 323 323 324 327 340 342 343 345 343 347 347 340 341 341 343 342
304 304 304 304 304 306 307 308 309 310 317 318 320 315 314 314 318 322 323 323 323 323 322 322 323 323 323 323 323 323 321 323 324 332 341 341 346 348 348 347 344 342 342 341 341
304 304 304 304 305 306 308 308 307 312 316 322 317 316 315 313 316 318 325 325 325 324 325 324 323 322 323 321 321 321 318 320 323 324 329 337 347 345 343 346 345 344 344 341 341
303 304 304 305 304 306 309 307 311 315 316 316 316 318 318 316 315 316 318 327 325 322 323 324 325 322 322 323 322 318 319 319 321 326 327 329 346 344 340 341 345 345 345 343 340
303 304 305 305 306 306 306 311 310 313 314 315 315 318 317 319 317 316 315 319 325 320 323 323 324 324 323 323 323 320 318 317 318 324 327 328 335 335 338 339 343 346 346 343 340
304 304 305 305 307 308 307 312 311 313 314 315 316 316 317 317 318 317 317 317 318 320 319 321 323 323 325 322 322 322 317 319 314 319 322 324 330 333 337 340 341 346 346 343 341
305 302 304 305 304 306 311 310 312 312 313 314 314 314 315 316 316 317 318 318 319 319 320 321 319 322 324 324 324 321 319 317 317 318 322 323 325 326 329 338 341 345 346 343 341
302 303 304 304 302 304 311 310 311 311 312 313 313 314 314 315 315 315 317 318 319 318 318 317 319 321 322 322 323 324 322 318 321 319 320 323 325 328 327 335 340 340 342 342 340
301 300 304 305 305 307 310 311 312 313 313 313 313 314 314 316 317 316 317 318 317 320 318 320 319 320 319 319 321 322 322 321 313 315 321 324 324 323 323 339 339 339 339 340 341
300 303 299 301 307 306 309 312 312 310 311 312 312 313 315 317 317 319 319 318 315 316 324 319 320 320 324 322 322 322 324 321 320 320 320 321 321 322 324 334 339 340 340 339 338
301 303 301 305 305 306 307 308 310 311 310 311 311 312 316 317 317 319 317 315 314 318 315 315 318 318 318 322 323 325 325 325 321 321 321 319 318 319 319 325 334 338 339 340 339
304 304 301 302 302 305 304 306 310 310 310 310 311 311 314 315 315 315 313 313 312 314 313 314 318 319 326 324 323 324 325 325 324 323 321 319 320 318 319 320 326 335 339 338 333
303 304 305 305 303 303 303 305 306 307 310 309 310 311 311 310 310 310 310 310 310 311 312 316 316 319 324 324 323 324 325 325 325 324 322 321 320 320 322 328 329 333 334 332 336

GFSSW_925_thetae_039.txt.gz
Theta_e
311 309 306 304 303 303 302 301 301 301 301 301 302 303 304 305 306 310 311 312 314 333 341 347 347 349 350 347 349 346 356 357 356 354 356 354 355 351 349 351 348 349 348 348 349
311 311 310 307 306 305 303 302 302 302 301 301 302 303 303 306 312 316 316 313 314 330 347 349 350 349 353 345 345 350 352 349 346 345 353 354 353 352 352 351 354 350 347 348 348
310 309 307 308 308 308 305 303 303 302 302 302 302 303 304 310 315 311 319 322 313 328 334 348 348 352 348 345 346 349 351 345 345 344 347 353 352 351 351 353 353 351 350 349 348
308 307 306 306 308 308 307 304 303 303 303 304 303 303 308 314 312 318 320 324 316 329 336 342 349 348 344 352 346 350 348 346 343 342 348 353 350 353 350 350 349 348 348 349 349
305 304 304 303 303 304 304 303 303 304 305 305 307 305 314 318 312 317 316 322 318 330 331 328 342 337 328 335 347 350 348 345 344 341 342 350 352 352 352 349 348 348 350 349 349
305 304 303 303 302 302 302 303 304 305 305 306 311 310 314 306 312 315 314 322 322 328 324 325 325 323 325 326 341 344 346 345 344 343 344 352 352 351 350 350 351 350 351 350 349
305 304 304 303 303 302 302 303 305 307 307 310 313 314 319 308 313 316 316 322 324 325 325 325 324 324 321 328 337 339 345 345 343 342 342 341 349 354 349 351 352 351 350 350 349
304 304 304 303 303 302 302 305 309 309 312 314 314 318 314 310 313 312 315 319 320 326 323 323 325 322 324 324 325 327 331 333 329 340 340 340 344 351 350 352 354 352 350 350 348
304 304 304 304 304 303 302 307 311 315 313 315 317 319 314 317 323 319 315 315 316 324 325 325 322 322 323 324 321 318 325 326 326 338 338 339 345 351 350 351 354 353 350 350 348
305 304 304 304 304 303 308 311 315 321 322 321 323 320 318 319 326 323 320 316 319 321 325 323 320 320 317 318 325 322 323 323 325 339 338 338 341 353 350 351 354 353 351 351 348
305 305 304 303 304 306 305 311 307 309 313 320 322 320 318 320 324 323 318 317 317 320 323 320 322 322 320 319 320 321 322 323 324 324 341 339 345 354 351 349 352 352 351 350 347
304 304 304 304 304 308 304 307 308 308 307 309 309 311 315 319 319 320 319 317 317 318 319 318 323 322 321 320 320 320 320 320 325 337 338 340 344 352 351 349 348 349 349 348 345
304 304 304 304 304 305 305 308 306 307 305 308 310 311 311 313 317 319 317 317 318 317 316 320 319 320 321 321 321 320 320 321 322 337 342 343 344 349 351 348 348 347 346 346 345
304 304 304 303 304 303 305 306 307 307 307 312 310 310 312 315 317 319 321 319 317 319 316 316 318 320 320 322 322 320 320 322 323 329 336 341 348 344 346 347 347 348 348 347 345
302 302 303 303 303 304 305 306 309 305 320 321 314 312 310 313 316 317 321 319 319 318 316 318 317 318 320 321 321 323 322 322 323 324 329 335 341 341 341 344 342 342 347 346 345
301 301 302 304 304 304 304 304 307 310 317 318 316 313 313 313 314 317 319 320 318 319 318 319 319 318 319 321 321 322 322 320 321 322 331 328 341 342 347 343 341 338 341 345 344
301 301 302 304 304 304 304 305 307 311 314 318 315 315 316 313 315 319 318 320 321 319 320 320 318 320 320 320 319 319 317 319 319 321 324 322 337 337 337 342 341 340 338 341 343
301 301 302 303 305 304 306 305 309 313 312 315 315 315 317 316 315 315 321 322 322 321 321 322 324 321 320 321 321 318 319 317 319 322 321 323 331 330 335 337 340 341 339 338 341
301 302 303 304 306 304 303 308 309 310 314 314 314 316 315 315 316 317 314 324 324 320 322 322 323 322 322 321 321 318 319 318 316 321 320 323 329 333 335 337 337 340 340 339 339
302 303 304 303 303 306 306 309 309 312 312 313 315 314 315 315 315 315 316 316 317 323 319 320 323 321 321 320 320 321 314 318 310 319 320 318 325 329 336 337 336 340 342 341 341
302 299 303 303 304 303 308 308 310 310 311 312 313 313 313 314 314 314 315 316 318 318 316 316 318 322 322 321 321 318 320 315 316 313 320 318 320 323 329 333 335 336 341 342 342
300 301 303 303 300 300 307 309 310 310 311 310 312 312 313 315 315 315 314 315 316 317 319 316 312 321 322 320 322 321 320 318 317 316 315 320 320 324 324 324 332 335 337 341 343
298 298 304 305 307 304 305 310 311 310 311 311 312 312 313 315 315 318 319 317 314 314 321 322 318 316 317 317 317 320 320 319 318 314 320 320 319 318 323 328 330 334 335 337 341
299 303 299 301 303 305 305 307 308 310 310 310 311 313 314 316 316 317 317 317 313 313 320 315 315 317 319 318 318 319 321 321 318 318 320 321 321 321 323 322 327 336 335 336 338
299 303 300 302 303 303 306 307 310 309 310 309 309 310 314 315 314 316 315 312 312 315 311 313 318 317 317 319 320 319 321 322 318 321 321 322 318 318 319 323 325 329 335 337 338
304 304 303 303 303 303 302 306 308 307 308 312 310 309 309 313 313 313 312 311 311 311 308 310 319 316 320 320 322 322 321 322 322 322 319 317 318 316 318 317 320 323 332 336 337
303 303 304 305 305 303 302 304 304 304 307 308 307 308 308 308 308 307 308 308 309 310 309 310 315 318 321 319 320 322 321 322 323 322 322 319 318 317 317 317 318 319 323 334 337

GFSSW_925_thetae_042.txt.gz
Theta_e
311 311 310 310 310 311 309 308 306 303 303 302 302 303 303 304 305 310 312 312 313 324 348 349 347 348 350 349 348 346 350 353 355 355 354 353 355 350 348 349 348 348 346 346 347
311 310 308 308 309 309 309 309 308 305 304 303 303 303 303 307 313 314 315 313 312 324 349 349 348 350 349 345 345 347 349 349 348 347 354 354 353 351 351 349 352 349 347 347 347
309 307 306 308 310 309 306 304 304 305 304 305 305 304 304 311 313 310 318 321 312 330 337 345 347 349 352 342 345 347 350 344 344 344 350 354 352 349 351 350 351 351 350 348 347
309 305 305 306 306 306 304 302 302 302 304 305 306 308 308 314 313 319 320 323 316 336 344 347 348 353 348 353 345 350 348 345 342 341 351 353 350 352 348 346 348 347 348 348 347
306 305 305 306 306 306 305 304 304 304 305 307 308 311 314 316 310 317 319 318 341 344 346 347 349 347 345 345 347 350 350 346 344 340 349 349 352 352 347 349 345 346 348 348 347
305 305 305 304 305 304 304 304 304 304 305 307 312 313 312 304 310 312 314 318 329 340 342 340 349 338 328 326 344 344 346 345 343 342 344 352 352 351 349 347 348 348 349 348 347
306 305 305 304 304 304 304 304 306 307 309 310 313 313 317 305 312 314 320 322 328 336 329 329 330 338 325 323 326 337 338 338 344 342 342 349 354 353 349 349 350 350 349 348 347
305 305 304 304 304 304 305 305 306 311 314 316 315 315 309 309 310 312 327 327 327 330 326 327 325 332 323 322 322 333 338 341 335 336 339 347 356 352 350 352 352 351 350 349 348
305 304 304 304 304 304 307 307 315 316 314 316 315 316 310 315 319 312 313 318 325 326 323 323 323 321 322 322 321 318 325 327 326 330 336 345 344 342 350 352 352 350 350 350 349
304 304 304 304 304 304 306 315 322 320 318 319 319 318 315 318 322 322 315 314 316 321 324 323 318 320 317 318 323 324 322 322 325 331 337 338 339 346 351 352 352 350 349 350 349
303 303 303 303 303 305 307 310 305 308 306 321 320 319 318 318 320 319 316 315 318 320 322 320 322 321 320 318 321 323 322 324 323 324 337 336 340 352 351 352 352 351 349 349 348
302 302 301 302 302 305 308 305 305 304 306 307 307 309 314 315 317 317 315 314 316 319 319 317 323 322 320 319 320 320 321 321 320 322 333 335 338 352 351 352 352 352 351 349 348
302 302 301 301 302 303 305 306 304 306 304 307 308 309 310 310 314 315 315 314 316 316 321 322 320 321 321 320 321 319 320 320 322 328 339 340 341 353 351 349 349 350 350 349 348
302 302 301 301 302 303 302 304 304 305 306 311 309 310 312 310 312 315 316 316 316 320 315 318 319 323 320 321 320 318 319 320 321 322 323 340 347 345 352 352 349 347 350 349 348
303 303 302 302 303 303 303 303 304 303 316 318 311 311 311 313 314 315 318 317 317 317 315 318 317 319 323 323 320 321 320 320 321 322 323 328 341 338 348 354 351 348 346 346 346
302 303 302 303 303 303 304 304 304 311 317 318 314 313 312 312 312 316 318 319 316 317 317 317 316 318 317 319 320 320 319 316 317 319 324 322 329 330 345 351 351 348 348 347 345
302 302 302 303 303 304 304 302 308 313 313 316 314 314 314 314 313 315 316 319 319 317 317 318 318 318 317 318 318 319 318 318 319 320 324 319 331 327 337 341 345 347 346 345 346
302 302 302 303 303 305 305 304 310 312 312 313 314 314 316 313 314 315 316 320 319 319 318 318 319 318 317 317 317 318 317 317 320 318 323 320 325 326 329 337 339 340 341 341 342
302 302 303 304 303 305 301 306 308 310 311 312 313 315 313 314 314 314 314 319 321 318 320 317 319 320 318 319 318 316 318 315 314 317 316 319 321 326 328 329 336 338 338 338 338
303 301 302 303 303 305 304 307 308 309 310 310 313 313 313 313 314 312 314 316 318 318 315 319 321 319 319 319 318 316 316 319 312 320 320 317 321 324 330 331 331 333 338 338 337
302 298 302 304 303 301 302 306 308 308 310 310 311 312 312 314 314 313 314 316 316 317 316 314 317 320 318 320 321 316 315 315 317 313 318 317 319 319 327 328 327 329 335 338 337
298 299 302 305 300 299 306 305 309 311 309 310 310 312 313 314 314 314 315 315 313 313 320 321 311 318 319 319 321 321 320 312 319 316 313 314 318 318 320 325 329 330 331 335 338
297 299 303 303 301 302 302 307 307 312 310 310 311 311 312 314 313 317 317 314 313 314 320 319 316 315 317 318 318 319 318 315 313 312 321 317 319 318 317 320 321 327 328 332 335
298 299 297 298 299 302 303 305 307 308 311 311 311 312 313 314 313 315 315 315 311 315 317 314 314 315 320 320 317 316 320 318 318 319 321 321 318 321 320 318 321 325 329 329 333
297 300 300 300 302 303 302 304 307 308 307 310 311 309 309 313 312 314 313 311 311 312 310 311 316 317 317 318 319 319 320 320 320 319 320 321 319 318 319 320 321 321 329 334 335
302 304 303 303 303 304 303 303 307 305 306 308 310 309 307 310 310 310 310 310 310 309 307 306 314 316 318 319 319 320 320 320 320 319 320 319 319 317 318 317 320 322 326 332 335
303 303 303 303 304 305 303 303 304 304 304 307 307 306 305 306 306 306 306 306 308 309 309 308 312 317 319 318 319 321 320 320 319 318 320 320 320 318 317 317 318 320 320 326 332

GFSSW_925_thetae_045.txt.gz
Theta_e
311 308 307 308 310 309 307 305 305 306 306 306 305 304 304 304 305 311 313 312 313 318 334 347 347 348 351 353 350 346 358 355 354 355 355 354 356 350 349 350 348 348 349 347 346
311 310 309 309 309 309 307 306 304 303 304 305 306 306 305 307 313 315 314 313 312 323 344 346 346 348 349 353 353 356 359 350 347 349 354 355 355 353 353 349 351 351 347 346 346
311 310 309 307 307 306 306 307 307 305 304 306 307 309 306 311 314 313 316 321 311 320 344 343 344 346 349 350 351 352 353 347 345 346 350 355 355 352 352 352 351 354 351 347 347
309 307 306 306 305 305 305 304 306 306 306 305 310 311 309 313 315 319 322 325 313 338 344 345 347 348 351 351 348 350 348 347 346 345 348 354 353 354 350 346 345 349 348 347 348
306 305 305 305 304 304 304 305 306 307 308 309 311 313 313 316 310 316 318 315 341 343 342 344 349 349 352 354 348 348 349 348 347 346 344 351 354 354 352 350 348 348 348 348 348
308 305 304 304 304 304 303 304 306 305 305 310 312 314 313 307 309 310 317 327 340 340 338 341 345 346 348 348 353 347 349 348 344 344 348 353 354 353 351 349 350 350 349 348 347
306 303 303 303 303 302 303 306 306 308 307 310 314 313 316 310 310 311 319 336 338 334 338 337 342 346 337 329 337 336 338 336 340 343 346 351 356 356 351 350 351 350 350 349 348
302 302 302 302 301 301 304 305 316 316 314 314 315 314 313 308 310 319 328 333 341 336 331 336 341 343 331 326 326 333 337 340 340 343 344 349 351 353 351 351 352 350 350 349 348
302 302 302 301 301 302 304 309 317 315 317 316 315 316 313 315 313 311 325 325 333 333 328 331 332 334 327 334 331 328 334 336 338 340 342 349 346 348 352 352 353 351 351 350 349
302 302 302 302 301 303 307 315 319 318 317 318 316 318 315 317 318 313 316 325 330 329 327 324 329 331 326 330 330 331 331 331 335 334 338 348 345 343 354 354 354 352 351 351 350
303 303 302 302 301 302 307 308 309 312 307 323 323 319 320 318 321 317 314 322 322 327 326 324 325 326 326 326 326 326 329 334 333 330 337 338 339 341 352 354 355 353 352 351 350
302 302 302 301 301 303 306 307 304 303 308 310 308 311 316 315 318 318 313 321 319 322 324 324 325 323 323 323 324 324 326 331 329 325 328 332 336 341 350 354 354 354 353 351 349
301 302 302 302 302 302 304 304 303 304 309 311 310 311 312 313 316 319 314 316 319 318 321 323 322 322 324 324 324 323 324 327 330 326 335 336 337 347 350 353 353 353 352 350 350
301 301 302 302 302 302 304 303 304 304 312 314 312 313 311 314 316 317 317 317 318 319 319 320 322 322 323 324 324 323 322 323 327 329 333 339 340 347 350 355 355 354 353 351 350
301 301 302 302 303 305 304 304 304 304 312 317 312 311 313 317 315 316 317 318 319 321 322 322 322 324 324 323 324 323 322 323 324 329 329 331 336 337 349 355 354 354 354 352 350
301 301 302 303 303 303 303 304 304 312 314 319 314 314 315 315 315 318 318 320 320 321 321 322 320 323 325 324 324 324 324 324 324 326 331 331 332 336 345 352 353 351 352 352 351
301 301 302 303 303 303 305 305 312 315 314 317 316 316 316 317 314 317 320 321 323 322 323 322 321 322 323 325 324 324 325 326 327 328 330 330 329 332 333 341 346 350 351 350 350
301 302 303 303 303 303 305 307 313 312 314 313 314 315 318 316 317 317 320 322 323 322 323 323 323 321 321 324 323 325 323 323 326 326 326 327 330 331 330 330 339 341 346 349 349
301 302 302 302 303 303 308 305 310 312 310 311 313 317 317 315 316 317 319 322 323 322 324 323 323 321 321 322 323 324 326 323 322 322 324 326 328 328 330 332 332 342 344 346 348
302 300 302 303 303 305 307 308 310 310 312 311 314 313 316 316 318 317 320 317 320 320 320 323 324 323 321 321 322 322 323 322 324 324 324 324 326 328 333 333 335 338 343 344 345
301 304 302 303 303 307 307 308 308 310 311 312 312 312 314 316 316 317 318 316 316 318 322 322 323 324 322 322 323 321 324 323 323 323 323 322 323 328 333 336 334 335 340 341 342
300 304 302 303 304 305 306 305 308 310 311 311 312 313 315 315 315 317 319 317 313 318 323 321 320 327 325 324 323 322 323 324 325 327 323 323 323 325 329 333 334 335 336 337 339
302 302 302 302 306 305 304 305 306 309 310 313 312 313 313 315 315 317 317 314 312 317 319 319 323 327 326 325 322 324 324 324 324 324 329 323 322 326 327 327 328 332 334 336 340
303 305 303 302 302 304 305 305 306 306 309 310 312 310 313 314 315 315 315 314 311 315 316 317 321 325 328 327 323 325 324 324 324 326 326 327 324 325 326 327 329 330 331 332 339
303 304 303 304 304 304 305 305 306 306 305 308 309 310 310 313 311 314 313 312 311 313 312 316 319 318 319 319 320 322 322 322 324 326 329 327 329 327 326 329 331 331 332 333 336
305 305 303 302 304 304 304 304 305 306 305 305 310 308 307 310 310 311 311 312 311 312 312 313 315 319 317 318 319 321 322 322 322 323 323 324 326 326 327 329 330 331 332 334 335
303 303 303 303 304 304 305 304 306 304 304 306 307 306 306 306 306 307 307 309 309 311 312 313 314 316 317 317 319 322 322 323 323 323 323 325 325 326 326 327 331 333 334 334 335

GFSSW_925_thetae_048.txt.gz
Theta_e
312 312 312 311 311 309 308 308 308 308 308 307 307 307 306 305 305 319 317 315 316 315 332 338 338 344 349 352 352 352 358 355 351 354 355 356 356 352 349 351 350 350 351 350 348
311 309 307 307 308 309 309 307 307 309 309 309 308 308 307 305 315 316 315 314 313 313 331 340 343 345 351 351 353 358 359 351 349 351 354 355 354 355 352 351 352 352 350 349 349
309 306 305 305 306 307 307 306 308 310 310 310 310 307 308 309 318 317 315 316 311 315 329 338 338 346 346 349 353 355 356 348 347 349 351 355 355 354 352 351 352 353 353 350 349
307 304 303 303 303 303 303 303 306 307 307 309 312 310 308 317 318 323 319 327 312 326 333 339 342 345 345 351 350 354 352 348 348 348 349 353 354 355 352 347 347 350 350 350 350
304 303 302 302 302 302 302 302 304 306 306 308 312 312 317 319 315 320 318 318 332 332 334 340 343 341 342 346 347 351 351 350 348 348 347 349 353 355 353 349 348 349 350 350 350
302 302 302 302 302 301 301 304 305 308 315 311 312 313 317 317 314 312 322 325 332 334 334 339 340 338 342 346 347 345 348 349 348 345 346 353 354 354 354 351 350 350 351 350 349
303 303 302 302 302 301 303 304 309 316 318 314 313 315 318 319 313 313 322 326 333 333 334 335 337 339 338 343 342 345 348 347 343 343 348 351 356 356 354 352 352 351 351 350 349
302 302 302 301 301 301 303 307 318 315 316 313 315 316 321 316 315 317 322 328 332 331 329 330 334 339 336 331 331 336 336 342 343 343 346 350 351 353 354 355 354 352 351 350 349
301 301 302 301 301 302 304 311 320 319 316 316 318 319 322 314 313 315 324 331 333 331 329 331 334 337 340 338 334 332 341 342 345 344 346 349 349 350 353 355 356 354 352 350 350
301 301 301 301 302 302 305 313 318 319 319 320 318 320 319 320 318 313 324 326 335 335 332 334 336 335 338 340 338 336 336 341 345 343 343 348 348 345 351 353 355 354 353 351 349
301 301 301 302 301 302 307 311 317 321 312 323 327 323 323 320 319 314 322 326 334 331 328 330 332 331 329 330 331 334 335 337 340 341 340 343 344 342 343 352 353 355 354 352 349
301 301 301 301 302 304 309 310 306 305 310 312 313 316 323 321 324 317 321 327 332 330 325 326 329 327 327 325 327 330 332 335 338 337 335 340 341 340 340 350 352 354 355 354 351
302 301 301 302 302 306 308 307 306 306 311 315 316 316 316 317 322 322 322 323 328 328 327 326 325 325 326 328 329 330 332 332 336 336 334 335 338 339 341 345 349 352 353 353 353
302 301 301 302 306 307 307 306 307 307 315 316 315 317 316 319 321 323 317 322 323 327 326 326 324 325 325 326 327 329 328 329 330 333 338 337 343 342 341 346 349 351 353 353 353
302 301 302 303 306 308 306 306 306 309 315 319 316 315 317 320 323 322 321 321 322 322 325 326 325 324 325 325 325 326 327 327 328 330 332 335 338 338 341 343 349 350 352 352 353
302 301 302 306 307 306 305 306 309 315 314 320 316 316 317 318 320 322 323 319 319 322 323 323 323 324 325 324 324 324 325 326 327 329 332 333 336 337 339 343 344 347 350 352 351
301 302 304 305 307 305 306 310 312 313 315 320 319 319 320 320 321 321 323 323 325 324 323 323 324 324 324 325 325 324 326 327 327 329 332 332 335 336 336 337 341 343 346 351 352
301 304 304 305 305 305 307 310 308 313 316 315 315 317 320 321 320 320 323 325 324 324 326 326 326 324 325 326 327 325 326 325 330 330 330 331 333 334 335 335 335 340 342 350 351
303 305 305 304 305 306 309 307 307 314 314 315 315 319 322 320 320 320 322 324 325 326 328 328 328 325 325 325 326 327 329 325 325 327 328 329 331 331 332 334 334 336 338 341 347
305 305 305 304 305 308 308 307 310 310 311 313 316 316 320 320 321 321 322 322 325 326 326 328 330 327 325 325 325 327 326 325 325 328 328 327 328 330 332 332 334 335 336 339 341
306 307 305 304 306 308 307 307 307 308 309 311 314 316 317 318 320 322 323 320 320 324 323 327 328 330 326 325 326 326 327 326 325 325 328 329 328 329 330 332 333 334 335 337 340
306 306 304 305 307 307 307 307 306 308 309 311 311 311 314 317 319 321 322 321 316 320 325 326 328 331 328 326 325 326 326 327 328 329 327 327 327 327 328 329 332 332 334 336 339
307 307 305 305 307 307 307 307 306 307 308 311 314 314 313 316 318 319 320 317 315 319 324 325 327 332 331 328 326 326 326 326 326 327 331 329 326 329 330 330 331 333 334 336 337
307 307 306 306 306 306 306 307 307 306 307 307 310 311 314 314 315 317 317 316 313 315 317 319 328 330 333 331 328 328 327 326 326 331 329 330 329 328 327 328 330 331 332 333 336
306 307 306 307 306 305 304 306 307 306 306 306 309 310 310 315 313 315 315 315 314 314 316 318 327 327 329 326 325 329 327 327 328 328 330 330 330 330 329 329 330 331 331 333 335
307 306 306 306 305 305 304 306 306 306 305 307 308 308 309 311 312 314 312 314 314 315 315 316 323 323 326 324 323 325 327 327 327 328 329 329 330 330 330 330 331 331 330 330 331
305 305 306 305 306 305 305 305 306 306 306 305 306 306 306 307 308 309 309 310 311 313 314 315 317 321 326 325 324 327 327 327 327 328 328 330 330 329 330 330 330 331 331 332 332

GFSSW_925_thetae_051.txt.gz
Theta_e
311 308 305 306 307 307 307 308 308 309 310 311 308 307 307 309 308 317 319 318 319 317 327 330 332 343 347 350 350 353 361 358 348 354 349 349 349 349 348 352 351 351 354 353 351
309 307 304 304 304 306 304 305 306 307 309 310 309 307 306 308 316 318 317 319 317 315 327 332 333 340 347 350 351 356 360 357 348 351 350 349 345 346 349 351 351 353 353 351 350
306 303 303 303 302 303 304 304 305 306 307 308 307 306 307 310 322 321 318 317 316 313 322 330 332 339 345 347 350 352 363 358 345 347 351 346 347 345 348 351 350 355 355 352 351
303 303 302 302 302 302 302 302 304 304 305 307 307 306 307 318 323 331 319 318 316 317 321 328 335 339 344 348 347 350 352 349 347 348 349 351 347 347 346 345 347 351 352 352 352
302 301 301 301 301 301 301 302 304 307 308 313 312 309 316 323 321 324 318 329 321 319 323 333 336 339 344 344 345 347 349 349 348 349 348 348 349 349 347 344 346 350 352 352 352
300 300 301 302 301 301 301 302 306 310 317 317 315 314 318 325 322 320 322 325 327 327 326 333 336 339 342 342 344 345 347 350 349 348 347 348 350 353 351 348 348 350 352 352 352
301 301 301 301 301 301 302 302 308 318 319 315 316 315 322 325 320 316 321 325 331 330 331 331 334 339 340 342 344 345 348 350 350 348 347 347 350 351 352 350 352 349 351 351 351
301 301 301 301 301 302 302 303 315 319 316 314 315 317 326 324 324 321 322 325 330 331 331 331 333 336 340 342 339 346 348 351 349 347 346 347 354 350 355 353 354 351 349 350 350
301 301 301 301 302 302 302 305 316 317 317 315 320 322 329 319 320 321 320 325 330 331 332 331 334 336 338 341 339 338 344 344 347 345 346 348 354 353 354 354 355 354 349 349 350
302 301 301 301 302 302 306 310 314 318 321 322 324 325 324 326 323 319 321 324 332 332 333 331 332 336 337 343 343 337 337 341 344 345 345 347 350 351 353 353 355 355 353 350 349
303 302 301 301 302 306 309 313 317 325 321 324 327 325 327 325 322 319 323 328 332 333 334 332 335 336 334 340 340 337 336 339 343 344 345 347 348 349 350 351 353 355 355 352 350
303 301 301 301 305 308 310 312 310 309 312 313 314 315 318 326 326 321 325 328 334 335 334 334 336 334 333 334 340 339 338 338 341 344 345 345 346 346 345 348 349 352 355 354 351
302 301 301 302 307 309 310 309 309 309 312 313 316 316 317 320 327 327 320 327 333 336 335 333 334 331 332 331 337 340 336 337 339 341 343 341 343 344 342 342 347 349 353 354 353
302 301 302 304 307 309 310 308 309 309 315 316 318 318 318 318 321 326 320 327 332 337 334 329 328 328 330 329 329 331 332 333 334 340 344 340 344 342 342 342 345 349 352 354 354
302 301 302 306 310 311 308 308 309 311 317 320 319 318 320 319 323 324 322 326 328 330 333 330 327 327 328 329 328 329 330 333 334 335 338 340 342 341 342 344 344 347 349 351 353
302 302 303 307 309 308 307 307 311 317 316 321 319 320 320 320 321 325 325 323 326 327 330 331 329 328 327 327 327 328 328 330 333 334 336 337 342 341 341 344 344 345 346 349 351
302 304 304 306 308 306 307 310 313 312 317 321 320 321 322 323 322 324 327 323 326 327 328 328 330 328 327 327 327 327 327 329 332 334 335 335 338 339 338 338 341 344 346 348 350
302 306 308 307 306 307 309 312 311 310 314 317 317 317 319 321 324 324 326 329 324 326 327 328 329 329 327 327 328 327 326 328 332 332 332 333 336 336 335 336 337 341 343 345 349
306 309 308 306 306 307 312 310 309 313 313 312 313 318 321 323 323 324 324 327 327 325 326 329 329 328 327 327 328 328 329 327 328 330 331 331 333 334 335 335 337 337 341 343 347
307 309 309 305 306 310 312 310 309 309 309 310 311 314 319 322 324 324 325 325 326 326 326 329 332 329 328 328 327 329 329 327 328 334 332 331 333 334 335 336 336 337 338 341 346
309 310 308 306 308 311 309 308 308 308 308 308 309 310 313 317 319 324 326 325 324 326 328 329 331 333 331 328 329 328 330 328 328 328 330 333 332 332 334 335 334 335 337 339 342
310 311 308 307 310 309 309 308 306 307 307 308 309 311 313 313 316 320 323 326 319 322 328 328 330 334 333 329 329 329 329 331 333 333 328 329 331 331 331 331 333 334 336 337 340
312 311 309 308 310 309 309 308 307 307 307 308 310 311 313 315 320 322 323 320 318 321 326 328 331 335 335 331 329 330 329 329 330 329 332 329 332 333 331 332 332 334 335 337 339
311 312 311 310 309 309 308 307 307 307 307 308 309 311 313 314 315 320 321 319 318 318 319 322 330 334 336 335 331 330 329 329 329 333 330 332 331 331 331 332 333 334 335 336 338
309 310 309 309 310 308 307 308 307 308 307 307 309 311 310 314 314 317 318 319 318 319 321 323 330 332 333 333 332 331 329 329 330 330 331 331 333 332 332 331 333 333 335 335 336
309 309 308 308 309 308 308 308 307 307 307 308 308 308 310 311 312 314 314 316 318 318 320 322 327 330 334 332 331 331 331 329 329 329 330 330 331 333 332 331 331 332 332 332 334
304 304 307 308 308 309 307 307 307 306 306 308 308 308 307 309 309 309 310 311 313 314 316 319 324 329 333 332 331 332 331 331 331 330 330 331 332 332 332 333 333 333 333 333 333

GFSSW_925_thetae_057.txt.gz
Theta_e
305 304 303 302 303 305 305 303 302 304 303 303 305 306 307 308 307 316 318 312 313 316 327 329 330 329 339 352 353 354 363 359 362 361 356 350 354 352 353 356 354 353 354 348 348
303 304 303 304 306 304 304 304 304 302 302 304 306 307 308 312 314 317 317 316 314 319 317 318 326 323 329 345 351 358 352 361 356 355 355 351 351 353 356 358 355 354 350 348 349
302 302 302 302 302 302 302 303 304 302 302 307 309 311 312 312 320 321 323 321 315 316 319 318 320 323 327 340 347 351 355 356 351 351 351 347 347 347 356 360 355 354 351 349 350
302 302 301 301 301 301 301 302 302 302 303 313 319 317 314 317 327 322 320 320 320 317 321 320 319 324 327 340 344 351 352 351 348 348 347 347 347 348 353 358 352 350 349 350 350
303 302 301 301 301 301 302 302 302 304 306 315 320 318 314 319 320 324 325 323 321 319 320 318 319 325 327 332 341 345 352 348 347 347 348 349 347 346 359 356 352 350 350 350 350
303 302 301 301 301 301 302 304 307 308 307 316 322 318 316 321 321 325 328 321 323 321 320 318 320 323 329 330 336 340 349 349 348 348 350 352 350 347 357 354 353 352 351 350 349
302 302 301 301 301 303 307 309 309 309 309 315 322 317 318 316 321 325 328 325 324 320 318 318 320 321 328 332 332 336 342 351 349 350 351 351 354 354 350 353 354 353 352 350 349
301 301 301 301 301 305 309 310 310 311 311 317 318 319 320 319 323 324 325 328 323 320 319 319 320 320 322 331 335 337 339 346 344 348 349 352 362 352 346 350 354 354 353 352 350
301 301 301 301 302 306 309 311 312 312 313 317 320 320 323 325 323 324 324 322 326 325 321 322 320 320 322 331 334 338 343 343 345 345 348 351 356 349 347 352 353 353 353 352 351
302 302 302 302 302 305 308 311 312 322 322 320 321 323 324 323 326 326 325 325 322 324 327 325 323 323 327 332 338 341 341 341 347 345 347 352 352 347 347 352 354 349 348 352 351
302 302 302 302 302 306 308 310 308 315 310 309 311 317 312 323 320 327 326 326 322 323 331 330 331 331 330 332 335 339 341 342 342 345 347 349 352 352 352 351 352 350 349 349 351
302 302 302 302 303 309 311 309 308 309 308 310 310 311 312 313 316 319 325 326 323 324 328 331 334 332 331 333 334 336 338 340 338 339 345 353 354 352 349 350 348 349 352 351 349
302 303 304 303 305 311 311 308 308 309 308 310 311 311 311 311 313 316 319 324 323 323 329 332 333 333 333 334 335 335 336 338 339 337 343 352 355 353 348 349 349 350 351 350 348
304 304 304 304 308 308 312 309 308 309 310 314 315 317 315 313 313 316 319 322 324 323 325 331 331 333 333 333 332 334 334 337 340 341 347 341 356 354 353 353 348 351 352 347 347
305 304 306 305 307 310 311 309 308 310 316 319 316 316 314 314 315 315 316 319 323 324 325 329 333 332 333 332 330 330 332 333 336 339 341 344 346 356 351 351 351 351 352 346 347
302 303 305 307 308 310 309 308 309 312 318 313 313 312 312 313 316 320 318 319 321 324 326 329 331 332 332 331 331 331 331 331 332 335 340 335 345 344 351 351 350 352 353 351 349
301 304 308 308 309 309 309 308 312 313 313 312 311 310 310 311 313 315 316 319 318 324 326 329 331 331 333 332 331 331 330 330 331 335 340 331 337 341 340 341 349 353 353 351 349
302 309 311 311 311 310 308 309 315 314 311 310 309 309 308 308 308 310 313 316 323 323 323 327 331 333 333 333 332 330 330 328 330 330 333 328 332 333 334 337 340 348 352 351 350
304 310 312 313 312 310 309 313 313 310 310 309 308 307 306 307 308 309 313 314 319 321 325 324 329 332 333 334 330 327 328 325 324 327 329 329 330 330 331 331 334 339 348 350 350
306 310 313 313 311 311 309 313 312 310 309 308 307 307 307 307 308 310 312 314 315 322 322 324 323 326 331 333 332 326 325 326 324 326 329 329 331 333 330 331 331 332 341 344 349
308 313 314 312 312 311 311 312 311 310 309 307 307 307 307 307 309 309 311 313 318 320 319 321 323 324 325 332 333 328 326 325 322 323 325 330 330 328 331 331 331 332 333 342 345
307 311 311 311 312 312 312 311 310 310 308 308 309 309 308 309 308 309 311 312 316 317 319 320 321 327 324 325 329 329 326 325 326 324 324 324 327 332 330 332 331 333 332 335 342
307 310 311 309 313 311 310 310 310 309 309 309 309 309 308 310 308 309 312 313 315 316 317 317 322 327 328 325 325 329 326 326 324 325 325 325 326 331 330 332 332 333 334 333 340
309 310 309 309 310 310 309 311 311 310 310 309 308 309 310 311 308 309 312 314 313 314 319 322 322 326 327 328 326 329 329 326 325 326 326 328 327 332 333 332 334 333 336 339 337
308 308 308 308 308 308 309 309 312 312 310 310 310 310 311 311 310 310 312 311 311 316 318 315 319 322 324 329 329 331 330 328 326 325 329 327 330 332 333 335 338 339 339 340 341
308 310 306 307 307 307 308 309 310 311 310 309 309 308 308 308 309 309 311 310 310 312 314 312 318 322 329 330 331 333 333 329 328 327 327 327 326 333 334 333 336 336 337 336 340
307 305 306 307 307 308 309 309 310 309 309 309 309 309 308 308 309 307 307 308 308 312 312 312 315 320 329 331 332 335 334 334 328 328 327 328 328 335 334 338 337 336 335 336 338

GFSSW_925_thetae_060.txt.gz
Theta_e
306 305 304 303 303 304 304 303 303 306 305 303 306 308 309 311 310 314 316 314 312 327 337 341 336 337 343 348 352 353 366 362 361 362 359 352 356 355 352 355 354 352 347 341 346
304 303 302 302 303 304 304 304 304 303 302 303 308 314 312 312 313 316 317 318 314 313 333 338 337 332 331 347 351 358 363 363 355 355 356 353 355 356 356 357 357 352 343 344 347
302 302 301 301 301 302 302 304 303 302 303 306 311 319 316 313 318 321 321 321 319 315 321 326 327 322 322 327 346 352 361 354 353 351 351 351 352 355 358 359 356 352 349 348 346
301 301 301 301 301 301 302 304 305 306 307 307 312 319 316 315 323 322 320 321 319 315 317 317 317 320 321 325 333 347 349 350 349 348 349 349 347 358 357 355 352 349 348 348 348
301 301 301 301 301 301 303 305 307 308 309 308 314 319 314 318 316 321 324 326 320 322 321 318 317 316 321 324 327 342 345 349 349 347 346 347 350 358 357 352 350 348 349 349 348
301 301 301 301 301 301 304 307 308 308 311 309 316 317 316 317 314 319 319 324 319 322 322 318 316 316 321 324 327 335 338 348 346 342 345 352 355 358 354 350 350 350 350 349 348
302 302 302 302 302 302 305 308 309 309 312 310 318 317 317 314 315 321 325 324 321 319 319 319 317 319 319 326 326 328 331 339 348 344 351 350 353 362 354 350 351 351 350 349 348
302 302 302 303 303 302 305 310 310 311 312 313 320 318 317 314 316 318 320 326 325 319 318 319 318 316 318 318 321 330 330 333 344 346 350 353 357 356 354 353 352 351 351 351 349
302 303 303 303 303 302 306 311 310 315 321 318 319 318 320 319 323 323 320 326 324 321 318 318 317 316 318 319 319 328 333 336 338 346 352 354 357 350 355 354 354 353 352 351 350
305 305 305 305 304 303 310 310 308 317 321 320 321 320 317 318 315 318 322 325 322 319 318 317 317 315 315 318 322 329 337 337 340 348 353 355 352 348 349 356 355 354 352 351 350
305 304 303 305 305 305 311 310 304 304 311 306 306 322 314 312 312 316 322 323 321 321 322 320 320 320 318 318 322 332 335 338 338 347 355 355 351 350 348 350 355 355 354 352 350
302 301 301 305 305 308 309 305 306 307 305 307 308 307 308 309 309 311 317 324 323 322 323 327 327 324 324 325 326 330 333 337 338 337 344 353 355 353 347 346 352 354 354 353 351
300 301 301 306 305 307 309 310 309 308 304 307 309 309 308 308 309 310 314 318 324 322 322 328 330 329 331 330 330 331 332 334 336 336 347 352 356 352 347 349 350 349 349 350 351
301 301 302 306 306 307 309 309 308 307 305 311 312 313 311 310 311 312 313 316 322 324 320 322 326 330 332 332 330 331 331 333 335 337 345 349 361 354 352 351 349 347 347 347 347
301 301 306 307 308 308 309 309 309 307 309 314 310 311 309 309 312 311 313 315 318 322 319 322 326 330 332 332 331 332 331 332 333 333 336 343 353 353 351 351 349 346 347 347 347
301 301 308 308 307 308 309 310 307 309 315 310 309 308 307 307 308 309 311 312 316 318 321 321 322 327 329 331 331 330 329 328 328 327 333 333 341 344 353 350 346 344 345 347 348
301 302 311 309 308 310 311 304 307 310 310 309 307 306 305 305 307 309 310 311 319 320 317 320 322 324 326 330 329 330 326 329 329 331 332 328 334 338 349 347 346 345 344 345 348
301 306 311 311 311 312 310 305 312 312 308 308 306 306 305 306 306 308 309 310 318 320 323 321 323 323 326 329 330 328 328 330 333 329 331 328 334 334 338 346 345 345 343 344 348
301 309 312 311 311 312 302 307 310 307 307 307 305 305 305 307 307 309 308 311 315 318 321 323 324 326 326 327 330 330 329 327 324 322 324 326 328 327 326 333 335 344 345 345 348
304 307 311 310 311 309 303 308 309 309 307 305 305 306 306 305 307 306 308 310 314 316 316 319 323 322 323 325 329 331 325 328 320 332 328 324 327 330 327 327 326 343 346 347 349
304 305 310 309 310 303 306 307 310 309 308 306 306 306 306 307 306 306 308 309 313 315 315 317 318 322 321 321 326 332 331 324 324 319 326 325 326 324 326 326 326 334 347 349 350
304 305 309 309 306 305 308 308 309 310 309 307 307 308 307 308 307 307 307 310 312 315 315 316 319 321 322 321 322 328 327 324 326 323 319 321 326 325 325 326 326 327 343 349 349
303 303 308 308 306 306 306 308 310 310 310 309 308 307 308 309 309 307 309 311 313 313 315 317 323 325 324 322 322 322 323 320 317 319 320 324 325 322 322 326 326 328 328 345 349
302 304 302 301 302 306 307 309 309 310 310 310 310 309 308 308 306 308 310 311 313 312 316 317 319 322 324 321 320 323 323 323 320 322 321 323 324 322 323 324 330 327 328 339 347
301 303 304 303 305 305 306 307 309 310 311 309 310 310 309 310 308 308 309 309 310 312 315 316 317 314 313 315 319 323 324 328 323 323 324 323 323 323 322 324 331 328 330 336 346
303 307 302 306 306 306 305 307 310 309 308 308 310 309 308 306 306 307 308 307 308 312 313 311 316 312 312 317 322 327 329 330 329 323 323 323 324 324 323 329 332 334 337 337 347
306 305 306 307 307 308 306 308 308 309 308 308 308 309 309 308 308 305 306 305 306 311 311 311 312 313 317 322 327 332 327 332 329 324 322 325 323 330 332 334 337 334 334 334 337

GFSSW_925_thetae_063.txt.gz
Theta_e
304 303 302 303 302 304 306 305 303 303 302 303 305 308 316 315 312 313 313 315 314 327 328 337 344 343 348 349 352 353 363 360 359 363 359 353 357 355 352 354 353 349 344 343 342
302 301 301 301 302 303 303 303 305 306 306 307 307 311 318 316 314 314 314 315 315 329 337 344 339 336 344 347 350 356 361 362 354 355 356 353 358 356 356 356 354 344 341 342 342
301 301 302 301 301 302 302 303 305 306 307 308 307 310 317 314 316 316 321 317 317 338 331 335 332 329 327 335 347 355 361 356 353 352 350 352 354 354 357 359 353 345 343 345 345
302 302 302 302 302 302 301 303 305 307 308 309 308 316 315 315 316 323 323 320 317 315 332 327 323 321 321 326 334 347 351 356 353 348 352 351 352 358 356 356 350 341 346 347 346
302 303 303 303 303 303 302 304 307 308 309 311 311 317 314 316 313 318 325 323 323 317 321 317 317 318 320 321 326 337 340 343 347 346 346 348 349 357 357 353 344 342 347 347 346
305 305 305 305 305 303 303 305 308 310 311 314 312 317 316 313 312 319 319 323 323 319 316 315 315 315 318 321 327 329 332 336 340 344 345 352 358 355 355 351 346 344 347 347 347
305 304 303 305 305 305 303 309 311 309 317 312 314 316 315 313 315 316 326 324 320 318 318 317 316 316 316 322 322 324 325 327 332 345 353 350 355 360 354 350 350 348 347 347 347
302 301 301 303 305 305 305 311 310 308 318 314 318 317 317 313 317 318 321 317 324 320 317 318 317 316 317 317 318 326 324 327 328 346 349 349 356 358 352 352 352 350 349 348 347
301 301 301 302 306 304 309 309 309 314 317 319 319 316 318 317 319 316 318 324 325 322 318 318 316 315 317 317 317 320 327 330 332 347 351 353 356 358 352 352 352 351 350 349 348
301 301 301 303 307 305 309 308 308 319 319 318 320 317 316 315 310 310 314 324 321 318 317 316 313 313 312 314 324 320 331 332 333 340 351 354 353 358 353 352 352 351 350 350 349
301 301 301 304 307 307 309 307 301 302 306 304 305 313 309 309 309 312 316 321 318 316 316 315 315 316 315 315 320 326 331 332 334 337 351 353 352 354 357 354 353 351 351 350 349
301 301 300 308 306 307 309 305 306 307 302 305 306 306 306 307 308 309 313 323 321 321 320 318 318 317 316 316 318 319 322 327 331 346 350 352 352 350 357 357 354 353 352 351 349
301 301 301 310 306 307 308 308 309 308 302 305 307 308 307 307 308 309 312 315 322 322 322 325 324 321 321 320 320 321 322 326 332 346 349 352 358 351 351 350 353 353 351 350 349
301 301 303 309 306 306 308 308 309 306 303 309 309 310 307 308 310 309 310 311 318 324 321 321 324 326 324 326 325 325 326 329 331 334 344 350 354 352 350 351 346 349 353 352 350
301 301 308 308 307 306 308 311 309 305 308 311 307 309 305 305 306 308 310 311 315 318 320 322 322 323 328 328 329 328 328 329 330 332 333 347 352 352 349 352 348 348 351 352 351
301 303 310 309 307 307 310 311 306 308 310 308 307 306 305 304 307 308 312 314 315 318 316 319 321 321 324 327 329 330 329 329 327 330 335 332 346 338 352 350 348 347 348 348 349
301 307 311 310 308 310 311 303 305 307 307 307 306 304 304 305 306 308 317 317 319 319 321 321 319 320 322 326 327 329 325 331 330 330 334 326 331 334 343 346 346 345 346 346 346
303 308 309 309 308 310 308 305 308 309 307 307 306 305 306 305 305 307 307 313 316 318 321 322 322 319 321 323 326 328 329 329 332 330 332 325 329 331 334 343 344 344 344 344 344
303 307 311 308 309 309 302 305 309 308 306 306 304 304 304 306 306 307 308 311 316 315 318 322 323 319 320 320 324 326 329 326 325 321 322 326 326 327 329 332 342 344 342 342 343
304 304 308 308 309 306 303 307 307 307 308 305 305 305 305 306 306 305 307 311 314 314 314 318 320 319 319 319 322 325 323 328 321 333 331 325 325 331 328 326 342 344 343 342 341
304 303 307 307 308 303 305 306 309 309 310 306 306 306 306 307 306 306 307 309 312 313 314 315 317 320 319 321 321 324 327 324 325 323 332 329 329 320 326 326 327 336 341 342 342
302 304 307 307 305 302 306 306 307 309 309 309 306 307 307 307 307 306 306 308 313 313 315 316 317 322 321 320 319 321 320 327 328 326 318 322 330 323 322 323 323 323 330 336 342
301 300 306 305 304 303 304 307 308 309 310 310 311 310 307 308 306 306 308 310 312 312 314 314 320 320 321 319 317 318 318 318 319 318 322 325 329 320 319 321 322 323 325 341 341
301 304 300 299 300 304 306 307 308 308 310 310 310 309 309 308 306 307 308 311 311 311 317 316 315 317 321 320 316 316 316 315 319 320 330 324 325 322 320 319 320 320 323 326 343
299 302 302 302 303 303 304 305 309 311 310 310 309 309 310 309 306 306 308 307 308 314 314 313 316 316 315 314 314 314 315 316 318 322 320 327 320 320 318 319 320 324 327 325 330
302 303 300 305 305 306 303 306 309 308 308 308 310 309 308 306 305 307 305 306 306 309 310 309 313 313 315 314 314 315 316 319 322 324 325 320 320 319 329 339 341 334 328 327 337
304 304 306 307 306 307 306 309 309 309 309 308 308 308 309 308 307 304 303 302 303 308 308 308 314 314 314 313 314 323 323 328 329 328 327 323 328 330 344 346 346 345 343 334 340

GFSSW_925_thetae_066.txt.gz
Theta_e
304 304 303 303 303 305 303 303 305 306 307 307 307 307 309 316 316 314 312 314 317 313 322 351 347 346 346 348 351 353 362 359 357 362 358 354 357 353 352 352 351 346 344 342 343
304 304 304 304 304 303 302 302 304 306 306 307 308 308 312 317 314 314 312 312 317 327 327 347 344 343 346 348 349 355 359 358 352 354 354 354 358 355 355 355 347 346 343 343 346
305 304 303 305 305 304 303 303 303 306 308 308 309 309 316 314 314 313 329 321 315 330 327 339 339 333 339 342 349 354 361 356 354 352 349 355 357 354 356 358 347 346 345 344 346
303 302 302 303 304 305 304 303 304 307 309 309 311 311 315 314 313 319 323 320 315 334 335 331 334 324 328 330 339 350 349 355 354 351 349 350 353 357 355 355 346 343 343 344 347
301 301 301 302 303 306 304 303 307 310 309 314 313 315 314 313 311 315 324 321 330 340 332 322 332 318 327 326 327 343 340 344 349 348 347 347 354 357 356 349 342 342 343 345 347
301 301 301 302 303 307 304 305 310 310 309 316 312 315 315 309 316 324 325 323 331 328 325 318 327 317 319 321 327 328 334 335 336 337 342 347 354 354 354 343 343 344 346 346 347
301 301 301 302 304 307 305 309 309 308 315 314 314 315 315 311 315 314 325 325 323 320 319 317 320 318 316 320 319 324 325 323 326 335 348 353 358 359 351 343 346 347 347 347 346
301 301 301 302 307 306 308 308 308 309 318 315 317 317 316 314 316 318 318 324 323 318 317 317 317 314 317 317 317 322 323 327 328 327 349 347 353 358 350 345 347 349 348 347 347
301 301 301 303 308 306 309 308 308 318 317 319 319 316 317 316 314 311 310 321 324 320 317 317 315 314 315 316 316 316 327 327 329 333 350 351 353 356 351 348 347 348 348 347 348
301 300 301 304 308 307 308 307 313 320 319 319 319 314 312 310 309 309 311 323 322 320 319 315 313 313 311 314 321 319 324 329 333 334 350 353 352 356 352 352 350 348 347 347 348
301 300 302 307 308 307 308 307 301 303 304 305 304 307 307 308 308 309 317 319 315 316 315 313 313 316 315 315 319 320 329 332 332 330 350 351 351 358 354 352 353 351 350 348 347
300 301 304 310 307 307 308 303 306 306 304 303 303 304 306 306 307 308 313 321 318 318 315 315 316 314 314 314 317 318 320 321 326 331 343 345 351 356 355 353 352 352 351 349 347
300 302 307 310 306 307 308 307 307 308 302 304 306 307 306 307 308 307 309 311 321 320 318 315 316 316 315 315 315 315 318 320 329 335 347 351 354 353 356 354 352 350 350 349 349
301 303 309 309 306 306 305 307 310 306 302 307 308 308 306 306 309 308 309 309 315 323 320 321 320 317 317 317 316 314 317 320 326 330 345 348 354 351 350 358 356 353 350 349 349
303 304 310 309 307 306 308 309 307 304 305 308 306 307 303 304 305 307 313 312 314 317 319 321 321 323 321 318 318 317 321 321 325 330 331 339 343 339 348 354 356 355 353 350 349
305 304 309 309 308 308 309 309 304 305 307 307 306 305 305 304 306 307 314 313 315 318 316 317 318 320 322 323 323 325 326 325 326 328 335 332 347 344 348 350 350 349 351 352 350
305 304 309 308 306 308 309 302 303 304 306 306 305 304 304 303 305 307 315 314 316 318 320 319 320 318 320 321 324 327 326 330 330 331 335 328 332 338 335 345 345 347 345 347 350
306 305 309 308 306 308 306 303 306 308 306 305 304 304 305 304 304 306 309 314 314 316 317 322 320 319 318 320 322 325 326 329 334 329 332 324 332 332 330 330 341 342 343 343 348
305 306 309 306 307 308 301 306 307 307 307 306 303 304 304 306 306 305 307 315 315 312 316 320 321 317 319 318 320 324 328 325 326 321 323 325 324 325 327 328 338 341 343 345 346
305 304 306 306 307 305 302 305 308 309 309 306 304 304 305 306 306 305 307 313 314 312 312 317 310 317 318 318 319 320 321 327 321 335 334 326 324 331 327 329 328 341 343 343 344
303 302 306 307 307 303 305 306 308 308 309 308 306 306 306 307 306 305 306 311 312 312 312 314 314 312 317 320 320 320 320 322 324 325 334 331 331 320 326 327 326 333 340 342 342
301 304 306 305 302 299 305 305 306 308 308 309 307 306 306 306 306 305 305 308 312 311 314 314 311 317 317 317 317 318 321 318 323 326 319 326 330 324 322 322 323 325 341 341 340
300 299 305 304 303 302 302 306 307 307 309 310 311 309 307 307 307 306 308 310 312 312 312 311 314 315 314 317 314 316 315 312 312 313 324 328 329 323 325 321 320 322 323 332 339
299 303 300 298 298 303 305 305 307 308 309 308 309 308 309 309 305 306 307 309 310 311 315 313 309 312 315 317 315 316 315 314 314 318 320 325 325 322 321 321 320 320 320 322 336
298 301 300 302 303 305 303 304 308 309 307 308 309 310 310 311 308 306 307 305 306 311 312 309 309 311 312 313 315 315 315 314 315 315 319 322 323 323 321 321 322 331 334 326 323
301 303 302 304 303 306 304 306 307 308 307 308 308 309 308 309 308 307 306 305 305 308 309 307 306 312 311 312 314 315 314 316 316 317 316 319 322 324 339 342 342 341 343 345 332
304 304 306 308 307 308 307 309 308 308 309 309 309 308 307 307 307 306 305 303 303 307 307 308 309 312 312 311 313 317 317 320 323 320 324 327 326 330 343 336 331 331 336 341 345

GFSSW_925_thetae_069.txt.gz
Theta_e
303 302 303 304 304 305 304 302 303 305 306 307 308 308 310 313 315 315 314 312 315 312 345 350 347 346 345 349 351 354 365 363 357 360 358 355 358 354 351 350 349 346 346 344 345
301 301 302 302 303 306 307 305 303 305 307 308 308 310 312 315 314 315 310 311 314 315 346 345 345 344 345 347 351 358 362 361 353 354 354 355 357 357 357 354 351 349 344 344 347
301 301 301 301 303 305 306 306 303 306 310 309 310 311 315 314 315 313 319 331 314 317 341 341 340 339 339 345 348 354 361 357 355 354 351 356 358 355 358 360 353 352 348 346 347
301 301 301 301 303 306 307 305 304 309 309 308 313 312 315 314 313 314 315 323 315 327 337 337 338 334 333 342 342 355 354 356 354 352 352 355 356 358 357 355 352 348 346 346 347
301 301 301 301 304 307 306 304 307 309 308 311 314 313 313 314 313 322 323 324 327 330 333 330 334 329 326 330 334 345 347 345 349 348 346 347 355 355 357 353 348 346 346 347 347
301 301 301 302 306 307 305 308 308 308 310 315 312 315 315 311 317 323 323 327 326 332 328 328 329 327 326 328 329 332 338 341 340 337 342 344 350 356 354 348 348 347 347 346 346
301 300 301 303 307 306 307 308 308 308 314 314 313 314 315 312 314 314 325 327 333 330 326 326 328 325 323 323 324 331 332 331 331 333 338 347 356 357 351 349 349 348 347 346 347
300 300 302 305 308 306 308 307 308 312 315 315 316 317 317 315 316 317 322 325 329 320 323 318 321 322 320 320 320 322 326 336 336 336 336 351 357 360 350 350 351 349 348 347 347
300 301 303 308 309 307 307 308 313 316 317 318 319 318 315 313 313 310 315 323 324 321 318 320 318 320 319 321 322 324 321 331 337 333 343 355 356 359 350 351 352 350 349 348 348
300 302 306 310 308 307 307 309 314 318 318 319 318 317 313 310 309 308 309 323 322 319 319 318 320 319 319 321 320 322 322 330 338 338 343 354 355 359 352 352 354 352 350 349 349
301 304 308 311 306 308 307 306 309 309 307 307 308 308 309 308 307 309 318 321 321 318 318 318 320 321 318 319 320 324 326 327 334 338 340 345 353 359 357 352 353 353 351 350 349
304 304 308 309 306 308 309 309 308 308 310 306 305 306 306 306 310 310 315 323 322 320 318 318 318 318 318 317 319 321 325 329 331 331 339 342 344 353 358 357 354 351 351 350 349
306 305 308 308 307 307 307 307 307 306 307 308 308 309 308 308 310 309 314 316 324 322 319 320 320 318 317 317 319 320 322 326 329 331 336 345 347 354 357 357 355 353 350 349 350
306 305 309 308 306 307 306 306 307 306 309 310 309 308 308 306 310 308 314 314 318 326 321 321 320 318 318 318 318 320 320 322 325 327 340 346 352 356 357 360 357 356 354 352 350
306 305 307 309 309 308 307 308 305 303 309 309 309 307 307 308 308 310 314 315 316 325 324 325 323 321 320 318 318 318 318 318 321 326 330 333 353 348 354 360 359 356 355 353 351
306 305 307 308 307 307 307 306 305 310 308 309 308 307 308 307 309 310 314 315 317 319 319 325 320 324 322 321 319 319 323 320 320 322 329 332 337 345 348 352 353 355 355 353 351
307 305 308 307 307 307 307 306 310 309 308 308 307 306 307 307 308 311 315 314 319 321 322 320 321 319 322 324 323 322 323 330 327 326 328 332 334 338 339 345 344 350 355 354 352
306 307 307 306 305 307 305 310 310 308 309 308 307 306 307 307 307 310 312 315 312 315 321 323 322 321 321 322 325 326 328 326 330 327 325 331 337 338 336 336 342 345 348 351 353
305 307 306 305 306 306 310 311 311 310 310 309 308 307 307 307 307 308 312 316 312 311 318 322 321 317 320 321 323 326 330 327 328 327 328 329 333 333 332 334 335 337 343 347 349
304 304 306 306 307 305 310 309 311 310 310 309 308 307 308 308 308 307 309 315 311 311 314 317 311 314 319 319 321 324 326 331 330 329 333 330 332 334 337 335 334 337 340 342 346
303 309 306 306 306 310 312 310 309 309 310 311 308 308 308 308 308 308 308 312 312 310 313 312 311 309 314 321 324 324 325 326 329 330 331 333 331 330 333 336 336 335 339 343 346
304 311 306 305 309 306 309 307 306 309 310 311 310 309 308 308 308 307 307 308 312 310 310 314 314 312 310 316 317 317 322 325 329 334 332 331 331 330 331 331 331 332 334 339 344
305 306 305 305 311 308 307 308 308 309 310 310 312 310 310 310 309 307 308 311 312 311 311 315 315 310 307 316 318 320 319 319 320 322 331 334 332 331 331 332 332 330 331 334 343
306 310 307 305 304 306 307 308 309 309 310 309 310 310 310 310 309 309 309 309 308 310 313 314 314 314 312 316 314 318 318 317 319 326 327 330 331 331 331 332 332 330 328 329 331
305 307 304 309 308 307 306 307 308 309 308 308 309 309 310 310 309 311 308 308 308 312 314 314 312 311 309 309 310 311 312 315 319 321 326 327 329 330 331 331 342 341 343 345 344
307 308 305 307 306 307 307 307 308 308 309 309 309 309 309 310 309 309 309 309 309 310 313 313 310 312 310 308 313 313 312 313 316 317 320 322 326 326 331 342 340 338 339 342 346
304 305 308 307 308 309 309 309 309 308 309 309 309 309 309 309 308 308 308 309 309 309 312 312 310 310 307 311 314 315 316 315 316 323 325 328 327 328 337 341 338 337 337 340 342

GFSSW_925_thetae_072.txt.gz
Theta_e
301 301 301 301 303 304 306 306 304 303 306 308 309 310 313 312 314 318 317 315 315 311 337 342 344 345 345 347 350 353 367 363 360 360 361 356 358 354 355 356 353 351 350 349 348
301 301 301 301 303 306 307 307 304 304 307 309 309 312 313 313 317 317 316 310 313 317 338 341 345 344 346 346 348 354 363 361 355 356 357 357 359 359 358 356 355 352 348 348 349
301 301 301 302 303 308 309 307 304 305 309 309 308 313 313 315 319 319 318 325 313 325 335 338 340 342 340 341 345 349 358 356 355 354 352 357 359 357 358 360 356 354 351 350 349
301 300 301 303 304 308 307 305 306 308 309 308 310 313 312 318 319 318 319 320 316 330 335 336 339 338 335 338 339 346 347 356 355 353 352 357 357 358 358 358 354 351 349 350 351
301 301 302 304 306 308 306 307 308 308 308 310 314 311 318 319 316 323 325 329 321 328 335 336 336 333 331 332 334 341 345 348 351 353 351 351 355 356 357 355 352 350 349 350 350
300 301 302 305 308 307 306 307 307 307 309 314 313 313 319 317 317 320 326 327 323 324 332 330 332 329 326 327 329 329 335 341 345 348 348 351 353 355 356 354 353 352 350 349 349
300 302 303 308 309 307 307 307 307 308 314 312 313 317 318 316 314 318 326 325 327 325 329 326 327 327 324 325 326 327 330 332 335 345 345 347 352 357 356 354 355 353 351 349 349
301 303 305 310 310 306 307 308 312 314 311 314 317 320 319 317 318 320 324 327 328 330 326 325 324 326 323 323 321 323 326 332 334 343 344 350 357 357 355 356 357 354 352 350 349
304 305 306 310 308 307 307 311 316 313 314 318 322 321 317 315 314 313 319 326 331 323 326 323 323 325 323 322 322 322 323 327 343 344 347 352 356 361 355 356 357 355 353 351 350
306 305 306 310 306 309 307 311 309 320 320 320 320 322 313 313 312 311 312 324 329 326 322 323 322 323 323 323 323 322 322 325 340 345 349 354 357 360 357 356 357 356 354 352 351
306 306 306 308 306 309 311 312 319 315 314 312 312 312 312 312 311 315 319 324 324 328 324 320 322 322 322 323 323 323 323 324 331 343 348 350 355 360 357 357 357 357 355 352 352
307 306 305 308 307 308 311 313 312 311 315 311 311 311 310 310 314 316 322 324 324 325 322 321 321 322 321 322 322 322 325 326 330 339 345 348 351 353 359 357 357 357 356 352 352
307 306 304 309 307 311 311 310 309 310 314 313 312 312 311 311 312 313 320 324 324 324 324 324 323 321 321 321 321 322 323 325 328 334 341 346 350 348 351 356 354 355 355 353 352
306 306 304 309 309 311 312 310 310 310 315 313 312 311 312 312 313 315 318 322 325 323 323 324 325 323 321 321 321 322 322 322 326 332 342 343 351 350 348 357 356 356 356 354 352
306 305 305 309 312 313 311 310 308 309 316 311 312 310 311 313 312 313 316 319 322 327 325 324 325 325 324 324 322 322 321 322 322 327 334 344 350 346 349 355 357 356 355 354 353
306 305 307 311 312 311 310 309 308 315 314 312 311 311 312 312 312 314 316 319 320 321 327 327 325 325 325 324 323 321 321 321 322 322 329 335 342 346 352 354 356 355 355 354 353
306 307 309 310 312 309 309 311 315 314 311 312 311 311 311 312 312 313 316 316 320 322 323 325 326 326 325 325 324 323 322 327 324 322 322 327 334 340 342 349 350 353 355 354 354
305 307 308 308 309 309 311 315 317 313 313 311 311 311 312 311 312 312 314 315 315 316 322 323 324 326 325 326 327 325 326 325 330 324 322 323 329 334 337 339 343 344 347 351 353
306 310 311 310 308 308 315 317 317 314 313 313 313 312 312 311 311 312 313 315 314 314 317 322 322 323 323 325 325 328 328 327 326 329 330 325 324 331 334 337 340 340 343 347 351
308 311 312 309 309 311 316 314 315 313 313 313 314 312 313 312 312 312 313 315 313 312 313 316 316 320 323 323 325 327 328 330 330 332 334 330 328 327 333 338 339 339 339 342 344
310 315 310 309 310 316 317 315 313 312 312 314 313 313 313 312 312 313 313 313 313 312 313 313 313 316 317 323 325 326 328 329 330 331 334 333 330 329 331 334 336 337 338 338 339
311 317 310 310 315 314 314 312 307 311 312 313 312 312 312 312 312 312 312 311 312 311 312 313 313 315 313 322 321 322 327 328 332 335 333 333 330 331 330 332 336 336 336 337 338
313 313 310 312 316 314 312 311 311 312 312 312 313 312 312 312 312 311 310 310 311 311 312 314 313 315 315 313 316 322 325 326 328 330 334 336 334 332 333 334 333 333 334 335 336
313 318 313 311 311 312 313 312 312 310 310 310 311 311 311 312 312 312 311 310 310 311 313 312 312 313 314 315 316 320 323 323 326 331 331 332 334 332 331 332 335 339 340 339 337
313 312 310 313 312 312 311 310 311 312 310 310 311 311 312 312 311 311 311 310 310 311 312 313 315 314 313 312 311 312 313 316 322 326 330 329 331 333 333 334 338 341 341 341 343
314 314 311 310 310 311 309 311 310 310 310 310 309 310 310 311 311 311 310 310 311 311 312 312 314 312 313 312 310 311 312 313 314 320 325 326 329 329 330 333 335 341 342 342 344
309 309 311 309 311 311 312 311 311 310 310 310 309 310 310 309 309 310 309 310 310 311 311 313 313 313 312 310 311 312 312 314 316 318 321 326 326 328 332 334 341 340 341 342 343

GFSSW_925_thetae_075.txt.gz
Theta_e
301 301 301 302 304 305 307 308 307 304 304 307 309 310 309 312 312 319 320 318 319 316 317 326 335 339 343 345 346 348 360 367 361 360 364 357 359 357 357 357 355 354 355 352 349
301 301 301 302 304 306 308 307 306 304 305 309 309 308 312 313 318 320 320 317 315 312 330 333 339 340 345 345 347 351 354 364 357 359 363 357 356 357 357 357 357 354 352 349 348
300 301 302 303 306 307 308 306 306 306 308 309 308 309 312 315 324 324 319 319 311 322 331 336 338 341 343 341 346 348 353 363 362 355 357 358 358 357 355 356 356 356 355 350 349
300 302 303 305 308 308 307 306 308 308 308 308 309 313 310 320 326 327 321 317 315 321 334 336 338 341 340 341 341 346 346 348 356 353 352 360 357 355 359 360 354 353 352 351 350
301 303 303 307 310 310 306 307 307 307 307 308 312 313 320 324 320 321 323 326 324 322 335 337 339 340 337 335 337 339 344 344 355 355 354 355 358 357 357 354 353 352 352 352 350
302 304 304 307 310 310 306 307 307 307 308 311 314 312 323 322 318 319 326 334 325 324 333 335 336 337 333 331 332 334 338 342 348 352 353 353 355 353 356 354 354 353 354 352 351
305 306 304 308 309 307 307 307 309 312 313 313 311 319 322 321 316 319 326 327 324 326 334 334 332 334 329 328 328 331 332 334 340 346 349 351 356 356 356 355 356 354 353 352 351
307 306 305 308 307 307 307 308 312 313 311 313 316 323 324 317 318 321 326 327 327 326 330 331 329 329 329 327 324 327 329 333 334 337 343 349 357 354 357 356 357 356 353 353 351
307 307 305 308 306 308 309 309 311 312 313 320 325 326 321 316 318 316 326 328 328 330 329 328 327 328 328 326 326 324 327 330 334 335 342 349 355 363 355 356 358 357 353 353 351
307 307 305 308 306 308 310 308 320 320 322 323 322 324 316 316 315 316 318 325 331 328 331 327 326 327 328 327 326 324 324 328 332 338 344 349 355 363 360 356 358 357 355 354 353
307 307 306 307 307 308 311 315 324 323 318 316 316 316 315 315 315 318 318 326 331 328 329 328 326 326 327 327 325 325 325 325 330 340 345 348 352 365 357 356 358 358 357 354 354
306 307 305 306 308 311 312 316 314 314 318 315 314 315 314 315 318 321 323 326 327 332 328 326 326 325 325 325 325 325 325 326 327 330 344 348 350 357 356 357 357 357 358 354 354
306 306 305 306 307 311 315 314 313 313 318 316 316 315 315 315 316 318 324 324 325 328 329 328 325 324 324 324 324 325 325 326 327 329 336 345 349 357 363 360 356 356 356 354 353
307 306 305 308 310 315 316 314 313 313 320 316 315 315 315 315 316 316 320 326 325 324 326 326 325 325 324 325 325 325 324 325 326 328 338 341 349 349 364 365 356 355 357 355 350
307 306 306 309 315 317 314 314 312 314 321 315 315 313 315 315 316 317 317 321 324 326 324 324 326 326 327 326 324 325 325 324 324 326 330 337 342 342 349 355 356 355 355 355 352
307 306 309 315 315 315 314 314 313 316 318 314 314 314 315 315 315 316 318 319 321 323 324 327 324 324 326 327 326 326 325 325 325 324 326 332 338 342 346 349 354 354 354 354 354
306 307 309 312 316 314 314 316 318 317 316 315 315 314 314 315 315 315 317 319 320 322 322 323 327 326 325 327 327 327 327 328 326 326 325 325 331 344 341 347 349 353 354 354 353
306 308 314 313 314 313 315 319 320 318 317 315 314 315 314 315 315 315 316 316 318 317 319 323 324 325 327 327 328 328 327 328 330 327 325 324 327 334 338 344 346 350 352 353 354
309 313 315 315 313 313 318 322 322 320 317 316 316 316 316 314 313 315 316 317 319 317 318 319 322 325 326 327 327 328 328 327 328 329 328 326 325 327 331 336 345 346 351 353 354
312 315 316 314 313 315 320 318 320 316 316 316 318 316 318 317 315 317 317 317 316 314 316 318 321 323 325 326 326 327 329 329 329 333 332 331 329 326 329 333 337 341 346 348 352
314 319 315 314 315 320 322 320 317 315 315 317 318 317 317 317 316 317 317 316 315 316 314 316 317 318 320 325 326 327 328 330 330 330 333 333 333 331 329 332 336 337 341 344 345
317 321 314 314 320 319 320 317 309 315 315 316 316 316 316 316 316 316 316 316 314 314 315 316 316 318 317 318 320 323 326 327 333 335 332 333 333 332 330 330 334 337 339 340 341
319 318 314 316 321 318 316 315 315 316 314 314 315 314 315 315 315 315 314 314 313 314 315 317 317 318 316 316 317 321 325 328 327 331 335 334 334 334 333 333 334 336 337 338 339
319 321 317 316 316 317 317 316 316 313 313 313 314 313 314 314 313 314 314 313 312 312 314 314 316 318 318 318 318 320 319 325 328 331 331 334 333 335 334 335 338 342 343 343 342
317 316 315 317 316 316 315 314 314 315 313 312 313 312 313 314 313 313 313 312 312 312 312 313 315 316 316 316 316 316 319 322 328 329 332 331 333 335 335 334 341 343 342 342 342
319 317 315 315 315 316 312 315 313 312 313 312 312 311 312 312 311 312 311 311 311 312 314 313 316 316 316 316 316 316 315 316 318 321 324 329 331 332 331 334 336 336 342 343 343
313 313 315 312 315 315 314 313 312 312 311 311 311 311 312 311 310 311 311 311 310 311 312 315 317 317 318 315 315 316 316 315 316 317 320 325 329 330 331 332 340 343 342 341 342

GFSSW_925_thetae_078.txt.gz
Theta_e
301 301 302 303 306 308 307 307 306 306 305 305 308 309 309 311 313 317 319 318 319 319 318 322 330 334 339 347 346 347 355 365 368 367 367 360 361 358 352 357 357 355 355 351 348
301 302 303 304 308 310 309 307 307 306 305 306 309 309 309 314 318 320 322 321 318 319 316 323 330 336 341 344 346 349 354 365 361 360 358 357 358 348 359 361 357 356 353 350 349
301 304 304 304 308 310 310 306 307 308 308 308 308 308 313 316 325 327 324 320 318 316 317 326 330 337 342 343 345 348 351 352 354 354 355 357 355 359 361 363 356 359 354 352 350
303 305 305 304 308 310 310 306 307 307 306 307 308 311 311 319 331 329 322 318 319 315 318 329 337 340 341 344 342 346 346 351 352 352 358 361 358 361 357 359 355 354 352 351 350
305 306 306 304 309 309 307 307 307 308 307 307 309 313 319 328 324 325 322 316 318 318 323 336 338 339 340 340 341 341 343 343 349 351 357 352 355 359 351 354 353 353 351 351 350
307 307 306 305 308 307 307 307 307 310 310 310 313 313 319 328 319 320 325 333 325 320 327 337 337 338 339 337 335 337 338 339 346 354 355 357 357 359 360 354 356 354 352 351 349
307 307 307 305 307 307 308 309 309 312 312 311 312 316 325 325 319 319 323 330 328 322 328 336 335 337 337 334 331 331 334 334 340 344 351 352 355 359 358 355 356 355 352 351 350
307 307 307 305 307 306 308 310 310 312 312 314 313 321 331 318 318 320 324 327 328 323 326 334 334 333 335 333 328 328 329 334 334 337 345 350 358 356 354 357 356 355 353 352 350
307 307 307 305 307 307 307 309 311 309 318 318 325 329 329 318 319 319 326 327 328 326 329 333 333 332 329 333 328 327 327 330 333 336 338 345 355 365 356 356 357 355 354 353 351
306 307 306 305 307 308 309 311 314 313 324 323 325 326 321 318 317 318 321 326 328 329 330 331 331 330 330 331 330 327 326 326 330 334 336 338 357 357 352 350 356 356 354 354 352
307 307 306 305 307 310 311 317 324 329 324 321 318 317 317 317 318 318 317 324 330 331 334 332 332 331 330 328 329 327 326 325 327 331 335 338 355 353 347 345 352 356 354 354 353
307 307 306 305 306 309 310 318 316 316 317 317 316 316 316 317 319 322 321 327 330 330 327 332 331 330 326 327 328 328 326 326 327 328 332 343 358 350 348 344 348 353 355 353 354
307 306 306 305 308 310 316 316 315 315 316 319 317 317 316 317 318 321 324 325 327 329 330 327 328 328 327 326 327 327 326 326 327 328 329 338 362 352 348 350 353 356 355 353 355
307 307 307 306 313 318 319 316 315 315 320 318 317 316 316 317 317 318 320 325 326 326 326 329 328 327 326 326 326 326 326 325 326 327 328 330 335 365 360 362 358 357 354 353 352
306 307 307 307 313 319 317 316 314 316 324 318 316 315 316 316 318 318 318 320 325 327 325 325 327 327 327 326 326 326 326 326 325 326 327 328 337 339 364 361 350 352 354 352 349
307 307 309 316 316 318 316 316 315 318 320 316 316 316 316 316 316 318 318 319 322 322 324 326 326 325 326 327 327 326 326 327 326 325 326 327 330 338 363 352 343 348 355 353 350
308 308 309 313 318 316 316 318 319 318 319 317 316 315 316 317 316 316 317 319 319 321 321 320 323 326 325 325 326 328 327 328 328 326 325 325 327 335 344 357 350 348 355 355 352
310 308 311 315 317 316 317 321 322 321 319 317 316 316 315 317 316 316 316 316 317 318 318 320 323 322 326 326 326 328 328 330 331 328 326 326 328 328 332 335 355 357 353 355 356
311 316 315 318 316 315 319 324 323 322 320 319 318 318 317 316 315 316 317 317 319 320 319 320 318 320 324 326 327 328 330 328 329 329 328 327 327 327 329 334 345 350 352 354 349
312 318 319 317 316 317 320 323 322 319 318 318 319 319 320 319 317 318 318 319 318 317 317 318 318 319 323 325 326 327 328 330 330 333 335 330 333 330 330 332 344 348 349 351 349
315 322 319 317 317 321 324 322 319 317 317 318 320 320 319 319 319 319 319 318 318 317 317 317 317 318 319 323 327 328 329 328 329 329 332 332 331 333 333 332 333 349 350 351 352
321 323 317 317 322 321 321 319 311 317 317 317 317 318 318 318 318 318 318 317 315 316 316 317 317 318 318 320 321 326 327 328 332 335 332 333 333 336 334 330 331 334 347 347 347
323 319 317 318 322 321 318 317 316 317 316 316 317 316 316 316 317 316 316 315 314 314 317 316 319 320 318 318 318 319 320 324 326 330 337 333 333 333 334 332 331 333 336 345 349
322 322 320 318 319 320 319 317 318 314 315 315 315 314 315 315 315 315 314 314 313 313 314 313 315 318 321 320 319 320 318 321 324 329 330 333 335 335 337 342 344 346 347 345 349
319 318 317 319 318 317 317 317 316 317 314 314 315 314 313 316 314 314 314 313 312 313 313 313 314 314 316 316 318 318 319 319 320 325 330 331 334 335 336 340 339 344 344 344 346
320 320 318 318 318 318 314 316 315 314 315 314 314 312 313 313 313 313 312 312 312 312 313 315 317 316 317 315 317 318 319 318 319 322 328 330 331 334 334 333 339 345 345 346 347
317 316 317 314 317 317 316 315 315 314 313 313 312 312 314 313 312 312 312 312 312 312 311 313 320 317 318 315 316 317 318 318 318 319 322 324 325 327 332 334 336 340 342 341 341

GFSSW_925_thetae_081.txt.gz
Theta_e
302 304 304 304 304 308 310 309 306 307 307 305 305 308 309 308 311 317 318 313 314 319 320 324 324 327 330 345 349 346 353 361 364 363 354 352 361 359 356 359 355 353 352 350 350
302 304 304 305 304 308 309 310 306 307 307 307 308 308 308 312 316 318 313 318 318 318 318 320 323 330 331 338 345 350 352 357 359 359 357 359 361 357 359 360 360 354 351 351 351
305 306 306 306 304 308 308 307 306 306 307 306 307 307 309 315 322 326 321 320 321 319 319 318 322 328 335 337 341 345 350 356 354 353 352 354 355 354 359 363 360 355 352 350 349
307 307 306 306 304 307 307 307 307 307 308 307 306 307 312 319 332 327 322 321 321 317 317 317 320 328 336 339 340 345 345 349 351 350 356 357 357 361 360 360 353 351 349 348 348
307 307 307 306 305 307 307 308 308 308 310 309 308 311 319 324 324 323 322 318 319 318 316 318 325 331 338 338 339 342 341 345 350 353 357 355 360 356 352 352 352 350 349 349 348
307 307 307 307 306 306 306 307 309 309 312 311 312 313 317 324 320 322 326 322 321 316 318 319 332 335 337 337 336 337 339 339 351 353 356 359 360 355 354 352 354 352 351 349 347
307 307 307 306 306 305 307 307 309 310 311 311 312 314 320 324 321 319 321 328 328 321 319 324 330 336 335 336 335 328 329 329 339 346 359 359 359 355 351 354 355 353 351 348 347
306 307 307 306 305 304 307 307 308 310 311 314 313 321 327 325 317 319 320 323 330 324 321 324 332 335 333 332 333 328 324 327 329 334 345 359 366 361 356 356 358 353 352 349 347
306 307 307 306 305 304 308 310 311 312 311 316 324 324 331 319 319 320 324 326 329 328 322 322 326 332 332 329 330 329 322 324 327 329 335 348 367 361 358 358 358 353 352 350 348
306 307 306 305 305 304 308 310 314 315 320 324 323 326 325 318 317 317 321 325 328 324 324 326 329 332 328 326 329 329 324 322 323 328 332 338 366 362 358 358 359 354 352 351 349
306 306 306 306 305 305 308 311 320 324 323 329 324 327 317 317 317 317 318 321 326 327 327 329 330 330 328 327 327 328 328 324 323 324 330 336 366 364 358 351 356 357 355 350 349
306 306 306 307 306 307 308 314 315 315 314 316 320 315 316 316 317 320 318 320 328 329 331 331 331 330 329 328 328 326 326 326 324 325 326 353 362 356 353 347 352 349 347 350 349
306 306 307 308 306 311 312 316 316 315 314 316 316 315 315 316 316 322 321 323 328 330 328 325 329 330 329 328 326 324 324 324 325 324 324 350 357 349 347 347 345 351 349 347 350
306 307 308 307 311 315 318 317 316 315 315 318 316 316 315 315 316 318 319 321 324 325 326 327 326 326 327 328 326 322 325 325 325 323 323 324 350 354 349 353 351 353 352 351 349
307 309 308 307 310 315 317 317 316 315 323 318 316 315 316 315 316 317 318 318 320 325 324 323 324 326 328 327 324 324 325 324 325 322 321 322 322 354 351 355 354 352 344 348 349
309 310 309 315 315 318 317 317 317 315 321 316 315 314 314 314 316 318 318 317 318 320 320 321 323 324 324 326 325 325 324 323 323 322 320 320 323 349 358 352 347 355 351 352 352
310 311 308 310 317 317 317 316 318 317 318 315 315 314 315 314 316 316 316 317 316 318 319 319 320 321 323 323 323 325 325 324 323 323 324 319 320 321 357 354 349 354 355 349 349
310 312 311 313 316 317 316 318 324 322 319 317 316 315 315 315 315 315 315 314 315 317 314 315 316 319 321 323 323 323 322 324 327 327 325 321 322 322 329 353 348 348 348 343 350
312 316 316 318 318 317 316 323 321 320 319 319 318 318 317 316 316 316 316 315 317 314 316 317 318 317 317 318 323 323 323 323 324 324 327 326 324 323 324 330 348 343 345 349 352
312 316 319 318 317 317 319 322 319 318 317 318 320 320 320 317 318 317 317 317 317 316 314 315 315 316 316 317 320 323 324 325 323 328 330 328 327 328 323 323 348 351 351 355 353
316 322 319 317 317 318 323 321 319 317 317 318 319 320 319 319 318 318 318 315 315 316 315 314 315 316 316 317 317 319 323 323 324 325 327 327 327 326 336 327 341 349 350 353 353
318 323 317 318 321 322 319 317 313 317 316 316 318 317 318 317 318 317 315 315 314 314 316 313 314 316 317 317 316 316 317 325 327 328 328 331 330 333 336 340 333 346 347 348 349
320 321 318 318 321 319 318 316 315 315 314 315 316 315 315 315 316 316 317 314 314 315 314 311 314 315 316 315 316 317 317 317 322 321 325 331 332 334 334 334 339 346 347 348 347
320 320 320 318 317 317 319 317 316 314 314 315 314 314 315 315 314 314 314 313 312 314 315 311 310 312 314 315 314 316 317 318 318 320 324 326 328 335 335 335 341 342 345 348 346
321 318 318 318 318 317 317 317 316 315 314 314 315 313 313 314 313 314 313 312 312 316 313 311 311 311 312 313 314 314 315 317 318 318 319 320 325 332 336 340 338 338 341 344 345
320 319 317 317 317 317 316 317 315 314 314 313 313 312 313 313 313 313 311 311 313 311 311 313 314 316 315 314 314 315 315 316 317 318 317 318 327 331 334 335 335 335 337 336 337
318 318 320 316 315 315 315 314 314 314 313 312 312 312 314 313 312 311 310 310 310 310 310 312 317 315 315 313 313 316 315 316 316 317 318 318 328 327 334 336 335 333 331 333 333

GFSSW_925_thetae_084.txt.gz
Theta_e
304 305 305 305 305 305 308 308 307 306 306 306 307 307 308 308 310 315 316 311 310 328 328 326 325 325 326 340 345 348 357 358 361 361 357 351 358 357 356 355 352 353 352 348 348
306 307 307 306 305 304 307 306 306 306 306 306 306 307 307 310 316 317 312 312 316 316 319 320 321 325 326 331 338 351 350 355 358 359 358 354 351 356 358 358 356 356 349 348 347
307 307 307 306 306 305 306 307 307 307 307 308 307 306 307 313 320 326 322 315 316 319 318 318 321 326 330 332 336 342 352 360 358 354 353 354 357 352 359 359 356 356 351 348 348
307 307 307 307 306 305 305 306 307 308 309 309 308 307 311 318 329 327 321 317 321 319 318 317 316 319 332 335 336 341 343 353 356 353 351 356 356 356 359 358 353 352 349 349 348
306 306 307 307 306 305 304 306 306 308 311 311 311 310 318 321 323 322 321 320 320 317 316 316 317 320 330 333 336 339 340 344 351 350 354 353 360 361 357 354 354 351 350 350 348
306 306 306 307 306 305 304 306 307 308 311 311 311 312 316 317 322 322 323 318 319 318 315 316 320 324 331 333 335 336 336 338 351 354 355 358 359 352 352 354 353 352 351 349 348
306 306 306 306 306 305 304 306 308 308 309 312 311 314 319 318 323 323 324 325 323 317 315 316 318 324 333 334 333 335 329 325 351 356 359 358 362 355 355 354 353 352 349 348 347
306 306 306 306 305 305 304 306 309 309 310 314 314 320 322 327 324 319 323 327 328 321 316 319 320 325 334 333 328 330 323 324 338 354 357 355 363 360 354 358 354 353 350 349 346
306 306 306 305 305 306 304 307 309 312 313 316 323 322 328 320 317 318 319 319 327 327 322 321 321 321 328 328 326 324 330 326 323 352 360 359 363 356 357 358 355 353 351 349 347
305 305 305 306 307 306 305 310 315 314 317 323 322 322 322 321 318 317 318 321 327 325 322 321 321 326 326 323 328 329 328 321 321 323 357 359 363 356 356 359 358 354 353 350 347
305 305 306 308 308 306 308 312 309 314 323 326 324 324 317 317 317 316 319 320 323 322 324 325 327 329 330 326 325 326 326 325 326 324 323 353 364 360 352 358 354 355 353 352 350
306 307 308 309 307 307 310 311 313 314 312 314 319 320 321 315 314 317 316 317 326 327 326 329 329 328 327 327 326 326 326 324 323 324 322 360 365 361 356 359 349 348 354 352 349
308 308 309 309 307 314 314 315 317 314 311 312 312 316 313 314 314 319 316 318 327 327 328 329 329 329 330 328 328 325 323 323 323 323 347 358 363 364 359 356 355 351 353 351 349
309 309 310 309 313 312 315 317 316 314 310 315 315 314 314 313 314 318 318 319 322 328 328 325 325 324 329 328 327 324 323 323 324 321 321 337 339 353 355 351 351 356 353 351 349
310 310 310 310 312 312 318 317 316 313 319 317 314 315 312 313 314 316 317 317 318 320 319 320 324 324 325 325 325 326 324 323 323 322 318 320 324 342 348 351 349 349 351 350 349
310 310 311 310 311 317 317 316 315 311 319 315 313 313 313 313 314 316 316 315 317 317 317 318 320 321 321 323 324 323 322 320 318 317 320 318 319 334 352 350 348 345 350 350 350
311 312 311 310 314 316 316 312 313 315 316 316 313 312 311 312 313 314 315 315 314 316 315 315 316 316 318 320 320 322 319 322 323 320 321 317 318 318 347 347 347 346 347 347 348
313 312 313 314 316 315 315 313 319 319 317 317 316 315 314 314 312 313 312 312 313 313 311 315 315 314 315 315 320 321 319 322 326 324 322 319 322 321 324 344 344 346 347 340 344
316 316 317 318 317 315 310 317 316 316 316 317 316 316 315 314 314 313 313 314 314 311 313 313 315 315 316 315 316 319 321 318 320 321 322 322 323 324 337 335 343 344 348 347 350
317 317 317 318 317 314 312 316 316 315 315 316 318 317 317 316 316 314 313 312 315 314 310 313 314 313 315 314 314 313 314 322 318 325 327 325 324 325 338 341 343 346 348 351 347
318 316 318 317 317 311 314 317 316 314 314 315 316 315 315 315 314 313 312 313 314 314 310 311 311 313 314 313 315 314 315 314 319 319 323 325 325 335 337 342 342 343 344 348 347
314 313 316 317 314 311 312 315 313 312 312 313 313 314 314 313 313 312 313 313 313 313 313 309 309 313 315 313 314 314 313 313 318 323 322 321 327 331 338 339 340 345 345 345 349
313 315 317 316 312 310 313 314 312 312 312 313 313 312 312 312 314 312 314 313 313 311 310 309 308 310 311 311 310 312 313 312 312 312 320 326 326 335 337 339 338 341 347 347 346
312 312 310 308 307 312 313 313 313 313 312 312 311 310 310 310 309 311 311 312 312 313 315 309 304 308 310 310 309 313 314 314 313 313 315 316 317 337 338 339 338 337 337 338 339
311 312 311 313 311 311 311 312 313 313 311 310 310 311 310 309 309 310 309 309 311 314 311 307 309 311 313 312 313 313 313 314 314 314 315 315 316 337 336 335 335 336 335 336 335
311 312 309 309 310 310 310 311 314 313 312 311 310 310 309 310 310 311 309 309 310 308 308 309 311 312 311 312 311 311 311 314 314 317 322 320 325 329 333 331 332 333 335 335 333
317 316 310 309 310 310 311 312 312 313 311 310 310 309 311 311 310 309 308 307 308 310 307 309 310 309 313 311 309 308 312 317 318 324 326 331 327 321 333 329 328 328 330 333 332

GFSSW_925_thetae_087.txt.gz
Theta_e
307 307 307 307 306 305 304 306 306 306 306 306 306 306 307 307 308 314 316 310 311 326 325 328 330 326 329 337 343 348 358 357 358 363 360 354 356 353 354 354 353 353 350 347 348
307 307 307 307 306 306 304 306 306 307 307 306 307 306 306 309 314 317 314 310 315 328 328 331 326 322 324 329 339 351 354 356 356 357 360 356 353 354 357 356 356 352 348 347 349
307 307 306 306 307 306 305 304 306 306 308 309 309 307 307 312 318 325 323 312 323 326 320 323 321 326 328 329 335 343 353 353 357 354 353 353 353 355 361 360 353 353 350 348 348
307 307 306 306 306 306 305 304 306 306 308 310 310 307 311 317 326 327 317 312 317 318 317 316 315 321 329 334 333 340 341 353 355 353 351 354 354 356 357 358 353 349 348 348 348
307 306 306 306 306 306 305 304 305 306 309 311 310 310 317 318 320 320 317 315 320 317 317 314 315 317 325 329 333 337 338 347 352 352 352 355 355 355 359 355 354 350 348 347 347
307 306 305 306 306 305 304 304 305 307 307 310 311 312 315 312 318 323 320 319 320 317 315 315 316 318 324 331 334 335 336 336 351 351 353 357 357 356 356 355 355 351 349 347 346
306 306 305 305 305 305 305 305 305 307 308 310 313 315 318 314 324 325 321 320 319 318 313 315 317 326 330 335 332 334 336 335 351 355 354 356 358 356 356 355 358 354 350 348 347
306 305 305 305 306 307 306 304 306 308 310 312 314 320 319 321 325 324 322 324 321 318 317 317 318 322 328 331 329 328 323 323 347 358 357 357 362 358 355 357 356 354 352 350 348
305 305 306 307 308 307 306 306 310 312 311 318 322 322 325 324 319 319 320 321 325 316 316 319 319 320 324 329 325 323 331 327 343 355 358 358 361 356 355 356 355 354 352 350 348
307 307 307 308 309 307 306 313 314 314 319 322 322 320 319 320 318 317 317 320 327 322 320 319 319 322 324 325 332 331 328 324 323 355 357 359 359 357 355 358 355 353 350 349 348
309 309 308 309 309 306 310 313 308 310 325 320 324 321 322 318 316 316 318 322 321 320 321 320 325 328 329 326 326 325 325 326 325 323 336 360 358 358 354 356 355 354 350 350 349
310 310 309 310 309 311 312 311 312 313 311 314 319 322 322 321 313 315 316 320 324 324 323 325 327 326 327 327 327 327 327 325 323 322 320 343 360 355 355 355 355 354 352 350 348
310 310 311 310 309 313 312 315 316 313 309 311 311 313 314 314 312 316 316 316 325 326 327 327 329 329 329 329 328 326 325 325 324 325 355 356 363 361 354 354 356 349 351 350 349
309 310 311 310 312 313 314 316 316 311 310 315 314 314 313 312 316 319 318 319 322 327 325 327 326 328 327 329 326 327 323 324 323 320 321 338 354 357 358 356 355 355 348 351 350
310 310 311 310 313 313 316 316 316 311 317 317 314 314 310 312 313 315 315 316 319 320 319 323 323 324 324 324 325 326 325 323 322 319 318 319 323 339 356 358 354 353 352 350 350
311 311 311 310 310 315 315 316 314 311 317 314 313 312 312 311 313 315 315 313 315 316 316 317 318 319 320 322 322 324 322 318 315 315 319 319 318 322 357 357 352 349 348 352 349
314 313 311 310 312 314 315 310 312 316 315 317 312 311 310 311 312 314 312 312 311 314 313 313 314 313 313 318 318 318 318 321 321 319 320 316 319 320 332 346 350 348 346 348 350
314 313 314 314 315 314 313 311 317 318 316 315 316 314 312 312 312 312 312 311 312 310 310 312 314 313 314 315 316 318 318 320 324 323 321 315 321 328 336 335 338 339 343 345 347
315 316 317 318 317 315 309 313 315 315 314 315 315 315 315 315 312 313 311 311 313 311 312 312 315 313 315 314 314 317 316 316 317 317 321 321 321 325 338 340 340 340 341 342 343
318 318 317 317 316 313 310 314 314 312 314 315 316 315 315 314 315 312 312 311 313 311 310 313 314 313 313 313 313 312 312 318 316 322 325 323 325 339 344 343 344 348 347 343 342
317 312 315 315 315 308 312 314 313 311 313 314 313 313 314 313 312 311 312 312 312 313 308 310 310 312 312 312 313 311 312 311 315 317 321 323 339 338 343 340 342 342 345 342 344
313 313 315 315 311 306 311 313 312 311 310 311 312 312 312 312 311 311 312 312 312 310 311 307 307 311 313 309 311 312 311 310 314 317 317 319 336 333 336 336 337 338 336 338 341
313 313 316 315 312 309 310 312 310 311 310 311 310 310 309 310 310 311 312 311 310 309 309 308 305 307 309 308 308 309 312 310 309 308 313 320 326 335 335 337 334 334 334 334 337
308 311 308 306 304 310 311 311 312 311 310 310 309 309 308 308 306 309 309 311 312 315 316 307 303 305 306 310 309 313 312 312 310 312 313 314 315 336 335 336 336 335 333 332 332
306 310 308 310 310 309 309 311 312 312 310 308 310 310 309 309 308 309 308 308 309 310 308 305 308 310 309 309 311 311 311 312 313 313 314 316 333 327 333 332 333 334 334 332 331
311 312 307 306 307 309 308 311 313 312 311 310 309 310 308 309 310 311 309 309 309 307 308 306 312 310 310 311 309 309 314 314 316 323 319 322 327 320 326 323 325 327 333 333 331
314 314 307 308 307 308 310 311 312 312 312 310 309 308 310 311 309 308 307 306 308 308 305 307 307 306 309 309 307 309 312 321 322 319 323 327 322 319 325 322 321 321 322 328 328

GFSSW_925_thetae_090.txt.gz
Theta_e
307 307 307 306 306 306 305 304 306 306 307 307 306 306 306 306 307 314 314 309 309 318 322 331 334 328 335 338 341 346 357 357 358 361 359 354 358 352 352 353 354 353 348 346 348
309 309 308 308 308 307 305 304 305 305 306 308 308 307 306 308 313 315 312 310 313 321 325 334 329 323 326 334 343 349 353 356 355 356 357 355 352 355 357 356 353 351 347 348 348
310 310 310 310 310 308 305 304 304 306 307 309 309 307 307 312 316 322 323 311 329 331 327 326 324 323 328 329 335 346 354 349 357 355 353 355 351 354 357 359 353 352 351 349 347
310 309 309 309 309 309 305 304 303 306 307 310 310 308 312 316 327 325 319 313 327 322 323 319 320 326 329 331 331 339 343 350 354 355 353 353 353 351 353 357 350 348 349 348 347
308 308 308 309 307 306 305 304 304 305 307 309 310 311 316 315 316 320 313 320 326 318 316 313 317 320 328 330 333 337 336 342 352 351 351 352 357 357 357 355 350 348 349 349 347
307 307 306 305 305 307 307 306 305 305 307 308 312 312 314 311 316 321 312 317 320 319 316 314 316 317 323 328 333 334 334 336 350 351 354 356 355 355 357 355 352 349 349 348 347
306 305 307 305 307 307 307 306 305 305 307 309 314 315 316 311 325 321 317 317 319 317 312 315 317 321 327 334 332 333 333 337 350 351 354 355 359 359 356 355 353 350 348 348 346
308 307 307 307 308 308 307 305 305 307 308 311 314 319 312 316 326 322 320 321 319 317 316 316 316 321 325 328 326 325 322 323 349 353 355 355 359 357 356 358 355 351 349 347 345
309 309 309 308 308 308 306 308 311 310 311 315 321 320 324 323 323 324 321 323 320 317 317 316 317 320 322 326 325 324 330 324 353 355 358 360 359 358 355 357 359 352 350 348 346
310 310 310 310 309 308 309 313 313 314 320 321 322 318 318 319 318 318 324 323 321 316 318 318 318 320 322 325 335 331 326 324 326 351 356 360 358 357 357 357 358 354 351 350 348
310 310 310 310 309 308 311 314 306 308 324 316 323 319 319 320 315 314 320 321 320 320 320 318 321 324 326 326 325 325 325 326 324 341 356 357 355 356 356 356 356 354 352 351 349
310 310 311 311 310 312 312 310 313 311 311 312 319 320 320 319 315 314 319 321 322 322 322 323 325 325 326 326 325 326 326 326 323 325 327 330 347 355 354 356 355 353 351 350 348
310 310 311 311 311 312 312 314 314 311 308 310 311 313 313 316 313 313 314 319 324 324 324 326 328 326 328 328 327 325 325 325 325 326 352 353 351 358 353 353 354 352 350 347 348
311 311 311 310 311 313 314 315 314 310 309 314 313 313 311 311 316 317 317 319 323 325 325 327 326 328 327 329 326 329 323 325 324 320 320 335 326 351 355 354 353 354 349 349 347
311 312 311 311 313 312 315 315 314 310 314 315 313 312 309 312 314 314 314 316 319 325 324 326 324 326 326 324 325 327 322 323 322 319 318 321 319 322 351 356 353 351 351 348 348
313 313 312 310 310 314 314 315 311 310 317 315 311 311 311 310 313 313 312 310 313 315 315 317 316 318 321 321 323 322 318 315 313 313 319 319 317 317 349 345 350 349 349 349 347
314 312 312 311 312 313 314 309 312 316 314 316 314 312 310 309 310 312 312 311 311 313 311 311 313 311 313 317 316 317 316 318 320 319 319 313 317 334 333 337 339 338 342 348 349
314 315 315 315 315 314 313 310 316 317 315 314 314 313 314 312 311 311 311 312 311 309 309 310 314 312 313 314 315 317 316 318 322 319 319 316 319 333 339 338 341 343 341 339 346
317 317 315 313 316 314 308 312 313 314 313 314 314 314 313 313 311 311 310 310 311 310 312 312 314 312 313 312 313 316 313 313 315 315 320 319 327 326 339 339 339 338 340 341 341
319 317 313 314 315 310 309 313 313 312 312 313 316 314 314 313 313 310 311 311 312 309 309 312 313 312 312 312 311 311 312 317 314 321 325 322 338 343 341 340 340 338 339 340 341
315 309 315 314 312 307 310 313 312 310 311 312 312 312 312 313 310 310 311 311 311 312 307 309 309 313 310 310 310 310 311 310 313 314 320 327 340 337 340 339 337 337 337 339 342
311 312 315 313 309 303 309 310 310 310 309 309 310 310 311 309 310 310 311 310 309 309 308 308 305 309 310 309 309 310 311 308 319 318 314 324 334 334 336 336 335 333 334 336 337
311 309 314 313 310 308 310 310 309 310 308 309 309 308 306 307 310 310 311 310 311 309 307 307 304 305 312 309 308 310 310 309 306 308 313 329 332 333 333 334 334 334 331 331 334
306 310 306 304 302 308 310 310 312 310 309 308 309 307 308 307 305 309 309 310 308 314 315 306 302 302 308 310 308 312 311 310 308 312 312 314 325 330 329 331 329 333 332 329 329
304 309 306 309 309 307 308 310 312 311 308 306 310 309 308 309 308 309 308 307 308 309 307 304 307 308 308 310 310 310 309 309 312 311 314 314 332 326 329 324 323 324 329 329 329
312 311 303 305 305 308 307 310 312 311 309 309 310 309 307 309 308 310 309 308 308 306 306 303 312 308 308 310 308 313 316 316 320 322 318 324 323 325 322 319 318 318 321 325 327
312 311 306 306 306 307 309 310 312 311 311 308 308 308 309 309 307 307 305 303 306 307 304 305 306 304 308 308 307 308 311 321 320 318 321 324 320 319 321 318 317 316 315 317 319

GFSSW_925_thetae_093.txt.gz
Theta_e
312 313 312 309 307 306 307 306 305 307 306 307 308 307 306 306 307 313 314 309 309 316 333 340 331 338 338 349 344 347 359 360 358 361 361 354 357 354 353 354 354 350 347 344 344
313 312 311 310 308 307 306 305 305 306 306 307 309 310 307 309 312 314 310 309 311 319 332 330 328 329 330 342 349 353 358 357 355 356 357 355 354 357 357 356 354 352 347 345 345
311 311 311 310 309 307 305 304 304 304 306 308 310 314 308 312 317 323 323 310 314 322 331 326 325 325 328 335 344 352 358 352 356 354 353 354 355 354 358 359 354 353 349 345 344
309 309 310 309 309 308 305 304 304 304 306 307 309 314 313 316 324 323 321 315 329 324 325 323 324 327 331 339 342 345 343 350 354 353 353 352 353 354 354 357 351 349 345 344 345
307 308 309 307 307 308 309 306 305 304 305 307 310 311 315 315 314 321 313 332 328 323 322 322 323 328 330 336 339 344 341 340 350 354 352 352 356 351 355 353 349 347 345 345 345
309 308 307 307 308 309 309 308 306 304 306 307 311 312 314 312 316 318 315 328 321 318 317 320 322 325 329 333 338 338 340 339 351 354 351 355 356 355 355 352 351 348 346 347 348
310 310 309 309 309 309 308 307 305 304 306 307 314 315 315 312 326 316 323 325 320 317 318 316 321 323 328 334 334 335 337 340 344 351 355 353 357 357 355 354 352 352 350 349 348
310 310 309 309 309 309 307 306 307 306 307 309 318 318 314 320 328 319 318 320 318 316 316 316 318 325 328 330 329 330 328 333 353 351 352 356 360 357 356 357 355 353 351 350 350
310 309 309 309 309 309 308 312 310 310 309 314 320 321 325 322 325 323 322 321 318 316 316 316 318 324 325 332 334 331 340 329 355 352 357 358 359 359 356 357 356 353 352 351 350
309 309 310 310 309 309 313 312 315 317 320 322 322 322 320 321 319 325 322 320 319 318 319 317 319 326 329 334 345 338 330 329 342 356 359 358 359 359 358 358 356 354 352 351 350
310 310 310 311 310 310 314 314 312 315 324 319 321 320 319 319 315 322 323 323 320 321 321 319 324 330 333 334 332 330 330 330 328 345 358 351 352 356 358 358 359 356 354 352 350
311 311 311 311 310 311 311 315 314 313 315 314 317 320 319 319 315 318 322 325 326 323 323 322 326 328 331 331 329 331 332 331 327 334 347 333 338 354 356 359 359 358 355 353 351
312 312 311 310 312 312 312 313 312 312 313 313 314 315 315 318 316 316 321 325 329 325 324 323 327 328 330 332 333 332 333 330 328 326 348 352 353 358 356 358 358 357 355 353 352
313 312 311 310 310 313 314 313 313 310 315 315 315 314 314 315 316 315 318 325 326 326 327 327 329 330 331 332 332 336 329 328 329 327 328 344 333 354 356 358 359 358 356 353 352
313 313 311 310 312 314 314 313 310 310 315 316 315 312 311 315 318 315 313 319 327 328 328 329 330 331 332 332 330 332 328 329 328 328 325 339 329 338 358 356 349 354 357 354 350
313 312 311 311 311 314 313 313 311 316 317 317 314 313 313 312 314 315 316 315 316 322 322 318 317 321 326 324 327 325 324 322 322 325 327 325 324 343 345 345 346 345 346 353 352
313 315 315 312 314 314 314 313 319 320 317 318 317 315 313 314 315 315 316 316 317 325 326 317 316 315 316 320 322 325 326 328 328 327 328 321 334 350 346 345 344 346 346 345 346
316 316 313 315 313 315 311 318 322 317 317 316 316 315 315 315 315 315 316 317 315 315 316 320 319 316 316 317 321 325 326 328 330 328 327 322 341 348 341 341 342 343 343 344 344
318 317 314 313 314 312 316 318 316 315 314 316 316 317 317 315 316 316 314 315 314 314 319 318 318 315 315 315 316 321 324 319 324 322 326 326 335 339 339 341 341 340 341 342 348
317 315 313 313 312 310 317 315 315 313 313 314 318 316 318 316 316 315 315 313 314 312 312 315 318 314 314 315 316 319 316 324 324 330 328 337 342 345 343 342 340 339 341 341 342
313 317 314 313 311 315 317 315 314 312 312 314 314 315 314 315 314 314 313 312 312 314 313 314 317 316 316 315 315 318 320 321 323 324 329 333 345 338 341 339 337 334 334 338 341
312 318 314 311 316 311 314 312 310 312 311 312 313 312 313 312 313 313 313 314 313 310 312 312 314 317 315 312 312 314 316 316 327 329 325 332 341 338 337 335 337 333 331 332 335
316 315 313 312 316 314 313 312 312 312 311 312 312 311 310 312 314 313 313 312 314 314 311 311 311 318 316 315 313 315 313 314 315 319 329 330 337 333 332 330 329 332 331 330 331
314 317 315 311 308 313 314 314 313 311 310 312 312 311 312 312 312 313 313 311 312 315 314 311 311 312 317 317 314 315 312 313 316 323 323 326 337 335 329 327 326 328 329 329 329
312 313 310 315 314 312 312 313 314 313 310 312 313 312 312 313 313 313 312 312 311 311 311 312 313 313 312 311 311 311 311 311 316 317 322 332 335 331 326 324 322 322 324 327 328
319 316 309 311 310 313 311 314 313 312 311 312 313 311 312 313 313 313 312 312 312 311 312 311 314 312 312 311 312 316 317 315 317 322 328 332 331 324 322 320 322 322 322 322 322
312 309 314 309 311 311 313 313 313 312 311 311 311 312 312 311 310 309 309 309 311 312 312 313 314 312 312 311 312 312 317 321 322 323 326 332 325 322 320 319 318 318 317 318 319

GFSSW_925_thetae_096.txt.gz
Theta_e
313 313 311 308 307 308 310 310 310 305 306 307 308 307 307 307 306 316 315 314 312 323 341 338 335 342 347 350 350 351 361 360 360 361 362 355 358 356 356 355 354 351 349 344 341
312 312 311 310 308 307 308 308 309 307 305 307 310 311 308 306 316 315 314 310 309 328 337 330 332 338 343 348 351 356 358 358 356 357 360 357 357 358 359 358 357 353 345 342 342
312 311 310 309 308 307 308 310 309 308 305 307 309 314 307 314 320 322 322 309 310 327 333 327 328 329 328 338 350 354 358 353 357 355 354 354 356 354 358 361 356 356 349 344 343
311 310 308 307 308 309 309 311 310 307 305 307 308 313 311 320 324 329 321 310 317 328 329 327 327 327 327 331 346 354 350 350 355 354 354 354 352 354 357 358 352 353 346 344 344
312 312 310 308 308 310 310 310 310 306 305 307 308 311 320 320 320 331 314 316 326 328 326 327 326 325 328 335 347 349 346 344 349 353 352 353 354 355 357 354 351 348 345 344 343
311 311 312 311 309 310 310 310 309 306 304 307 308 311 318 317 324 325 328 326 324 324 323 323 324 326 327 336 348 348 346 342 347 350 353 355 353 353 358 352 351 346 345 344 343
313 312 311 311 310 310 310 308 306 305 305 307 309 318 318 317 328 323 328 325 323 323 323 322 322 325 327 336 340 341 342 338 343 349 351 353 359 357 358 354 352 347 344 344 345
312 310 310 310 310 310 309 309 310 306 306 307 311 320 317 322 328 323 324 323 321 321 321 321 322 327 329 335 339 343 339 344 345 347 351 355 361 355 355 356 354 347 345 346 348
309 310 311 311 310 310 312 312 310 309 307 312 323 326 322 326 326 322 321 321 319 319 320 320 322 328 332 336 344 342 346 341 348 346 354 358 361 357 358 357 358 352 347 348 350
310 311 312 311 310 310 313 319 320 321 321 323 324 327 324 325 325 324 324 322 322 320 321 320 324 328 333 336 343 346 344 337 346 351 356 357 359 360 357 358 357 357 353 351 350
312 312 312 311 310 312 317 319 320 326 324 322 323 322 322 320 322 324 323 324 321 320 323 321 324 327 331 334 338 341 340 339 342 352 355 353 350 359 359 358 358 357 356 354 351
313 312 312 311 310 313 314 319 318 317 318 318 319 320 320 320 320 325 323 325 320 321 323 321 325 327 332 335 337 339 337 336 333 345 349 335 337 344 357 356 358 358 355 354 352
312 312 312 310 311 313 317 317 315 315 318 316 318 319 319 320 320 325 325 326 323 323 323 322 324 329 335 337 336 339 338 335 335 333 337 343 351 357 353 355 356 357 355 354 352
313 313 311 311 314 317 318 316 315 315 318 316 318 318 318 319 319 321 323 327 328 324 324 323 328 331 336 337 335 336 337 334 331 332 342 344 346 351 356 359 360 359 356 355 353
312 311 310 311 317 319 317 315 313 314 318 317 317 316 317 317 319 320 322 324 328 325 325 327 331 333 335 336 335 336 334 335 331 332 331 338 341 352 353 354 353 359 358 356 355
314 314 312 314 315 316 315 315 314 320 320 318 315 315 316 320 319 318 320 321 326 327 326 329 330 333 334 334 333 331 332 332 332 331 333 338 337 350 351 352 352 351 351 355 353
315 314 315 314 319 316 317 318 322 321 319 318 317 316 319 321 321 321 321 323 326 330 328 326 328 322 323 332 332 330 330 333 335 332 331 331 332 354 347 348 348 350 349 348 350
316 315 314 315 315 316 318 322 323 320 320 319 317 316 319 319 320 319 320 324 321 323 328 324 326 324 320 325 331 330 329 331 334 331 330 329 340 351 344 344 346 343 344 347 349
318 319 318 315 315 315 321 322 322 320 318 319 318 316 318 318 319 320 320 322 319 320 325 325 322 318 319 321 322 330 330 328 329 330 330 333 347 343 342 344 344 342 342 345 350
321 320 318 314 314 317 321 319 320 317 317 318 318 319 318 318 319 320 320 317 318 317 319 322 323 319 318 319 321 325 326 328 328 332 332 332 345 350 345 344 343 341 339 342 343
319 321 317 314 315 321 322 319 317 316 316 319 319 319 319 319 319 319 317 316 316 317 319 320 323 320 320 322 324 324 327 327 327 329 331 335 344 342 343 341 340 336 335 337 340
320 321 316 315 319 320 320 318 310 316 316 317 318 318 318 318 318 318 319 318 315 315 319 318 321 322 321 317 317 320 325 327 330 331 330 332 351 339 337 337 336 334 333 331 333
320 319 317 317 318 317 317 315 315 315 316 317 317 317 317 318 318 317 317 314 315 316 318 317 320 322 320 319 318 321 320 323 325 328 331 330 349 335 333 334 334 334 333 331 330
320 319 318 318 317 318 317 316 316 314 315 316 316 316 318 318 318 318 316 314 316 315 314 315 319 321 322 322 321 320 317 319 323 328 329 331 344 336 334 333 332 333 332 332 331
319 317 317 319 318 318 317 316 316 315 314 315 316 316 318 319 319 318 316 315 314 314 315 317 320 318 317 316 316 316 316 315 321 325 328 337 341 336 332 331 330 330 331 329 330
320 318 315 317 317 317 314 316 315 314 314 315 316 315 316 318 318 318 317 317 317 315 316 316 320 318 317 314 314 316 317 317 318 322 329 337 334 329 327 326 327 327 328 328 327
318 315 319 311 315 314 316 315 315 314 313 314 315 316 316 315 315 315 315 315 316 316 316 316 317 318 317 314 314 314 316 318 320 324 329 337 333 328 327 327 326 324 323 323 322

GFSSW_925_thetae_099.txt.gz
Theta_e
313 313 312 311 312 312 312 312 309 307 306 306 307 310 307 306 306 313 317 317 316 315 339 336 340 338 343 348 347 354 365 363 360 362 365 358 361 358 357 355 354 353 348 344 344
312 311 311 310 311 312 312 312 310 307 305 307 307 309 310 306 316 317 318 315 312 320 340 336 336 338 345 347 349 356 364 360 356 358 360 359 359 360 359 358 357 354 346 343 344
313 312 312 309 309 311 312 312 312 309 305 305 308 308 308 314 323 323 318 314 310 326 334 332 331 339 341 343 350 355 360 356 357 356 354 358 359 355 360 362 357 351 347 345 345
313 313 313 311 311 310 312 313 312 310 305 305 307 309 310 322 330 333 322 313 309 328 334 328 329 333 332 336 346 354 353 353 355 353 355 356 354 356 358 357 353 349 346 345 346
314 314 313 311 310 311 312 314 312 310 305 305 307 310 319 323 325 331 319 310 317 331 333 329 329 330 329 331 343 352 349 348 353 353 354 352 352 356 358 354 353 352 346 345 345
313 314 313 312 311 311 312 312 312 308 305 305 308 310 321 322 325 326 324 319 323 331 329 328 328 328 329 331 344 348 347 347 350 354 353 354 354 355 359 354 354 351 346 345 344
313 312 311 313 312 312 312 310 307 305 304 306 308 317 323 322 327 326 325 321 325 328 328 326 325 327 328 334 342 348 351 344 348 352 355 354 357 360 357 354 352 349 346 344 344
311 311 313 312 313 312 310 313 311 306 305 308 309 320 323 322 326 326 325 324 324 325 325 324 323 326 329 334 342 348 347 347 346 348 353 356 363 362 356 356 351 349 346 345 344
311 312 313 313 311 310 312 313 310 309 307 309 322 326 325 328 325 326 324 324 323 324 323 323 323 326 329 336 341 348 349 346 347 348 353 358 362 360 354 356 352 349 346 346 346
312 313 313 312 311 310 314 321 322 319 318 323 327 330 328 325 324 324 323 321 323 323 324 323 324 326 331 337 342 348 346 344 349 348 355 359 358 360 356 358 354 349 347 347 349
313 313 313 311 310 312 318 322 326 328 324 328 322 326 322 323 324 324 325 325 322 323 325 323 324 326 330 330 335 341 342 343 347 349 354 359 360 362 362 359 359 353 349 348 348
313 313 312 311 311 314 316 323 320 320 321 323 322 324 322 324 325 325 323 327 326 322 325 323 324 325 328 332 335 341 341 341 348 351 357 357 353 359 357 357 357 359 355 352 351
312 312 311 310 312 314 320 319 318 318 321 319 321 322 322 322 323 325 325 325 323 323 324 325 324 326 329 332 337 342 340 339 341 350 343 341 353 356 353 354 357 356 355 354 352
312 310 310 312 314 319 320 319 318 318 322 319 320 321 320 322 323 325 324 327 324 323 324 326 325 327 332 336 337 338 337 337 339 341 348 345 358 362 354 361 360 359 357 355 353
314 313 311 313 319 320 320 318 318 319 324 319 319 319 320 321 321 323 324 327 329 324 326 326 325 328 333 335 333 335 337 337 335 337 347 348 353 358 351 357 362 360 358 356 353
315 315 313 314 318 319 318 319 318 321 324 319 319 318 319 319 321 323 325 325 328 328 325 327 326 331 333 334 333 336 336 338 336 335 340 350 348 355 360 354 358 358 358 356 354
316 314 315 317 322 319 319 322 322 322 321 320 317 318 317 320 321 321 323 324 330 330 329 330 330 332 331 334 334 336 337 338 338 336 336 342 348 359 351 350 352 352 352 354 355
317 316 320 318 319 319 321 325 326 326 321 320 319 317 320 322 322 322 324 325 326 329 328 330 333 330 332 334 335 335 334 335 337 333 332 333 350 353 348 347 345 345 346 349 351
316 320 322 320 319 320 324 326 326 322 321 319 319 318 321 320 322 323 323 325 325 326 328 328 327 326 326 329 328 334 333 331 331 332 331 342 351 346 346 348 346 343 343 346 352
320 322 322 320 319 320 325 321 322 320 320 319 318 318 320 320 320 321 322 323 324 323 324 327 327 325 324 325 326 328 330 332 331 335 333 344 351 350 349 347 344 341 341 342 347
320 323 321 320 319 324 324 323 321 319 320 321 322 319 320 319 320 321 321 321 321 322 323 324 326 325 323 326 328 328 330 330 331 332 334 340 352 347 347 342 343 338 337 338 341
320 323 320 318 323 321 322 321 311 319 320 320 321 319 319 319 320 320 320 321 318 320 323 323 324 326 324 324 324 326 328 330 332 333 332 333 352 341 342 341 339 337 334 333 334
324 319 318 318 323 320 320 318 318 318 319 320 321 321 320 320 320 320 320 318 318 320 322 322 322 327 325 323 323 325 327 328 329 330 334 333 355 341 339 340 337 336 333 332 331
322 323 319 318 319 319 319 318 318 315 317 319 319 321 321 321 322 321 319 318 318 317 318 320 321 324 325 325 323 324 324 325 327 330 332 335 347 343 340 340 337 335 334 334 332
320 318 321 321 319 318 319 318 317 317 316 317 319 320 322 323 322 321 320 318 318 317 320 321 321 321 322 320 321 323 322 321 324 327 329 343 345 342 341 339 337 335 334 334 333
324 320 317 318 318 319 315 318 316 315 317 317 318 317 318 321 322 322 321 321 321 320 321 321 322 322 321 319 319 319 320 320 320 323 327 342 341 337 336 337 336 334 333 332 331
318 316 321 314 318 317 319 318 316 315 316 317 317 317 319 319 319 320 320 320 321 321 321 322 321 323 322 320 319 320 320 320 321 321 325 341 338 335 335 335 334 332 330 329 327

GFSSW_925_thetae_102.txt.gz
Theta_e
313 312 311 312 312 313 313 313 311 309 308 305 306 307 308 307 306 311 314 316 317 317 318 327 329 333 339 344 349 353 364 365 362 365 367 360 362 358 357 354 353 352 347 345 344
316 315 315 311 309 311 312 312 310 311 308 305 305 307 309 309 316 316 318 317 316 315 331 332 337 340 340 345 348 360 363 363 356 359 363 359 357 359 358 356 356 347 345 344 344
316 316 315 314 313 311 312 312 312 309 309 305 305 308 309 312 322 321 324 317 316 313 331 335 337 337 342 344 347 358 364 359 359 357 356 359 361 359 360 360 354 348 346 345 344
316 315 314 315 314 313 312 313 312 309 307 305 305 308 309 319 336 330 318 316 312 315 333 335 334 336 343 344 344 357 354 355 357 355 356 359 357 361 360 358 348 346 345 345 344
315 315 315 314 313 313 314 311 311 310 307 304 306 308 318 323 323 328 320 318 313 318 334 335 331 333 337 335 337 352 352 355 353 355 355 354 356 360 360 354 349 346 345 345 343
314 314 314 313 315 313 314 313 311 308 306 304 307 309 320 327 326 327 322 317 315 324 335 332 329 330 331 331 334 346 350 351 354 354 352 354 355 352 358 353 354 348 346 345 343
312 313 314 314 314 313 312 310 310 306 305 304 308 317 323 324 327 327 323 318 319 329 333 330 329 329 328 331 334 347 349 347 355 353 355 352 359 359 359 355 356 349 346 344 342
312 313 313 314 313 312 310 312 311 309 304 305 308 320 326 322 324 327 324 320 323 329 329 327 327 326 328 330 337 344 348 351 356 355 354 353 364 357 356 357 355 348 345 344 343
313 313 313 313 313 311 312 311 311 309 306 308 317 323 329 324 326 326 324 323 324 327 326 325 325 325 327 330 337 346 350 349 350 352 357 357 365 357 355 358 352 348 345 344 344
314 313 313 313 311 310 313 318 314 312 312 318 325 327 328 326 325 327 325 324 325 326 326 325 324 325 327 332 338 344 347 348 350 354 358 361 362 357 354 357 352 348 346 345 346
313 313 312 312 310 311 317 323 326 329 325 328 327 329 329 324 325 325 324 323 324 325 326 325 324 324 326 330 336 339 343 347 347 357 358 358 360 356 354 360 352 348 347 346 347
313 312 312 310 311 312 314 325 321 322 322 324 324 324 324 325 325 325 325 324 322 324 325 325 323 325 326 330 331 334 342 346 356 355 357 358 357 356 356 357 357 350 348 349 348
312 310 310 311 313 313 319 322 318 319 320 323 322 323 324 325 327 325 325 326 326 324 324 326 324 324 326 328 330 333 339 342 364 351 348 354 358 352 353 350 354 353 349 349 351
314 311 311 312 313 319 321 319 318 319 323 321 320 321 322 323 323 325 323 326 325 325 323 325 326 324 326 328 331 335 341 342 354 351 359 354 367 356 358 360 358 358 357 352 350
315 314 311 313 317 322 322 318 319 319 328 320 320 321 322 322 323 326 324 325 328 323 324 324 326 325 327 330 332 337 338 339 339 343 352 352 355 359 357 359 361 359 358 356 351
316 314 314 313 315 320 319 319 319 321 326 320 320 320 320 321 322 325 324 326 327 329 324 326 326 326 328 332 334 335 336 339 338 336 348 350 351 363 360 361 359 359 357 356 353
317 316 314 317 322 320 320 321 321 322 323 321 320 319 320 320 322 324 324 326 328 331 329 326 327 327 329 332 334 333 338 342 341 339 338 348 350 361 357 353 355 357 354 354 356
316 317 317 320 321 321 322 325 332 329 323 322 320 318 318 319 322 322 325 325 325 329 329 327 331 328 331 333 335 335 338 340 341 338 335 347 361 360 353 350 350 349 350 352 356
316 318 319 323 323 321 324 332 331 326 325 320 320 318 318 325 325 322 323 325 324 328 331 328 330 331 331 332 334 335 337 335 335 334 334 354 358 353 349 349 347 345 346 349 352
317 320 324 321 320 322 325 324 328 322 320 320 320 319 323 325 325 323 324 327 326 326 326 328 332 330 328 329 329 331 332 334 335 338 338 357 357 360 353 350 345 343 343 343 346
318 324 323 320 319 321 329 326 321 320 320 321 325 321 321 322 321 321 324 324 323 323 325 326 329 327 327 326 328 330 330 332 332 333 336 357 359 349 351 347 344 341 338 339 341
320 324 323 319 322 323 325 322 313 320 319 320 323 325 322 322 322 322 323 322 320 321 323 325 326 329 326 325 325 327 329 331 334 337 335 352 357 346 345 343 341 338 335 335 337
325 324 319 318 324 323 321 319 319 319 320 321 321 320 320 321 322 322 322 319 319 320 323 324 325 328 327 325 325 327 328 329 330 332 337 344 355 343 342 341 339 339 335 333 336
324 323 320 318 320 320 319 319 319 316 318 320 321 321 320 322 320 320 321 319 318 319 323 323 322 325 328 328 325 325 327 327 328 331 331 349 350 344 342 340 338 338 336 334 333
324 321 322 323 320 320 319 318 317 318 316 317 320 320 321 322 322 322 320 319 319 318 320 320 322 322 324 325 322 324 324 326 326 328 335 348 348 344 341 340 338 337 335 334 334
323 323 316 319 319 320 314 319 317 315 318 317 317 319 319 322 323 325 323 321 321 321 321 322 323 322 324 322 321 322 323 323 322 323 341 344 346 341 339 338 337 336 334 333 332
320 318 322 314 318 318 320 319 317 316 316 317 317 318 317 321 321 321 322 321 322 322 322 322 323 323 323 322 321 321 321 321 321 322 328 344 342 339 338 338 336 335 332 331 330

GFSSW_925_thetae_105.txt.gz
Theta_e
317 317 316 316 314 313 312 311 309 307 307 305 304 305 307 308 306 313 313 311 313 316 316 325 322 323 327 340 346 352 363 366 364 364 365 361 363 359 356 351 348 346 346 344 346
316 316 317 316 316 315 315 313 312 311 310 305 304 306 308 308 315 316 309 313 315 316 316 325 325 328 330 336 341 356 359 358 358 360 364 361 361 361 358 356 355 347 345 344 346
315 316 316 316 313 314 314 313 313 313 311 307 304 306 308 311 322 318 321 314 316 316 316 330 329 333 339 337 342 351 359 350 351 357 358 357 361 360 360 354 347 347 345 343 346
315 315 315 314 315 314 314 314 311 313 311 308 305 307 308 316 336 327 322 316 317 316 315 325 335 337 336 339 343 361 355 356 358 356 356 361 357 361 359 357 347 344 343 343 345
314 314 313 312 312 315 314 314 313 312 311 307 305 308 318 323 319 327 319 318 316 312 317 331 336 333 335 338 339 352 353 356 356 357 357 357 360 361 357 355 345 344 344 342 341
315 314 313 315 314 313 313 313 312 311 308 306 305 308 320 322 328 326 319 317 316 313 321 331 336 329 331 334 329 345 357 358 356 357 355 359 360 356 358 356 346 345 344 341 340
314 314 315 314 313 313 312 310 311 314 307 305 306 316 319 320 327 326 322 318 314 314 329 334 335 327 328 327 327 346 351 355 355 353 354 353 357 359 359 356 352 346 344 342 340
315 314 314 314 313 312 310 311 313 314 309 304 308 319 321 323 321 326 323 319 316 319 328 333 330 326 325 325 327 332 349 361 356 353 353 354 364 357 357 357 358 351 345 343 341
314 314 314 313 312 310 311 312 311 312 307 306 313 320 326 323 322 326 325 320 318 322 327 330 326 324 323 324 325 332 341 355 359 354 355 356 361 356 354 356 358 351 345 342 342
312 313 313 312 311 310 313 315 311 312 314 316 318 325 323 326 324 325 326 322 323 325 327 325 321 322 321 322 327 334 341 358 361 358 357 360 361 354 354 356 356 349 344 341 343
312 311 312 311 310 311 314 322 322 325 325 323 324 328 326 326 324 325 326 325 323 324 325 324 321 320 320 323 326 331 340 350 354 357 358 359 359 352 355 357 358 349 342 342 342
313 310 310 310 310 312 313 319 324 319 321 323 323 325 325 324 325 325 325 323 322 323 324 324 322 322 322 324 326 328 334 359 362 360 357 360 360 356 356 357 356 354 343 344 342
314 313 310 310 312 312 315 321 320 318 317 319 322 322 323 323 324 323 323 323 321 322 322 323 323 324 322 323 325 327 329 355 361 353 358 355 358 356 354 353 352 350 351 345 344
315 315 312 312 316 317 319 321 319 319 318 323 321 320 323 323 325 325 324 324 323 321 321 321 324 324 322 323 324 325 336 354 353 355 362 352 360 355 353 353 351 350 354 348 345
315 315 315 312 313 317 321 318 318 318 325 321 319 321 320 320 322 323 323 322 324 323 323 322 322 323 322 324 324 327 349 351 349 350 355 354 358 358 353 354 353 352 348 348 346
315 315 315 315 314 320 322 320 319 319 326 320 320 320 320 320 320 324 323 322 323 325 325 322 322 323 323 324 325 331 332 345 350 353 364 357 354 362 360 356 352 349 345 351 348
314 315 315 315 318 320 321 320 321 322 326 320 318 318 318 319 320 325 325 322 323 327 328 324 322 323 324 327 328 332 332 337 343 359 355 350 352 357 355 347 346 345 346 355 353
314 313 316 316 318 321 322 326 333 328 327 325 321 319 318 318 319 323 323 323 324 324 326 325 324 324 326 327 328 332 329 338 351 340 334 341 361 362 351 350 350 350 352 352 354
314 316 320 321 322 321 323 331 331 327 325 324 320 319 317 323 325 324 322 322 324 324 328 330 326 326 328 328 332 333 332 330 336 332 334 359 360 355 350 350 349 349 350 349 348
315 317 319 321 324 323 325 329 329 326 324 320 322 322 324 324 325 324 324 325 326 324 325 329 327 329 330 330 330 330 328 329 329 336 339 360 362 362 353 350 345 345 345 346 346
317 319 322 323 320 321 327 326 326 324 319 323 324 324 324 324 324 326 326 324 324 321 320 325 326 329 328 328 330 328 327 329 328 331 332 359 358 353 349 345 343 341 340 342 343
319 322 323 323 318 322 325 324 319 319 320 321 323 324 324 323 323 325 324 322 319 319 322 324 324 331 328 325 325 325 325 327 330 331 338 353 356 348 344 340 338 337 337 339 342
321 325 323 319 319 323 324 319 318 318 319 321 322 322 321 322 324 324 323 321 319 320 320 320 323 325 328 324 324 325 325 325 323 324 331 338 356 346 342 341 337 335 335 337 338
321 328 321 318 319 320 319 319 318 316 317 319 321 320 322 322 322 322 322 319 318 317 321 322 319 326 326 326 326 324 324 324 325 326 346 352 351 344 342 340 338 336 334 334 335
325 324 319 324 320 319 320 319 317 317 316 316 320 320 320 324 324 326 323 319 319 319 320 318 322 321 321 324 325 321 322 324 326 330 340 347 347 344 340 339 338 335 333 332 334
327 320 320 319 319 318 316 318 317 316 319 318 316 319 318 325 324 325 323 322 320 320 320 321 322 321 322 322 322 321 321 323 323 342 345 345 345 338 337 336 336 335 333 331 329
323 321 324 320 318 318 320 319 317 317 316 317 317 320 319 317 318 318 320 320 320 322 323 323 324 325 322 324 322 320 321 320 321 321 343 347 342 338 338 337 335 334 331 330 328

GFSSW_925_thetae_111.txt.gz
Theta_e
315 316 316 316 316 315 315 315 314 315 316 313 311 305 304 307 307 311 312 308 309 323 321 324 323 323 321 326 340 352 359 360 359 363 361 354 354 354 348 347 346 345 345 343 349
315 315 316 316 315 315 316 315 315 315 316 315 311 306 305 307 311 316 309 308 310 323 325 324 325 321 319 325 334 354 353 358 354 358 358 357 356 352 349 348 349 346 344 348 349
314 315 315 315 315 315 315 316 316 315 315 314 312 307 306 308 318 314 319 308 311 315 316 318 323 321 324 329 332 351 352 353 352 356 355 356 356 352 349 352 348 348 349 349 348
315 315 315 315 315 315 315 315 315 314 314 312 311 308 308 314 318 327 324 316 310 314 318 316 318 325 330 336 337 350 348 350 356 352 350 357 354 353 351 352 346 348 348 348 346
315 315 315 315 315 315 315 314 314 313 314 313 308 308 316 318 312 316 321 311 312 319 316 316 324 331 334 334 342 348 353 355 356 353 355 356 357 356 353 348 347 348 348 347 346
314 313 313 313 315 315 315 315 312 312 314 314 307 310 316 307 317 320 317 314 317 316 314 319 328 330 334 332 333 336 355 357 357 358 357 356 356 352 352 351 349 348 348 347 346
314 313 314 313 314 314 314 311 311 312 314 312 308 316 318 310 325 324 319 315 317 316 311 315 324 332 332 331 326 353 356 357 358 357 358 354 357 353 350 346 349 349 348 347 345
314 313 312 313 313 312 311 310 313 314 315 309 312 317 312 312 317 319 318 316 315 314 316 319 320 330 332 328 338 353 352 360 358 355 355 351 361 354 356 353 349 349 349 347 344
313 313 310 309 311 310 310 311 313 309 317 309 314 318 314 318 320 317 320 318 316 314 312 317 324 327 321 320 320 322 348 356 354 354 357 353 358 353 354 350 349 345 345 347 345
313 313 309 308 309 310 312 317 314 317 313 313 317 318 319 323 320 320 320 318 314 313 318 320 319 318 315 317 322 326 344 355 356 354 356 356 355 356 354 350 348 350 344 346 348
313 314 312 309 309 310 313 319 318 320 320 313 317 323 324 323 322 322 322 318 319 320 323 321 318 319 320 319 320 322 323 344 359 355 358 357 356 357 354 352 352 351 351 348 348
313 313 314 311 310 311 310 312 318 317 317 319 319 321 321 322 322 321 323 318 320 322 321 319 320 319 319 319 320 321 323 356 356 354 357 357 359 355 354 352 352 350 350 346 347
313 313 314 314 312 313 312 314 316 317 314 314 320 319 319 319 321 321 320 319 320 321 321 321 322 321 321 321 321 320 321 336 360 356 355 357 360 358 354 352 350 348 349 348 344
313 313 313 314 313 315 312 315 316 317 311 316 318 320 318 320 323 322 321 320 319 320 319 321 321 323 322 322 319 320 319 327 357 354 358 352 359 358 355 354 351 349 349 349 344
312 314 313 313 316 312 314 317 318 313 321 319 319 319 317 321 321 322 321 321 322 318 316 319 319 320 321 321 319 320 327 325 351 349 349 355 355 346 354 357 354 349 346 349 344
312 314 314 313 314 316 316 317 314 313 324 323 319 317 320 319 319 321 322 320 320 322 320 320 320 320 319 319 319 343 345 344 343 346 351 351 353 354 357 355 351 349 349 350 346
313 313 313 312 314 316 316 315 317 317 320 323 322 316 318 318 318 321 321 321 319 320 321 321 323 322 319 320 324 343 337 345 351 349 349 347 355 352 350 350 352 352 350 350 346
313 313 313 312 313 314 317 318 326 326 324 322 321 317 317 315 317 320 319 320 318 320 319 322 324 321 320 319 319 341 332 338 345 349 345 349 354 355 348 347 347 350 349 349 348
314 314 312 311 315 317 315 321 321 325 323 322 318 319 319 320 320 322 321 321 319 319 321 321 324 323 321 322 322 327 330 326 332 331 343 352 357 353 349 349 349 350 349 349 350
315 315 313 312 320 319 317 321 322 322 323 321 320 320 321 321 322 322 323 323 320 318 316 322 324 322 323 325 325 323 324 328 325 335 339 353 357 360 352 350 348 347 348 346 346
315 311 314 315 320 315 319 318 322 322 323 319 321 320 320 322 322 323 324 323 319 318 317 319 319 323 323 323 326 326 325 321 321 324 336 349 353 349 351 346 347 346 345 346 346
312 314 318 319 317 310 313 318 319 314 319 320 320 320 320 321 322 322 323 322 322 318 318 317 317 323 325 321 319 323 324 321 325 328 341 342 353 345 346 343 342 343 345 344 344
312 311 318 316 317 313 312 318 314 314 314 318 319 319 318 319 321 322 322 322 321 318 315 315 315 323 324 322 318 319 318 318 316 326 339 344 353 342 341 342 341 341 344 342 340
313 317 311 309 308 312 318 315 314 312 312 314 316 317 319 319 317 321 321 320 319 315 324 317 314 322 324 320 318 320 321 319 318 333 342 347 353 346 340 339 339 341 341 339 337
315 319 312 315 312 311 312 314 313 314 313 311 316 318 317 320 320 321 320 318 315 319 318 315 318 319 324 321 319 319 319 320 319 325 332 345 349 345 340 338 339 339 339 338 336
317 316 314 314 310 313 308 312 314 313 312 315 314 314 314 319 320 321 320 318 319 316 317 311 318 321 324 327 319 318 318 320 340 343 343 344 344 339 336 334 338 338 338 338 336
320 317 316 317 315 311 311 313 316 313 314 315 315 314 313 314 314 317 315 314 315 317 317 317 315 318 322 324 321 321 318 317 336 340 342 345 341 338 337 336 335 335 335 335 332

GFSSW_925_thetae_114.txt.gz
Theta_e
315 314 314 314 315 315 315 314 316 316 314 314 313 311 307 305 307 310 310 308 308 317 319 324 324 321 328 331 344 348 356 363 362 361 358 352 353 351 346 345 345 345 345 345 347
314 314 314 314 314 314 315 315 315 316 315 315 313 309 307 308 311 314 308 308 312 321 323 324 325 320 318 323 335 353 352 358 355 355 355 357 353 349 349 348 347 346 346 348 349
315 315 314 314 314 314 314 315 315 314 314 314 313 309 306 311 315 308 318 308 321 325 323 323 323 319 324 326 331 351 352 354 353 354 351 357 353 348 350 352 345 349 350 349 349
314 314 314 314 314 314 314 315 315 314 313 312 313 308 307 314 310 325 322 308 322 319 317 319 319 323 329 332 332 352 348 350 351 355 352 356 351 351 351 351 344 346 348 348 348
315 314 313 314 314 315 315 314 314 313 313 313 311 310 314 314 309 311 319 309 324 317 316 315 325 328 331 333 339 347 346 352 355 354 352 353 355 354 349 348 345 348 348 348 347
314 314 314 314 314 315 315 314 313 312 312 314 307 314 315 306 314 324 317 309 312 318 315 319 324 328 333 333 335 337 352 358 355 352 355 355 355 351 350 347 349 349 348 346 346
314 314 311 313 314 314 314 312 312 313 314 313 309 316 316 306 315 324 312 310 313 316 312 317 327 332 332 332 333 351 357 359 358 356 356 352 360 354 351 347 351 349 347 346 346
314 314 312 310 311 311 311 310 311 313 313 309 313 316 308 310 319 323 316 318 318 314 315 315 323 329 332 326 336 353 350 359 358 355 354 352 362 354 350 351 352 350 348 347 346
313 314 313 309 309 310 311 312 311 313 314 312 314 316 311 315 319 319 317 316 314 314 313 317 322 326 321 319 324 329 351 356 358 354 355 353 357 352 351 351 352 351 349 347 344
312 313 313 309 309 310 314 315 317 316 313 314 316 316 318 322 321 317 318 316 312 311 314 317 315 317 314 318 323 330 345 349 352 355 356 356 355 352 351 351 352 351 350 346 345
312 313 313 312 310 310 315 318 314 316 319 311 314 320 321 322 320 319 319 319 315 316 321 319 318 321 319 319 320 321 322 328 359 354 357 356 356 354 352 350 350 350 347 347 346
312 313 313 313 313 311 310 310 315 318 316 317 318 317 318 320 321 319 321 317 319 321 320 318 319 317 318 319 320 320 322 351 357 355 355 357 359 355 353 351 349 351 350 346 346
311 312 313 313 313 313 312 314 316 315 314 314 319 318 318 319 321 320 319 318 319 320 321 321 322 318 320 320 320 320 319 349 357 356 355 358 360 357 354 351 349 350 349 348 347
311 312 313 313 311 313 312 315 315 314 311 316 316 320 318 319 322 320 321 319 318 319 318 321 321 321 321 322 319 320 318 331 356 350 355 350 358 356 357 355 352 349 349 349 348
312 312 313 313 313 312 314 315 315 311 319 319 318 319 317 320 320 321 320 319 318 318 318 320 318 321 321 321 318 320 330 329 353 346 346 349 348 346 354 357 354 350 349 349 344
312 312 313 312 313 315 316 316 311 313 323 322 318 317 320 319 318 320 320 318 319 320 319 319 319 319 319 319 318 341 342 341 339 342 346 344 344 349 357 355 353 350 347 347 347
312 313 313 312 312 316 315 314 315 319 319 321 320 317 319 318 319 321 321 319 319 320 321 321 321 321 319 320 326 338 339 344 347 349 349 340 351 346 348 349 351 350 347 346 348
313 312 313 312 312 313 316 319 324 324 323 321 318 313 317 316 317 319 319 319 318 317 318 321 323 321 318 320 322 337 334 339 345 346 344 347 352 350 349 346 347 347 343 346 348
313 313 313 310 311 314 315 319 320 323 322 322 317 318 319 320 320 320 319 317 319 316 319 320 323 321 320 318 325 334 337 328 332 329 345 348 354 351 348 350 349 348 347 347 348
314 314 313 314 317 316 317 320 321 320 322 319 320 319 321 321 322 321 322 321 318 317 315 319 323 321 322 323 323 326 325 329 325 335 338 351 354 352 354 353 352 351 349 348 348
314 311 313 317 317 315 319 317 320 320 322 318 319 319 319 321 321 322 322 322 319 319 316 316 319 322 322 323 324 323 324 320 321 325 335 346 348 349 349 348 347 346 345 345 348
308 316 314 317 315 308 314 316 317 313 320 319 318 318 319 320 321 321 322 321 321 318 317 316 316 322 324 320 317 320 322 319 325 329 335 337 343 343 347 345 344 345 345 343 343
311 310 315 315 318 314 311 317 311 313 312 317 319 318 317 319 319 320 321 320 320 317 314 315 315 321 323 321 317 318 318 316 315 328 339 335 339 343 344 342 343 344 343 343 340
312 314 310 307 306 312 317 315 312 313 313 312 315 315 317 318 317 320 320 318 317 316 324 316 315 320 323 320 316 319 318 318 317 328 336 336 347 347 343 341 342 344 342 341 340
311 316 312 316 312 310 311 312 314 314 312 311 314 315 317 319 318 320 319 317 314 317 314 312 319 320 321 319 319 319 317 318 318 322 329 336 343 345 341 338 342 342 339 338 336
315 315 313 314 313 311 308 312 312 312 314 315 313 313 313 318 319 319 318 316 318 315 315 310 318 319 323 323 321 318 317 321 340 341 341 341 344 338 334 336 340 341 339 337 335
317 316 313 313 308 309 310 313 313 314 314 314 314 313 313 313 312 313 314 311 310 315 316 315 316 318 321 319 321 323 318 318 326 340 341 342 338 337 336 339 340 340 338 337 333

GFSSW_925_thetae_117.txt.gz
Theta_e
314 314 314 314 314 314 315 315 314 315 315 315 314 311 306 304 305 309 310 308 308 314 324 327 325 327 336 342 350 347 361 364 361 360 358 351 352 348 346 346 346 346 345 345 347
315 314 313 314 314 314 314 314 314 314 314 315 313 311 308 307 310 313 308 308 308 318 327 324 322 322 326 331 343 355 358 360 356 356 356 353 352 349 347 349 350 349 347 346 347
315 314 314 313 314 314 314 314 314 315 314 312 313 311 309 311 314 309 318 308 309 318 326 322 322 322 328 330 340 354 355 355 354 353 351 352 350 347 349 351 349 350 350 348 346
314 313 313 313 314 314 314 314 314 313 313 313 312 308 312 314 312 326 314 308 325 324 322 322 321 326 333 341 337 352 349 352 352 353 352 353 347 348 351 351 344 346 346 345 344
314 314 313 313 313 314 314 314 313 313 312 313 312 307 314 314 310 312 314 317 327 318 320 322 322 329 338 336 338 344 344 349 351 354 351 351 350 350 350 346 345 346 346 346 346
315 314 313 313 313 314 314 314 312 311 311 312 311 312 315 308 313 324 328 317 323 316 316 321 324 331 336 336 342 340 351 356 355 355 353 354 351 351 349 346 348 348 348 348 348
313 314 314 313 313 313 313 312 312 313 313 312 311 316 316 309 313 322 325 320 323 315 316 319 325 333 335 332 340 351 358 359 356 356 356 350 355 354 349 349 350 350 350 349 348
312 314 314 312 311 310 311 310 311 313 313 309 313 316 311 309 323 320 316 315 314 315 315 315 325 332 335 330 344 356 357 365 360 357 355 354 356 351 350 350 351 351 350 350 349
311 312 313 310 310 310 311 312 309 311 311 312 315 316 311 314 318 318 316 316 316 314 313 315 321 329 325 331 349 346 359 359 364 356 356 356 360 354 351 351 352 350 350 350 350
311 312 313 311 309 310 316 314 317 315 315 315 317 319 319 319 319 318 317 315 315 314 316 319 324 331 325 326 344 353 343 349 357 359 357 357 358 356 353 352 352 352 350 350 350
310 312 313 313 312 310 317 318 318 320 317 317 315 319 321 321 318 318 315 315 315 316 322 323 333 338 332 326 326 329 327 340 357 356 359 358 358 357 355 353 353 352 349 351 349
310 312 313 313 313 312 310 314 317 317 320 318 318 317 317 318 321 319 318 317 314 317 322 327 336 329 324 323 324 325 327 359 359 357 358 358 359 356 355 354 353 352 349 349 349
310 312 312 313 312 312 311 313 315 315 319 317 319 320 319 320 322 322 320 318 317 324 326 333 330 321 323 323 325 325 327 353 356 359 357 358 362 359 355 353 350 350 348 348 348
310 311 312 312 311 313 314 315 315 314 319 319 319 321 320 321 323 321 321 322 322 326 325 331 322 322 323 324 324 328 323 337 357 354 354 355 360 360 357 356 352 352 350 348 349
311 312 312 312 311 313 313 314 315 312 322 322 319 318 319 323 323 323 322 322 324 323 324 326 323 324 325 325 324 327 325 330 344 352 351 357 354 354 356 360 357 352 351 350 347
311 312 312 312 312 314 315 314 312 319 324 322 318 320 322 321 322 321 323 321 320 323 323 323 321 322 324 323 323 340 337 344 348 350 344 346 350 354 361 360 357 353 351 350 348
313 312 312 312 314 315 314 314 322 324 321 323 322 320 322 320 322 324 324 323 323 325 326 324 324 323 322 324 327 345 341 351 354 353 345 346 352 348 352 351 355 355 351 350 348
314 312 312 312 312 311 315 324 325 325 324 322 318 319 322 320 320 321 324 324 320 322 323 323 321 323 323 325 325 338 336 335 340 347 343 352 355 351 350 349 349 352 351 349 348
315 313 312 310 311 314 321 325 324 324 323 323 320 322 323 322 322 323 322 324 322 322 325 326 326 324 323 322 327 334 336 332 339 340 346 352 352 353 350 352 350 352 350 349 350
315 313 312 313 311 316 323 321 324 320 323 320 323 321 324 324 324 324 324 322 320 319 319 324 326 324 325 324 324 332 330 330 336 345 343 355 356 353 354 354 353 352 351 349 349
312 318 314 315 315 322 323 320 321 319 322 321 321 322 322 324 324 325 324 322 320 320 320 322 326 327 325 328 329 328 331 330 332 335 338 346 353 353 353 351 354 351 349 349 349
311 321 314 316 321 315 319 317 314 317 318 320 320 321 322 322 323 324 324 323 322 320 321 320 326 328 328 324 321 323 327 330 334 337 339 342 344 346 349 349 349 350 350 348 347
318 318 313 315 323 322 317 317 313 315 314 319 320 320 320 321 324 323 323 321 321 318 320 321 324 325 327 325 322 324 322 322 326 338 343 337 340 346 348 347 345 346 347 348 348
318 321 317 314 311 316 319 315 315 314 315 317 318 318 321 323 321 323 322 320 317 322 322 322 323 327 323 327 323 324 322 322 324 334 338 338 347 349 349 349 345 345 345 344 344
317 320 315 320 318 314 315 314 316 315 316 316 318 318 320 323 323 323 321 319 317 319 318 321 327 324 323 322 321 322 323 334 327 327 335 339 346 347 348 346 344 345 344 342 341
322 322 317 319 317 314 312 316 315 315 318 318 317 315 319 320 320 323 321 321 320 320 320 318 326 324 326 324 325 322 323 330 335 336 338 339 344 343 345 343 343 343 341 342 340
317 316 318 313 313 316 315 315 316 317 316 316 316 317 317 315 314 314 317 316 315 320 322 323 325 326 326 324 326 326 324 325 336 341 342 342 343 343 345 343 343 341 341 340 337

GFSSW_925_thetae_120.txt.gz
Theta_e
314 314 314 315 314 315 314 314 314 314 314 315 314 313 307 304 304 316 313 312 311 317 332 330 328 340 348 348 351 350 362 365 363 360 361 352 352 350 348 350 347 347 344 347 348
314 314 314 314 315 314 314 314 314 314 314 313 312 312 306 305 315 313 312 308 308 318 329 326 327 338 344 348 349 356 361 360 356 357 356 354 352 351 350 351 350 346 346 347 345
314 314 313 313 314 315 314 314 314 313 314 312 312 310 305 312 318 313 316 308 309 319 328 324 323 333 341 343 350 354 359 352 350 352 353 351 350 349 350 352 349 350 349 346 345
314 314 313 313 314 314 314 314 314 314 313 312 312 310 306 319 316 326 313 308 310 325 326 324 324 327 341 348 346 354 352 352 350 353 353 353 349 352 351 351 346 345 345 345 344
314 314 314 313 313 313 314 314 314 313 311 312 312 310 318 318 316 324 311 310 319 324 324 325 324 326 340 346 346 350 352 352 352 353 353 349 350 352 352 345 344 344 345 345 342
313 314 313 313 313 313 314 314 313 312 312 312 310 310 318 314 316 328 319 329 324 322 323 324 324 329 342 344 346 344 347 351 354 352 354 353 352 346 349 344 345 346 346 345 344
312 314 314 313 311 310 311 312 312 312 313 312 310 317 318 314 317 330 320 325 322 322 324 323 324 337 340 343 336 340 353 356 357 355 356 350 353 352 349 345 347 347 347 346 346
310 313 314 312 309 310 311 310 310 312 312 310 312 319 316 311 326 325 321 323 321 318 321 322 326 337 339 338 347 349 351 360 360 357 351 352 360 352 350 348 349 348 348 349 348
310 312 313 311 309 310 313 309 308 307 308 311 319 318 313 315 323 318 317 317 318 316 317 318 327 337 336 342 350 351 354 359 364 356 356 352 356 352 351 349 351 351 350 350 350
309 311 312 313 310 312 316 317 316 316 316 318 318 323 318 320 322 318 316 315 317 318 318 321 329 337 338 340 353 350 351 355 361 361 359 360 359 353 353 353 352 351 350 351 350
309 311 312 312 313 313 318 321 325 326 319 323 317 321 323 322 321 320 318 318 317 319 320 323 331 338 339 336 335 346 345 349 356 357 359 359 358 356 354 353 351 351 352 350 350
309 311 311 312 312 312 313 320 321 319 323 322 322 321 321 323 323 322 318 319 318 319 322 327 332 334 338 331 332 339 340 350 355 358 359 357 358 359 358 352 347 351 348 350 350
310 311 311 312 312 312 316 319 317 318 323 321 322 323 323 321 323 322 320 320 319 320 325 323 328 334 330 331 333 334 336 350 351 357 355 358 363 362 358 356 349 349 348 348 351
310 311 312 311 314 317 319 317 316 316 324 321 322 323 323 323 322 323 320 318 317 320 324 326 329 331 333 333 334 338 330 344 354 353 358 356 367 363 360 360 353 352 350 347 348
310 312 312 311 317 318 317 316 316 317 324 323 323 322 325 325 325 324 321 323 321 324 327 330 330 329 330 331 330 334 328 332 339 340 343 352 350 356 359 362 359 356 350 349 347
312 313 312 314 315 317 316 316 317 322 326 323 321 324 325 325 325 324 326 324 324 326 327 327 328 327 329 329 328 330 330 335 339 338 341 340 346 359 359 359 357 355 353 351 347
314 314 312 314 319 316 316 320 327 326 323 323 323 324 325 326 325 325 326 324 325 327 328 326 326 326 325 326 326 332 334 341 341 343 340 341 345 345 352 353 354 357 354 351 348
317 314 314 314 315 315 317 327 326 324 324 324 322 325 325 324 326 326 325 324 324 324 325 327 327 325 325 326 327 333 336 338 343 342 340 346 346 347 349 350 352 354 354 352 352
318 315 316 315 314 316 325 326 325 325 325 322 321 325 326 324 324 325 326 325 323 324 325 324 324 324 324 324 326 328 332 333 335 337 340 348 344 354 352 352 352 353 354 353 353
319 317 317 316 315 320 327 323 324 324 324 323 323 324 326 325 324 326 325 325 325 324 325 326 327 325 324 326 325 328 330 330 333 342 341 344 345 345 357 354 354 354 356 354 352
319 319 318 317 318 326 324 323 322 323 323 324 324 324 325 325 325 325 325 325 323 324 324 327 328 328 328 327 326 327 329 330 329 331 337 339 343 351 353 352 355 354 354 354 353
320 321 319 318 324 323 322 321 314 321 322 322 323 324 325 325 326 325 325 326 324 324 325 327 327 329 327 328 327 329 327 329 331 335 336 337 347 351 352 351 354 354 353 352 351
323 321 318 319 323 321 320 318 319 319 321 321 322 323 323 324 327 326 326 324 322 322 326 327 327 329 329 327 327 328 328 328 329 331 334 334 333 350 351 351 352 354 352 351 351
324 322 322 322 322 322 320 319 318 318 320 321 322 323 323 324 325 326 325 322 321 323 323 323 326 327 327 329 328 328 327 327 327 329 330 333 336 352 352 352 352 352 350 351 351
324 324 322 323 323 322 322 318 317 316 320 321 322 322 322 323 324 325 324 322 321 324 322 324 327 328 325 324 324 326 327 329 330 328 331 330 333 334 350 352 351 349 348 348 350
327 326 323 323 321 322 316 319 318 317 318 318 320 320 321 322 323 325 324 323 322 322 321 322 326 326 326 326 326 325 325 329 331 332 333 333 336 345 348 350 348 349 347 349 348
323 324 326 315 320 321 321 319 319 319 319 319 319 318 318 318 318 319 320 321 322 324 323 324 324 326 327 327 326 327 326 327 332 337 337 338 346 346 350 348 348 347 347 346 345

GFSSW_925_thetae_123.txt.gz
Theta_e
315 315 315 315 315 315 315 315 315 315 315 314 313 311 307 305 304 315 316 315 316 314 335 334 332 338 351 350 350 351 367 367 358 358 359 355 356 352 350 351 348 347 347 346 345
315 314 315 315 315 315 315 315 315 315 315 314 312 312 307 305 317 317 316 313 311 316 332 331 330 344 355 352 352 357 368 363 361 355 356 354 354 353 353 352 350 346 346 346 345
315 315 314 314 315 315 315 315 315 315 315 313 312 308 306 310 323 319 316 313 309 317 328 329 329 346 349 349 351 355 362 356 354 355 353 353 354 350 350 352 348 351 348 346 344
315 314 314 314 314 314 315 315 315 314 314 312 312 309 306 319 324 329 321 313 308 322 329 328 327 338 344 349 350 354 351 351 350 353 352 353 350 350 351 348 347 347 345 345 344
313 314 314 313 313 314 314 314 314 314 312 312 311 308 318 322 321 326 313 312 314 325 329 330 328 329 342 350 352 353 353 351 350 353 354 351 354 353 349 346 345 344 344 344 342
312 313 314 313 312 312 313 313 311 311 312 312 310 309 321 320 318 326 319 315 317 325 327 327 328 328 338 349 350 351 353 352 355 354 352 352 349 346 349 345 345 344 344 343 342
310 313 313 313 312 310 311 311 312 312 312 311 306 316 322 319 318 329 323 320 320 324 326 325 326 327 344 348 345 348 354 355 357 356 355 351 354 349 348 344 344 345 344 343 342
309 312 313 311 310 310 311 311 310 310 309 306 307 319 324 315 327 330 324 324 323 324 325 324 325 331 342 344 344 346 353 363 359 358 355 353 360 350 346 348 346 345 345 344 344
309 311 312 312 310 311 313 311 308 306 305 308 320 323 321 316 327 326 323 324 322 322 323 323 324 335 342 343 351 349 354 361 365 357 357 354 359 352 344 347 346 346 345 345 346
309 310 311 312 312 311 315 317 314 316 316 318 320 322 322 319 324 322 321 322 321 320 321 321 325 338 343 343 354 354 352 358 363 361 357 357 357 353 352 347 350 349 347 347 346
309 310 311 312 312 313 318 324 328 329 323 326 319 325 318 323 322 321 318 318 318 320 322 321 326 339 342 342 344 344 349 360 359 359 359 359 361 356 354 354 354 354 351 348 346
309 310 311 311 312 312 314 324 322 322 325 322 322 323 323 323 323 323 319 320 319 320 322 323 326 331 338 339 339 342 349 354 365 356 358 358 361 355 356 355 352 351 351 351 349
309 310 311 311 311 313 320 322 321 321 325 322 320 323 323 324 324 323 322 322 321 320 323 324 326 329 337 340 336 339 343 351 355 356 355 359 365 361 354 353 345 348 347 348 352
310 311 312 312 314 321 321 321 320 321 326 321 322 325 324 323 324 323 321 322 321 320 323 325 326 333 337 337 336 339 337 350 355 356 361 357 372 366 361 358 351 347 349 350 348
310 312 313 312 317 321 321 320 320 322 328 324 324 324 325 324 324 324 321 321 320 320 324 325 327 331 335 334 336 337 336 337 347 352 351 354 364 360 362 364 358 351 347 350 344
312 314 313 317 317 319 320 320 322 326 327 324 325 326 326 326 326 323 322 325 323 323 325 329 330 330 331 331 332 334 334 335 338 342 345 351 348 365 367 363 361 353 348 348 342
316 317 313 316 322 320 320 322 330 329 324 323 324 326 326 326 327 322 324 326 325 327 328 329 329 329 328 330 331 332 335 340 344 345 345 340 343 359 358 354 358 356 353 348 344
319 316 317 315 319 319 320 327 331 324 325 324 324 325 327 326 326 325 326 325 325 326 326 330 329 328 327 328 328 330 335 340 346 343 342 343 346 356 351 350 352 356 354 351 345
319 318 319 318 316 319 325 331 326 325 324 323 323 327 326 326 327 327 326 326 325 325 326 327 328 326 326 326 327 328 333 334 336 339 340 342 347 352 349 352 352 353 356 355 351
321 318 318 318 318 319 329 324 325 325 324 323 324 327 326 325 326 326 327 326 325 324 326 327 327 326 325 325 325 327 330 332 334 340 341 349 354 353 351 351 352 353 356 354 355
321 321 320 320 320 327 328 324 323 324 324 325 326 326 327 326 326 327 326 326 326 325 325 327 327 328 325 325 326 326 328 331 331 333 337 343 350 349 352 350 353 353 353 355 355
324 324 322 322 328 327 324 323 315 322 323 323 324 324 325 324 327 327 326 326 325 326 325 327 328 332 328 327 326 329 326 329 332 332 332 332 346 341 348 349 351 352 353 354 354
328 324 322 322 328 323 322 321 320 321 323 323 323 324 324 325 327 327 327 326 324 326 329 328 328 330 332 330 328 329 329 327 327 329 331 335 344 350 348 349 351 352 353 355 356
327 324 324 326 325 323 322 320 318 318 321 322 322 323 323 324 325 325 326 324 323 325 328 326 327 330 333 333 331 329 327 328 329 330 331 331 350 350 349 352 355 354 355 354 356
328 324 324 323 324 324 323 319 317 319 321 321 322 323 324 325 324 325 326 325 324 323 326 326 328 328 328 328 328 329 328 327 328 328 329 329 334 339 345 352 355 356 356 355 353
330 326 324 326 324 324 318 320 318 319 319 320 321 320 322 324 326 325 324 324 324 324 324 325 325 325 327 326 326 326 327 327 328 328 328 328 333 342 352 353 355 352 353 354 354
327 326 329 319 324 324 322 320 320 321 319 319 319 319 320 320 320 322 323 325 324 325 325 324 324 326 326 325 326 327 326 326 327 331 331 332 346 346 345 353 353 351 350 352 351